GFSGL_925_thetae_000.txt.gz
Theta_e
305 304 302 301 299 299 299 298 298 298 297 297 296 296 296 295 294 293 293 293 293 293 292 292 291 291 291 291 291 291 291 291 293 292 292 292 292 293 293 293 293 293 293
302 301 301 300 299 298 298 298 297 297 297 296 296 295 294 294 293 292 292 292 291 291 291 291 290 289 289 289 290 290 290 290 291 292 291 291 292 292 292 292 293 293 293
300 300 299 299 299 298 297 297 296 296 295 295 295 294 294 293 293 291 290 290 290 290 290 289 289 289 289 289 289 289 289 289 289 289 290 290 290 291 291 291 292 292 292
300 299 299 298 298 296 296 294 294 293 293 293 292 292 291 290 289 289 289 289 289 288 288 287 287 287 287 287 287 287 287 287 287 288 288 289 289 289 289 290 290 290 291
299 297 296 295 294 294 293 292 291 290 289 288 288 288 288 288 287 287 287 287 288 287 287 287 287 286 285 285 284 285 285 286 287 288 289 289 289 289 289 290 290 290 290
298 295 294 294 293 292 291 290 289 288 288 288 287 287 287 287 286 285 285 286 286 286 286 286 286 285 284 284 283 283 283 284 286 287 287 287 288 288 288 288 288 288 289
296 294 294 293 291 290 289 288 288 288 287 287 287 287 287 286 284 283 282 283 284 284 285 285 284 284 283 284 284 284 283 283 283 283 284 285 286 286 287 287 287 287 287
295 294 294 292 290 289 288 288 287 287 287 287 286 286 285 285 283 281 281 281 283 284 284 283 283 283 283 283 283 283 283 283 284 284 284 284 284 285 285 286 286 287 287
294 294 293 291 290 288 288 288 287 287 286 286 285 285 284 284 282 280 280 281 282 282 282 282 282 282 282 282 283 283 283 284 284 284 283 283 283 283 284 284 286 286 287
294 294 292 291 289 288 288 288 287 287 286 285 285 284 283 282 281 280 279 280 281 281 282 282 282 282 282 282 282 283 283 283 284 284 284 285 284 284 284 284 285 286 286
293 292 292 290 289 288 288 288 287 287 286 285 284 283 283 282 280 280 279 279 280 281 281 282 283 283 282 281 280 281 281 281 281 282 283 283 284 285 286 286 286 286 286
293 292 291 290 288 288 288 288 287 286 285 284 283 283 282 281 280 279 279 279 280 280 281 282 282 280 279 279 279 279 279 279 281 282 283 283 284 285 286 286 286 286 286
291 291 290 289 288 288 288 287 286 285 284 283 282 282 281 280 280 279 279 279 279 280 281 280 279 278 278 279 279 278 278 281 281 282 283 284 285 286 286 287 286 286 286
291 290 290 289 288 288 287 287 285 284 283 282 281 280 280 279 279 279 278 278 279 279 279 280 278 277 278 279 279 279 280 280 280 281 282 283 284 285 286 286 286 287 287
289 289 289 288 288 287 287 285 284 283 280 279 279 279 279 278 278 277 277 277 277 277 278 278 278 278 279 279 279 279 279 279 280 280 281 282 284 285 286 286 287 287 287
288 288 288 288 288 287 285 285 283 281 278 277 277 276 276 276 276 276 275 275 275 275 277 277 276 276 278 278 278 278 278 278 279 280 281 282 282 284 285 286 285 286 287
287 287 288 287 286 285 284 284 283 282 280 278 276 276 275 275 275 275 274 274 274 275 276 275 275 276 277 277 277 277 277 278 278 279 280 280 281 283 285 286 286 286 286
286 286 286 286 286 285 284 282 282 281 281 280 278 275 275 274 274 274 273 274 274 274 274 274 274 275 275 275 276 276 276 277 277 278 279 279 280 281 283 284 285 286 287
285 286 285 285 284 283 282 282 281 281 280 279 278 277 276 274 274 274 273 274 273 273 273 273 274 274 274 274 275 275 276 277 277 278 278 279 279 280 281 282 283 283 284
284 284 283 284 284 283 282 282 281 280 280 279 278 276 275 275 275 274 274 273 272 272 272 272 273 273 273 274 274 275 276 276 276 277 278 278 279 280 280 281 281 282 282
285 284 283 284 283 282 282 281 280 280 279 279 277 275 273 274 274 274 273 272 271 271 271 271 272 272 272 273 273 274 275 275 275 276 277 278 279 279 280 280 280 281 281
284 284 284 283 282 282 281 281 280 280 279 278 277 276 274 275 274 273 273 272 271 270 270 271 271 271 271 271 272 273 274 274 274 274 275 277 278 279 279 279 279 280 280
283 283 283 283 282 281 281 281 280 280 279 278 278 276 276 275 274 274 273 272 271 270 270 270 270 270 270 270 271 271 272 272 272 273 274 276 277 277 278 279 278 279 279
283 283 283 283 282 281 281 281 280 279 278 278 278 277 276 275 274 274 273 273 272 271 270 270 269 269 269 269 270 270 269 270 270 272 273 274 275 276 277 277 278 277 278
283 283 283 283 282 282 281 281 280 280 279 279 278 277 276 275 274 274 274 273 272 271 270 270 269 269 269 268 268 268 268 269 269 270 272 273 273 274 274 275 276 277 276
283 283 283 283 283 282 281 281 280 280 279 279 278 277 276 275 274 273 273 273 272 272 270 270 269 269 268 269 268 268 268 268 269 269 271 272 272 272 273 273 274 275 275

GFSGL_925_thetae_003.txt.gz
Theta_e
307 304 303 303 302 301 300 300 299 299 298 298 298 297 297 296 295 295 295 295 295 295 294 294 293 293 293 292 292 292 292 293 294 293 293 294 294 294 295 295 295 295 295
304 303 302 301 301 300 300 298 297 297 297 296 296 295 295 295 294 294 293 293 292 292 292 292 292 292 292 291 291 291 291 291 291 293 292 293 293 293 294 294 294 295 294
303 301 301 300 299 299 297 296 296 295 295 294 294 294 293 292 292 291 291 291 291 291 290 290 290 290 289 290 290 290 290 290 290 291 291 291 292 292 292 293 293 293 293
302 300 299 298 297 296 295 295 294 293 292 291 290 290 289 289 289 289 289 289 288 288 289 289 289 289 288 288 289 289 289 289 289 289 290 290 290 290 291 292 292 292 293
301 300 298 296 295 295 294 293 292 291 290 289 289 289 289 289 288 288 287 287 287 287 287 288 288 288 288 287 286 286 286 286 287 288 289 290 291 291 291 291 292 292 292
301 299 297 295 295 294 292 291 290 290 289 289 289 289 288 288 286 285 284 284 284 284 285 286 286 287 287 286 285 285 284 284 285 286 287 289 289 289 289 290 290 290 291
299 298 296 295 294 293 292 290 290 289 289 289 288 288 288 287 285 284 282 283 282 283 284 285 286 286 285 285 285 285 285 284 284 284 284 284 285 286 287 288 288 289 289
298 297 296 295 294 293 291 290 289 289 289 288 288 288 287 286 285 283 281 281 282 282 283 284 284 284 284 284 284 284 284 283 284 284 284 284 284 285 285 286 287 287 288
298 297 296 295 294 292 291 290 289 289 289 288 288 287 286 285 284 282 281 280 281 281 282 282 283 283 282 282 282 283 283 283 284 284 284 284 284 284 284 285 286 287 288
296 295 294 294 293 292 291 290 289 289 289 288 287 286 285 284 284 282 281 280 280 281 281 281 282 282 282 282 283 283 284 284 284 284 284 285 285 285 285 284 284 285 286
294 294 294 293 293 291 290 289 289 289 288 288 286 285 284 284 283 281 280 279 280 281 281 281 282 280 280 280 280 281 281 281 281 281 282 283 283 284 285 286 285 285 286
294 293 293 292 291 290 289 289 289 288 288 286 285 284 284 283 282 281 280 279 279 279 280 281 281 280 279 279 279 280 279 279 280 282 283 284 284 284 285 285 286 287 287
293 293 292 291 290 289 289 288 288 287 287 285 284 283 283 282 281 280 279 279 278 279 280 279 280 279 279 279 280 279 279 281 282 282 283 284 285 286 286 286 286 287 287
292 291 290 290 290 289 288 288 287 286 285 283 282 281 281 280 279 279 277 277 278 278 278 279 279 278 279 280 280 281 281 281 281 282 283 283 284 285 286 286 287 287 287
290 290 289 289 289 289 288 287 286 285 282 280 279 279 279 278 278 277 276 276 276 276 277 278 278 278 279 280 280 280 280 280 281 281 282 283 283 284 285 287 287 287 288
289 289 289 289 288 288 287 286 285 283 281 280 277 277 277 276 276 276 276 275 275 275 278 277 277 277 278 279 279 279 279 279 279 280 281 282 283 283 285 287 287 287 287
288 288 288 288 287 287 286 285 285 284 282 280 278 277 276 275 275 275 275 275 275 275 276 276 276 276 277 277 277 277 278 279 279 279 280 281 282 282 283 285 286 287 287
287 287 287 287 287 286 285 284 284 283 283 282 281 278 277 276 275 275 275 276 276 275 275 275 276 275 276 276 276 277 278 278 279 279 280 280 281 282 283 284 285 285 286
286 285 285 285 285 284 284 284 283 283 282 282 281 280 278 276 276 276 275 275 275 274 274 274 275 275 275 275 276 276 278 278 278 278 279 280 280 282 282 282 283 284 284
287 285 284 285 285 284 284 283 283 282 282 282 281 280 277 276 277 276 275 274 274 274 273 274 274 274 274 274 275 275 277 277 277 277 278 279 280 281 281 282 282 282 283
287 286 284 284 285 284 283 283 282 282 282 281 281 279 276 275 277 276 275 274 273 273 273 273 273 274 274 274 274 275 275 276 276 276 277 278 279 280 281 281 281 282 282
284 285 285 285 284 284 283 282 282 282 281 281 280 280 277 277 277 276 275 275 273 273 272 272 273 272 272 272 273 273 274 274 274 275 275 276 278 279 280 280 280 281 281
284 284 284 285 284 283 283 283 283 282 281 281 280 280 279 278 277 276 276 275 274 273 272 272 272 271 271 271 272 272 271 271 271 272 273 275 276 277 278 279 279 279 279
284 284 284 285 284 283 283 283 282 282 281 281 281 280 279 278 277 276 276 275 274 274 272 272 271 271 270 270 271 270 270 269 269 270 272 275 275 275 276 277 278 278 278
284 284 284 284 284 284 283 282 282 282 282 281 281 280 279 278 277 277 276 275 275 274 273 271 271 271 270 270 269 268 268 269 269 269 271 274 274 274 275 276 275 277 277
284 284 284 284 284 284 284 282 282 282 282 281 281 280 279 278 277 277 276 275 274 273 273 272 271 270 270 271 270 269 269 269 269 269 271 272 272 273 272 274 274 275 275

GFSGL_925_thetae_006.txt.gz
Theta_e
307 305 304 303 302 301 301 299 298 297 296 296 295 295 295 295 295 293 292 293 293 292 293 293 293 293 293 293 293 292 292 293 293 293 293 293 293 293 295 295 295 295 296
305 304 303 302 300 299 299 298 296 296 296 295 294 294 294 293 292 292 292 293 292 292 292 291 292 292 291 290 290 291 291 291 292 291 291 292 291 291 292 292 293 295 295
305 304 302 300 299 298 297 296 295 294 294 293 291 291 290 290 290 290 290 290 289 288 288 288 289 290 290 289 289 289 289 290 289 289 290 290 290 290 290 291 291 292 293
304 303 302 300 297 296 296 294 293 292 291 291 290 290 290 290 289 289 288 288 287 286 286 286 286 287 288 289 289 289 288 287 286 287 287 288 289 289 290 290 290 290 291
303 302 301 300 297 296 295 293 292 291 290 290 289 289 289 289 288 286 286 285 285 285 284 284 285 286 286 287 287 287 287 286 286 286 286 286 288 289 290 290 290 291 291
302 301 300 299 297 296 295 293 292 291 290 289 290 289 289 289 287 285 285 284 283 283 283 283 283 284 285 286 286 286 285 285 285 284 284 285 285 286 287 287 288 289 287
301 300 299 297 296 295 295 293 292 290 290 290 289 289 288 288 286 285 283 282 282 281 281 282 283 284 284 285 285 285 285 285 285 284 284 284 284 284 284 285 286 287 288
298 299 298 297 296 296 295 293 292 290 290 290 289 288 288 287 286 284 283 282 281 280 281 280 281 282 283 283 283 283 283 283 284 284 284 284 284 284 284 285 286 286 286
297 297 296 295 295 294 294 293 291 290 290 289 289 288 287 286 285 284 283 281 281 280 280 281 281 282 281 282 282 283 283 283 283 283 284 284 284 284 284 284 284 285 285
296 296 294 294 294 294 293 292 290 290 289 288 288 286 286 284 285 283 282 281 280 280 280 280 280 281 281 281 281 283 283 283 283 283 282 282 282 283 283 285 285 284 284
295 295 294 293 293 292 292 290 290 289 289 288 286 285 285 284 283 282 281 280 280 279 279 279 280 281 280 280 280 280 280 281 280 280 280 281 281 282 283 284 285 285 284
295 294 294 293 292 291 290 289 289 288 287 286 285 284 284 283 281 281 279 279 278 278 278 279 279 280 280 279 280 280 280 279 279 279 281 282 283 283 284 284 285 285 286
293 292 292 291 291 290 289 289 288 287 286 285 284 282 281 280 280 279 277 277 277 277 277 277 278 279 279 279 280 280 280 280 280 282 282 283 283 283 284 284 285 285 286
292 291 291 290 289 289 289 288 287 286 285 284 282 281 280 279 278 277 276 276 276 276 276 278 278 277 278 279 280 280 280 280 280 281 281 282 283 283 284 285 286 287 287
291 290 289 289 289 289 288 287 286 285 284 282 281 279 278 277 276 277 276 277 276 276 276 277 277 276 277 279 278 279 279 279 279 280 280 282 282 283 283 284 285 287 287
289 289 289 288 288 288 288 287 286 285 284 283 281 279 277 277 276 276 276 276 276 276 276 276 276 276 277 277 278 278 278 279 279 279 280 281 281 282 283 284 285 287 287
288 287 287 287 288 288 287 286 285 284 284 283 282 280 278 277 277 276 276 276 276 276 275 276 276 276 276 276 277 277 278 278 278 279 280 280 280 281 283 283 284 284 285
288 287 287 287 287 286 285 284 284 284 284 283 282 281 278 278 277 277 276 275 275 275 274 275 275 275 275 275 276 276 277 278 277 277 279 279 280 281 282 283 282 283 284
288 287 285 285 285 285 284 284 284 284 283 283 282 281 279 278 277 277 276 275 274 274 274 274 274 275 275 275 275 275 276 277 277 276 277 279 280 281 281 281 282 282 283
288 287 285 284 285 285 285 284 283 283 283 283 282 281 279 277 277 277 276 275 274 273 273 273 274 274 274 273 274 274 275 275 275 275 276 276 278 280 280 281 281 282 282
287 286 286 285 284 285 284 283 284 283 283 282 282 281 279 277 277 277 276 276 274 273 273 272 273 273 272 272 272 272 273 273 273 273 274 275 277 278 279 280 280 280 280
285 284 285 285 285 284 284 283 282 283 283 282 282 281 280 279 278 277 277 276 275 274 273 272 272 272 272 271 272 272 271 271 270 271 272 274 275 276 277 279 279 279 279
284 284 284 284 285 285 283 283 283 283 283 282 281 281 281 280 279 277 276 276 275 274 274 272 272 271 271 270 271 271 270 269 269 269 271 273 275 275 275 277 277 278 277
284 284 284 284 284 285 284 283 283 282 282 282 282 281 281 280 279 278 277 276 276 275 274 273 272 271 271 270 270 269 269 268 268 269 271 273 274 274 274 275 275 276 276
284 284 284 284 284 284 285 284 283 282 282 282 282 281 281 280 279 278 277 277 276 275 274 273 272 271 271 270 271 270 269 269 269 269 271 272 272 272 272 274 274 275 275
285 284 283 284 284 284 284 284 283 282 282 282 282 281 281 280 279 278 278 277 276 275 274 273 272 271 271 271 271 269 269 269 269 269 271 270 271 271 271 272 272 273 273

GFSGL_925_thetae_012.txt.gz
Theta_e
305 305 305 304 303 301 300 299 298 296 295 293 294 292 290 290 289 289 289 289 289 288 287 286 286 286 285 285 284 284 287 290 291 290 290 289 289 289 289 289 289 292 291
302 304 304 304 302 300 298 298 296 295 294 292 291 290 289 289 289 289 289 288 287 286 286 285 285 285 284 284 283 284 286 286 288 288 287 287 287 287 287 287 288 288 291
296 297 299 298 298 301 298 295 294 293 292 293 291 289 289 289 289 288 288 286 286 286 285 284 283 282 281 282 282 283 284 285 286 287 286 286 286 286 285 285 287 288 289
295 295 297 298 299 299 297 296 295 294 293 294 290 289 289 289 289 287 287 286 285 284 283 282 281 280 280 281 282 283 284 285 285 286 286 285 285 285 284 285 286 286 287
295 295 296 296 296 297 297 297 295 294 294 291 289 289 289 289 288 287 286 285 284 283 283 282 281 280 280 281 282 282 284 285 285 285 284 284 284 284 284 284 284 283 284
294 295 295 296 296 295 296 295 295 294 290 292 290 289 288 287 286 286 285 284 284 283 282 281 280 280 280 280 281 282 282 283 283 284 284 283 283 283 284 283 283 283 283
295 295 295 295 294 294 294 294 294 292 292 290 289 288 287 286 285 284 284 284 283 282 281 280 279 279 279 280 280 281 281 282 282 282 283 284 284 284 283 283 283 283 283
295 294 294 294 294 294 294 293 293 291 291 288 288 286 285 284 284 284 283 282 281 280 279 278 279 279 279 279 281 281 281 281 282 282 282 282 282 283 283 283 283 283 283
294 294 294 294 293 293 292 292 292 290 288 288 286 284 283 283 282 282 281 279 278 278 278 278 278 278 279 280 280 280 280 280 280 281 283 283 283 283 283 284 283 284 283
294 293 293 293 293 292 292 291 289 288 288 286 284 282 281 280 280 280 279 278 277 277 277 277 277 278 279 280 281 280 279 279 279 279 280 280 280 281 280 281 281 282 283
293 292 292 291 290 290 289 288 289 287 286 284 283 281 280 279 278 278 278 277 277 277 276 277 277 278 279 279 280 279 279 280 280 280 279 279 280 280 281 282 281 281 282
292 292 290 290 289 289 288 288 287 286 285 283 282 281 280 279 278 277 277 277 277 277 276 277 278 278 278 278 279 279 280 280 280 280 280 280 281 282 282 283 283 283 283
291 290 289 289 289 288 288 287 286 285 284 283 282 281 280 279 278 277 277 277 277 277 276 277 276 277 277 277 277 278 278 278 279 279 280 280 281 282 282 283 284 285 285
291 290 289 288 287 288 287 285 285 284 284 283 282 282 280 279 278 278 278 277 277 276 275 276 275 275 276 276 276 277 277 278 278 278 279 280 280 281 282 283 284 285 285
290 289 288 287 287 287 286 285 284 284 283 283 282 282 280 279 278 279 278 277 277 275 275 275 275 275 275 275 275 275 276 277 277 278 278 279 280 281 281 282 284 284 285
289 289 288 286 286 286 286 285 284 283 283 283 283 282 281 278 278 279 278 276 275 274 274 274 274 274 274 274 274 274 275 276 276 276 277 278 278 280 281 281 282 283 283
289 288 288 286 286 286 285 284 283 283 283 282 282 282 281 279 278 278 277 275 274 274 273 273 273 273 273 273 273 273 273 274 274 275 275 276 277 279 280 281 281 282 282
288 288 287 287 286 285 284 284 283 283 283 283 282 282 281 279 278 277 276 275 274 273 272 273 273 273 272 272 272 272 272 272 272 273 274 275 276 277 278 279 280 280 281
288 288 287 287 285 284 284 284 284 283 282 282 282 282 281 280 278 277 276 276 274 273 273 272 272 272 272 271 271 271 271 270 270 272 273 274 275 275 276 278 279 279 278
288 288 287 285 284 284 284 284 284 283 282 282 282 282 281 280 279 278 277 276 275 274 274 273 272 272 271 271 271 271 270 269 269 271 272 273 274 274 275 276 277 278 278
287 287 286 285 285 285 284 284 283 283 282 282 282 282 281 280 280 279 278 277 276 275 274 274 273 272 271 271 270 270 269 269 268 269 271 272 273 273 274 274 276 276 276
287 286 285 284 283 283 284 284 284 282 282 282 282 282 281 281 280 280 279 278 277 276 275 274 274 273 271 271 270 270 270 269 269 269 270 271 272 272 273 274 275 275 275
287 286 285 284 284 283 283 283 284 283 282 282 282 282 282 282 281 280 279 278 277 277 276 275 274 273 272 271 270 271 270 269 268 268 270 271 271 271 272 273 274 274 274
287 286 285 283 284 283 283 283 284 284 283 282 282 281 281 281 281 280 280 279 278 277 276 275 274 273 273 271 271 271 271 269 269 268 270 270 270 270 271 272 272 273 273
286 286 285 284 283 283 283 283 284 284 284 283 282 281 281 281 281 280 280 279 278 277 277 276 275 273 273 272 271 271 270 269 269 269 270 270 270 270 270 270 271 271 271
287 287 286 286 284 284 283 283 283 284 284 283 282 281 281 280 280 280 279 279 279 278 277 276 275 274 273 272 271 271 271 269 269 269 269 269 270 269 270 270 269 270 270

GFSGL_925_thetae_015.txt.gz
Theta_e
301 301 302 302 300 298 300 299 297 296 295 295 293 293 292 290 289 289 289 288 288 288 287 286 286 285 285 284 283 283 283 284 286 286 287 288 289 288 288 288 288 288 289
296 295 295 295 296 296 299 297 297 297 296 294 292 293 292 289 289 289 288 288 288 286 285 285 284 283 282 281 280 281 282 282 284 284 285 287 288 288 287 287 286 287 288
295 295 294 294 294 295 295 295 295 296 295 293 294 293 290 289 289 289 288 287 286 285 285 284 283 282 281 280 280 280 281 282 283 283 284 285 286 286 286 286 285 285 285
294 294 294 294 295 294 294 294 295 295 294 294 294 292 289 290 289 288 287 286 285 285 283 283 282 281 280 280 280 280 282 282 283 284 284 284 285 286 285 284 284 284 284
294 294 294 295 295 294 293 294 295 294 294 294 291 290 291 289 288 287 286 285 284 284 283 282 281 280 281 280 280 281 281 281 283 283 284 284 284 284 284 284 284 283 283
294 294 294 294 294 293 293 294 294 295 294 291 292 290 287 287 286 285 285 285 284 283 282 281 280 279 279 279 280 280 281 281 282 282 282 283 283 283 283 283 283 282 281
294 294 294 294 293 293 293 294 293 293 292 291 288 287 286 285 284 284 284 283 281 280 279 278 278 278 278 278 279 280 280 281 281 282 282 282 282 282 283 283 283 282 282
293 294 294 293 293 292 292 292 292 291 291 288 287 286 285 283 282 282 281 280 279 278 277 277 278 278 278 279 279 279 280 280 280 280 281 282 282 282 282 283 283 283 283
294 294 293 293 293 293 292 291 292 289 288 287 285 284 283 281 280 280 280 278 277 277 277 277 278 278 278 280 280 280 281 280 280 280 280 281 281 283 283 283 283 282 283
293 293 292 292 291 290 290 289 288 288 287 286 284 282 281 280 279 279 279 277 277 277 277 276 277 278 279 279 280 280 280 279 280 280 280 279 279 280 281 281 281 281 281
293 292 292 291 290 289 289 288 288 287 285 284 283 281 280 279 278 278 278 277 277 277 277 276 277 278 278 279 279 279 279 280 280 280 280 279 280 280 280 280 280 280 280
292 291 291 290 289 288 288 287 287 286 285 283 282 281 280 279 278 277 278 278 277 277 276 276 276 277 277 277 277 278 278 278 279 279 280 280 281 281 282 282 282 282 282
291 291 290 289 288 288 287 286 285 285 284 283 282 281 280 279 278 278 278 277 277 276 275 276 276 276 276 276 276 277 277 277 278 278 279 279 280 281 281 282 283 283 284
290 290 289 288 287 287 287 285 285 284 283 283 282 282 281 279 278 278 278 277 276 275 274 274 274 274 274 274 275 276 276 276 276 277 278 279 280 280 281 282 283 283 284
289 289 289 288 286 286 285 284 284 283 283 283 282 282 281 280 278 279 278 277 276 275 274 274 274 273 273 274 274 274 274 275 275 275 276 277 278 280 281 282 283 283 284
288 288 288 287 286 286 285 285 284 283 283 283 282 282 281 280 279 279 278 276 275 274 273 273 273 273 272 273 272 273 273 273 273 274 275 275 276 278 280 281 282 282 282
288 288 288 287 286 286 285 284 283 283 283 282 282 282 281 280 279 278 277 276 274 273 272 272 272 272 272 272 272 271 271 270 272 273 274 274 275 277 278 279 280 281 281
288 287 288 288 287 286 285 284 283 283 282 282 282 282 281 280 279 278 277 276 275 274 273 272 272 272 271 271 271 271 270 269 270 272 273 274 274 275 276 277 278 278 278
289 288 288 287 287 285 284 284 284 283 282 282 282 281 281 280 280 278 277 276 275 274 273 273 272 271 271 271 271 270 270 269 269 271 272 273 273 274 274 275 276 277 277
288 288 287 287 286 284 284 284 284 283 282 282 282 281 281 281 280 279 278 277 276 275 274 274 273 272 271 271 270 270 269 269 269 269 271 272 272 273 273 274 275 275 276
288 287 287 286 285 285 284 284 284 283 283 282 282 282 282 281 280 280 279 278 277 276 275 274 274 273 272 271 270 270 270 269 268 268 270 271 272 271 273 273 274 274 274
287 287 287 285 284 284 283 283 283 284 283 282 282 282 281 281 281 280 280 279 278 277 276 275 274 273 272 271 271 270 271 270 269 268 269 271 271 271 272 273 274 274 274
286 286 287 286 285 284 283 283 283 283 283 283 282 282 281 281 281 281 280 279 278 277 277 276 275 274 273 272 271 270 271 270 269 268 269 270 270 270 270 272 272 273 273
287 286 286 286 285 283 283 283 283 283 283 283 283 282 281 281 281 281 280 280 279 278 277 276 275 274 273 273 271 271 271 270 269 268 269 270 270 270 270 271 271 271 272
287 287 286 285 285 284 284 283 283 283 283 283 283 283 282 281 281 280 280 279 279 279 278 277 276 275 274 273 272 271 271 271 269 269 269 270 270 269 269 270 269 270 270
286 287 287 286 286 285 285 284 284 284 282 283 283 283 282 281 281 280 280 279 279 279 278 277 276 275 274 273 272 271 271 271 270 269 269 269 269 269 269 270 270 270 270

GFSGL_925_thetae_018.txt.gz
Theta_e
297 296 295 294 293 292 293 293 293 294 296 297 296 294 293 293 292 290 289 288 288 288 287 286 286 285 284 283 282 281 280 281 282 282 283 284 284 284 288 288 287 287 287
295 295 294 293 293 294 293 292 293 293 294 295 295 293 292 293 291 289 289 288 288 287 285 285 285 284 283 282 281 280 280 280 281 281 282 283 283 284 287 287 287 287 286
295 294 294 294 294 293 293 292 292 293 294 293 292 293 293 291 289 289 288 288 286 285 285 284 283 283 282 281 280 280 280 280 280 282 283 283 283 284 285 286 286 285 285
294 294 294 294 294 294 293 292 292 293 294 293 294 294 290 290 290 288 287 286 285 285 284 283 283 282 281 281 280 280 280 280 280 281 281 283 283 284 284 284 285 284 284
294 294 294 294 294 294 293 292 292 293 294 293 293 291 291 290 288 286 286 285 284 284 283 282 281 280 281 280 280 280 280 280 281 281 281 282 283 283 284 284 284 284 283
294 293 293 294 294 293 292 292 292 293 293 292 291 290 287 287 285 285 284 284 283 281 280 278 277 278 278 279 279 279 280 280 281 281 281 281 281 282 283 282 282 282 283
293 293 293 294 293 292 292 292 292 292 291 291 289 286 286 285 283 282 282 281 280 279 278 277 277 277 277 278 278 279 280 280 280 280 280 281 281 281 282 282 282 282 282
293 293 294 293 292 292 292 291 290 291 291 290 286 285 284 283 281 281 281 280 278 277 277 277 277 277 277 278 279 279 279 279 280 280 280 280 280 281 281 281 281 282 282
293 293 293 292 292 292 290 290 289 290 288 287 286 284 283 281 280 279 279 278 277 277 277 276 277 277 277 279 279 280 279 280 280 280 280 280 280 280 281 282 281 282 282
292 292 292 292 291 290 289 289 288 287 288 286 285 283 282 281 279 279 279 278 277 277 277 276 276 277 278 279 279 278 279 279 279 280 280 280 280 279 279 280 281 281 281
292 291 291 291 290 289 289 288 287 287 286 284 283 282 281 280 279 278 279 278 278 277 276 276 276 277 277 278 278 277 278 278 278 278 279 280 280 280 280 280 280 279 280
291 290 290 290 289 289 288 287 287 286 284 284 283 282 281 280 278 278 278 278 277 276 275 275 276 276 276 276 276 277 277 277 277 277 278 279 279 280 281 281 282 282 281
290 289 289 289 289 288 287 286 285 284 284 283 282 282 281 280 278 278 278 277 276 276 275 275 275 274 274 274 275 275 275 275 276 276 277 278 279 280 280 281 282 282 283
289 288 288 288 288 288 286 286 285 284 284 283 282 282 281 280 279 278 278 277 276 275 274 274 273 273 273 273 273 274 273 274 274 275 275 276 278 279 281 281 282 283 283
289 288 288 288 288 286 285 285 284 284 284 283 282 282 282 281 279 279 279 277 276 275 273 273 273 272 272 272 272 272 272 272 273 274 274 275 276 278 280 281 281 282 283
288 288 288 287 287 286 285 285 285 284 283 283 283 282 282 281 280 279 278 277 275 274 272 272 272 272 271 272 271 271 270 270 271 273 273 274 275 276 278 279 280 280 281
288 288 288 287 287 286 286 285 285 284 282 282 282 282 282 281 280 279 278 277 275 274 273 272 272 272 271 271 271 271 270 269 270 272 273 273 274 275 276 277 278 278 279
288 288 288 287 287 287 286 285 285 284 283 282 282 282 281 281 280 279 278 277 276 275 274 273 272 271 271 271 271 270 270 269 269 271 272 272 273 274 274 275 276 276 277
288 288 288 287 287 287 286 285 284 284 283 282 282 281 281 281 280 279 278 277 277 276 275 274 273 272 271 271 270 270 269 269 268 269 271 272 272 272 273 274 275 275 276
287 288 287 287 287 286 285 284 284 283 283 283 282 281 281 281 281 280 279 279 278 277 276 275 274 273 272 271 271 270 270 269 269 269 270 271 271 271 272 272 273 274 274
286 287 287 286 286 286 285 284 284 284 283 283 282 281 281 281 281 281 280 279 279 278 277 276 275 274 273 272 271 270 270 270 269 268 268 270 271 271 271 272 273 273 273
286 286 286 285 286 286 284 284 283 283 283 283 283 282 281 281 281 281 281 280 279 278 277 276 276 275 274 273 272 271 270 270 269 269 268 270 270 270 270 271 272 273 273
286 286 286 285 285 286 285 284 283 283 282 282 283 283 282 282 281 281 281 281 280 279 278 277 276 276 274 273 272 271 270 270 269 269 268 270 270 270 270 270 271 271 271
286 286 286 286 285 284 285 284 283 283 283 282 282 283 283 282 282 281 281 280 280 279 279 278 277 276 275 274 273 272 271 271 270 269 269 269 270 270 269 270 270 270 270
286 286 286 285 286 285 285 285 284 284 284 283 283 282 283 283 283 282 281 280 280 279 279 278 277 277 275 275 273 272 271 271 271 269 269 269 269 269 269 269 270 270 270
286 286 286 286 285 285 285 284 284 284 284 284 284 283 283 282 283 283 281 280 280 279 279 279 278 277 276 275 274 272 271 271 271 270 269 269 269 269 269 269 270 269 269

GFSGL_925_thetae_024.txt.gz
Theta_e
300 299 299 298 297 297 296 296 296 295 295 294 294 295 295 295 295 295 295 295 293 292 291 291 291 290 289 288 288 287 287 287 287 286 286 285 285 285 285 285 286 286 287
300 299 298 297 297 297 296 296 296 295 295 294 295 294 294 294 295 295 294 292 292 291 291 290 290 289 288 287 287 286 286 285 285 285 284 284 284 284 284 285 285 286 287
298 298 298 298 297 296 296 296 296 295 294 294 294 294 294 294 293 292 292 291 290 290 290 289 288 287 286 285 285 285 284 283 284 284 284 283 283 283 284 284 285 286 286
298 297 297 297 297 296 296 296 296 295 294 294 294 293 293 292 292 291 290 290 290 289 288 287 285 284 284 283 282 283 283 283 283 282 282 283 283 283 283 284 285 285 286
297 297 297 296 296 296 296 296 295 294 294 293 293 293 292 291 290 290 290 289 288 287 285 284 283 282 280 280 280 281 281 281 282 282 283 283 283 283 284 284 284 284 285
297 297 296 295 295 295 295 295 293 293 293 293 293 292 291 289 286 285 284 286 286 285 284 283 283 282 281 280 280 280 279 280 281 282 282 283 283 283 283 283 283 284 286
296 296 295 294 294 294 294 293 293 293 293 292 293 291 290 289 285 283 283 284 284 283 283 282 282 281 281 280 280 280 281 281 281 281 281 283 283 283 283 283 283 283 284
296 295 294 293 294 293 293 293 293 292 292 292 292 290 289 287 284 283 282 284 283 283 282 282 282 281 280 279 279 280 280 281 280 281 281 281 281 281 282 282 282 283 283
294 293 293 293 293 292 292 292 292 292 291 291 291 290 288 287 283 282 281 283 283 283 282 281 280 279 279 278 278 279 279 280 280 280 279 280 280 281 281 281 282 282 284
293 293 293 292 292 291 291 292 292 291 290 290 289 289 286 286 283 281 280 283 283 282 282 281 279 278 277 277 277 278 279 279 279 279 280 280 281 282 282 282 282 282 283
292 292 291 291 291 291 291 291 291 291 290 289 288 287 286 285 284 281 280 281 282 281 281 281 279 277 276 276 276 277 278 277 278 279 280 280 281 282 282 283 283 283 283
291 291 291 291 290 290 291 291 291 290 290 289 287 286 286 285 283 281 280 279 279 280 280 280 278 276 276 275 276 275 275 276 278 279 280 280 281 281 282 282 283 283 283
291 291 291 291 290 290 290 290 290 290 289 289 288 287 287 286 285 283 280 279 279 279 279 278 276 275 275 276 276 275 276 276 277 278 279 279 280 281 282 283 284 284 284
291 291 291 291 290 289 289 289 289 289 288 288 287 287 286 285 285 284 283 282 281 280 280 278 277 275 276 276 277 277 276 275 276 277 278 279 279 280 282 282 283 285 286
290 290 290 290 290 290 289 288 289 288 288 287 287 286 285 285 284 283 282 282 281 280 277 278 278 278 278 278 277 277 276 275 275 276 277 278 279 279 280 282 282 284 286
290 290 290 289 290 289 289 288 288 287 286 285 285 284 284 284 283 282 281 280 279 278 278 279 279 279 278 278 277 277 277 276 274 275 276 277 278 278 279 280 281 282 283
289 289 289 289 289 289 288 288 288 288 287 285 284 283 282 282 283 282 281 280 279 278 279 281 280 279 279 278 277 277 276 275 274 274 275 276 276 277 279 279 280 280 281
288 288 288 289 288 289 288 288 288 288 288 287 285 284 283 282 282 282 281 281 280 280 279 280 280 279 279 278 277 276 276 275 275 274 274 274 275 276 277 278 278 279 279
289 289 288 288 288 287 287 287 287 288 287 286 286 285 284 283 282 281 282 282 281 281 281 281 280 280 279 278 277 276 275 275 274 274 274 274 274 274 275 276 277 277 278
289 288 287 287 287 287 288 287 287 287 287 286 285 285 284 283 283 282 282 282 282 281 282 281 281 280 279 279 278 277 276 276 275 274 274 274 274 274 274 275 276 277 277
289 288 287 286 287 286 287 287 287 287 287 286 285 285 284 284 284 283 283 283 283 282 281 281 281 280 279 279 278 277 277 276 275 274 274 273 273 274 274 274 275 275 276
289 288 288 288 287 286 286 287 287 287 287 286 285 285 284 284 283 283 283 283 283 282 282 281 281 281 280 279 278 278 277 276 275 275 274 272 273 275 274 274 274 274 275
288 287 287 288 287 287 286 286 286 286 287 286 286 285 285 284 284 283 283 283 283 282 282 281 281 281 280 279 278 277 277 276 275 274 273 273 273 274 274 274 274 274 274
287 286 286 286 286 286 286 286 286 286 286 286 286 285 285 285 284 284 284 283 283 282 282 281 281 280 280 279 278 277 276 275 274 273 271 272 273 274 273 273 274 273 274
286 285 285 286 286 286 286 285 286 285 285 285 285 285 285 285 285 285 284 284 284 283 282 282 281 280 279 278 278 277 276 274 273 272 272 271 272 272 272 272 273 274 273
285 285 285 285 286 286 286 285 285 285 285 285 285 285 284 284 284 284 284 284 284 283 283 282 281 280 279 279 278 277 276 275 273 272 271 272 272 272 273 273 272 273 273

GFSGL_925_thetae_027.txt.gz
Theta_e
304 301 300 300 300 300 300 299 298 298 297 296 295 295 295 295 295 296 296 296 296 296 294 293 293 292 292 291 290 289 289 289 290 289 288 287 286 286 286 286 286 286 286
302 300 301 301 300 300 299 298 298 297 297 296 295 295 295 295 294 295 294 294 293 293 293 292 292 291 290 289 288 288 287 287 287 287 286 286 285 285 285 285 285 286 286
301 301 301 300 300 300 299 298 298 297 297 296 295 295 294 294 294 293 293 293 292 292 292 291 290 289 288 287 286 286 285 285 285 285 285 285 284 284 285 285 285 285 286
301 301 300 300 300 299 298 297 297 297 296 295 295 294 294 294 293 292 292 292 292 291 290 289 287 286 286 284 283 283 283 283 283 283 283 284 284 284 285 285 285 285 285
301 301 300 299 299 298 297 297 297 296 295 295 294 294 294 293 292 291 291 290 289 289 288 287 286 285 283 282 281 282 282 282 282 282 283 283 284 284 284 284 284 284 285
301 300 299 299 298 296 296 296 296 295 294 294 294 294 293 292 290 288 286 287 287 287 287 286 285 284 284 282 282 281 281 280 281 282 283 283 282 283 284 284 284 284 285
300 299 298 298 296 295 295 295 294 294 294 294 293 293 293 291 289 287 285 285 286 286 286 285 285 284 283 283 282 281 281 281 281 282 282 283 283 282 282 283 283 284 284
299 298 297 296 295 295 294 294 294 294 294 293 293 293 292 290 288 286 284 284 286 286 285 285 284 283 282 280 279 280 280 281 281 281 281 281 281 281 281 282 282 283 283
298 297 295 294 294 294 293 293 293 294 293 293 292 292 291 290 288 286 284 285 286 285 285 284 283 282 281 279 278 279 279 280 281 280 280 280 280 280 281 281 283 283 284
297 295 294 294 293 293 293 293 293 293 293 292 291 291 291 290 287 286 283 284 285 285 284 283 283 280 278 277 277 278 278 280 279 278 279 280 281 282 282 283 283 284 284
294 293 293 292 292 293 292 292 293 293 292 292 291 290 290 288 288 285 283 282 284 284 283 283 283 281 278 277 277 277 278 277 277 279 280 281 282 282 282 283 283 284 285
293 292 292 292 293 292 292 292 292 292 292 291 290 289 289 288 287 285 284 282 281 281 282 282 282 280 277 277 277 277 276 277 279 279 280 281 281 281 282 282 284 284 284
292 292 292 292 292 292 292 291 291 291 291 291 290 290 289 288 288 286 284 282 281 280 281 281 279 278 277 278 278 277 277 279 278 278 279 280 280 281 281 282 283 284 285
292 292 292 292 292 291 291 291 290 289 290 290 289 289 289 288 287 287 284 283 282 281 282 282 280 279 279 279 279 280 279 279 277 278 279 279 280 280 281 281 283 283 285
291 291 292 291 291 291 291 291 290 289 289 289 289 289 288 288 286 286 286 285 284 283 281 280 281 282 281 281 281 280 280 279 278 277 278 278 279 279 280 281 282 283 284
291 291 291 291 290 291 290 289 289 289 289 288 287 286 286 286 285 284 283 282 281 280 280 281 282 282 282 281 281 280 280 279 278 277 277 278 278 278 279 280 281 282 283
289 290 290 290 291 290 289 290 289 290 289 288 287 286 285 285 284 284 283 282 281 280 280 281 282 282 282 281 281 280 279 279 277 278 277 278 277 277 278 279 280 280 281
290 290 290 291 290 289 289 289 289 289 289 289 289 287 286 285 284 283 283 282 282 281 281 282 282 282 282 281 281 280 279 278 278 277 277 277 277 277 277 278 278 279 279
291 291 290 290 289 288 288 289 288 288 288 288 289 288 286 285 284 283 282 282 283 283 283 283 283 283 282 281 281 280 279 278 278 277 277 277 277 277 277 277 278 278 278
292 291 290 289 288 288 288 288 289 288 288 288 288 288 287 286 285 284 283 282 283 283 283 283 283 283 283 282 281 280 279 279 278 278 277 277 277 277 277 277 276 277 278
292 291 291 290 289 289 289 288 288 288 288 288 288 288 286 286 286 286 285 285 284 284 283 283 283 282 283 282 281 280 279 279 278 278 277 277 276 276 277 277 277 276 277
292 291 290 289 289 289 289 288 288 287 287 287 288 288 286 285 285 285 285 285 285 284 284 283 283 282 282 282 281 281 280 279 278 277 277 276 275 276 277 277 277 276 276
290 290 289 288 288 288 288 288 287 287 287 287 287 288 287 286 286 285 285 284 284 284 284 284 283 282 282 282 281 280 280 279 279 278 276 276 276 276 276 276 276 276 276
289 289 289 287 286 287 287 287 287 287 287 287 286 286 287 287 286 286 286 285 285 285 284 284 283 283 282 281 281 280 279 278 278 276 275 275 275 275 276 276 276 276 276
290 289 287 287 287 287 287 287 287 286 286 286 285 285 286 286 286 286 285 285 285 285 285 285 284 283 282 281 281 280 278 278 277 276 275 274 274 274 274 274 275 274 276
286 287 287 287 287 286 285 285 285 285 284 284 283 283 284 284 285 285 285 285 284 284 284 285 284 284 283 282 281 280 279 277 276 275 274 274 274 275 275 275 275 274 275

GFSGL_925_thetae_030.txt.gz
Theta_e
308 306 304 301 301 301 301 300 299 298 298 298 297 296 295 295 295 295 295 294 294 294 294 294 293 292 292 291 291 289 289 288 287 287 287 287 286 286 285 285 285 285 285
307 304 302 301 301 301 300 300 299 298 298 298 297 296 295 295 295 294 294 294 293 293 293 293 292 291 290 289 288 287 286 285 285 285 285 285 285 284 285 285 285 285 285
305 303 302 301 302 301 300 300 298 298 298 298 297 295 295 295 294 294 293 293 293 292 292 291 290 289 287 287 286 284 284 284 284 283 283 283 283 283 284 284 284 285 285
304 302 302 302 301 301 300 299 298 298 297 297 296 295 295 295 294 293 292 292 292 291 290 290 288 287 286 285 284 283 282 282 282 282 282 282 282 283 284 284 284 284 284
304 303 302 302 300 300 299 297 297 297 297 296 295 295 294 294 293 292 290 290 289 288 288 287 287 286 285 284 283 282 282 281 281 281 281 282 282 282 282 284 284 284 283
303 302 301 301 300 299 297 296 296 296 296 295 295 294 294 294 293 291 289 288 287 287 287 286 286 285 284 284 283 282 281 281 281 281 281 282 282 283 283 282 282 282 283
303 302 301 299 299 297 296 295 295 295 294 294 295 294 294 293 292 290 288 287 286 286 286 286 285 285 284 283 282 281 280 280 281 281 282 282 282 281 281 280 281 281 282
303 301 300 298 297 295 295 294 294 294 294 294 294 293 293 293 291 290 288 286 286 286 286 285 285 284 283 282 280 279 279 279 280 280 280 280 280 280 280 281 281 281 282
300 299 298 296 295 294 294 294 293 293 293 294 294 293 292 292 290 289 287 285 285 285 285 285 284 283 282 281 279 277 278 278 279 279 278 279 280 281 281 282 282 282 282
298 296 295 294 294 293 293 293 293 293 293 293 293 292 291 291 290 288 286 285 284 284 285 284 283 282 281 280 278 277 277 278 278 277 278 280 280 281 282 282 283 283 284
295 294 293 293 293 293 293 292 292 293 293 292 292 291 291 290 289 287 286 286 283 284 283 283 283 282 281 280 277 277 277 278 277 278 279 279 281 281 281 281 282 283 284
292 293 293 292 292 293 293 292 292 291 292 292 292 291 290 289 288 287 287 285 283 282 281 282 282 282 280 278 278 278 278 278 278 278 278 279 280 280 280 281 281 282 283
293 292 292 292 292 292 293 292 291 291 290 290 291 290 290 289 288 288 287 286 284 282 282 281 281 281 280 280 280 279 279 279 279 278 278 279 279 279 280 281 281 281 282
292 292 292 292 292 292 291 291 291 291 290 290 290 290 290 289 289 288 287 285 283 282 282 282 281 280 281 281 281 281 280 280 279 279 277 278 278 278 279 280 280 282 282
292 291 291 291 291 291 292 291 291 290 290 290 290 289 289 289 288 287 286 286 284 284 283 282 281 281 282 282 281 281 280 280 279 278 277 278 278 278 278 279 280 281 281
291 291 291 291 290 291 291 291 290 289 289 289 289 288 288 287 287 287 285 285 284 282 281 281 281 282 283 282 281 281 280 280 279 278 278 278 278 278 277 278 279 280 280
289 289 290 290 291 291 290 290 289 290 290 289 289 289 288 287 286 285 284 283 283 282 281 280 280 282 283 282 281 281 280 280 279 278 278 277 278 277 277 278 278 279 279
290 290 291 290 291 290 289 289 288 288 289 289 289 289 289 288 287 285 284 283 283 282 281 281 281 282 282 283 282 282 281 280 278 278 277 277 278 277 277 278 277 277 278
291 291 292 291 291 290 289 288 288 288 289 289 289 288 288 288 287 286 284 283 283 283 282 282 281 282 282 283 282 281 281 279 278 278 277 278 277 277 277 277 277 276 277
292 292 292 292 291 290 289 289 289 288 288 288 288 288 288 288 286 285 284 283 283 283 283 283 283 283 283 283 282 282 281 280 279 279 278 278 277 277 276 277 277 277 276
292 292 292 292 291 290 290 289 289 289 288 288 288 287 288 288 287 286 285 284 284 284 283 283 283 283 282 283 283 281 281 280 279 279 278 277 277 276 276 277 277 277 276
291 291 291 291 291 290 289 289 289 288 288 288 287 287 287 287 287 286 285 285 286 285 285 284 284 284 283 282 282 282 281 280 279 279 278 277 277 276 276 277 277 277 276
287 289 290 290 290 290 288 288 288 287 287 287 287 287 287 286 287 286 286 285 285 285 285 285 285 284 284 283 282 282 281 281 280 279 278 277 276 276 276 275 276 276 276
284 285 286 287 288 289 287 287 287 287 287 287 287 286 286 286 286 287 287 286 286 286 285 285 285 285 284 284 283 282 282 281 279 279 278 277 275 275 275 276 275 276 276
283 284 285 286 287 287 287 287 286 286 286 286 285 284 284 284 284 285 285 285 285 285 285 285 285 284 285 284 283 283 282 281 280 278 277 276 274 274 275 274 274 275 275
282 284 285 285 286 286 287 285 284 283 283 283 282 282 281 280 280 280 280 280 281 282 283 285 285 284 284 284 284 283 282 281 280 278 277 275 274 274 274 274 275 274 274

GFSGL_925_thetae_033.txt.gz
Theta_e
309 307 306 304 301 301 301 300 300 299 298 298 298 297 296 295 295 295 294 294 294 293 293 293 292 292 291 290 288 287 286 285 284 284 284 284 283 283 283 283 283 284 284
309 307 306 302 300 301 301 301 300 299 298 298 298 297 295 295 295 294 294 293 293 293 292 292 291 290 289 287 287 286 285 283 283 282 282 282 282 282 282 282 283 283 284
307 306 303 301 301 301 301 301 300 298 298 298 298 296 295 295 295 294 293 293 292 292 291 290 290 289 287 287 286 285 283 282 282 282 281 281 281 281 282 282 282 283 283
306 304 302 302 301 301 302 299 299 298 297 297 297 296 295 295 295 294 293 292 291 290 289 288 288 287 286 285 284 283 282 282 282 281 280 280 281 281 282 282 283 282 281
304 303 303 302 303 302 299 298 298 297 297 297 296 296 295 294 294 294 293 292 289 289 288 287 286 285 285 285 283 283 282 281 281 281 280 280 281 281 281 282 281 280 280
304 303 303 301 301 300 300 298 295 295 296 296 295 295 295 294 294 293 292 290 289 287 286 286 286 285 285 284 283 282 281 280 280 280 280 280 281 281 281 280 280 279 280
304 303 302 302 301 297 297 296 295 295 294 294 294 294 294 294 294 293 291 290 287 286 286 286 286 285 284 283 283 282 281 279 279 279 279 279 279 279 279 280 280 280 280
303 301 300 298 296 296 296 294 294 294 293 293 293 294 293 293 293 292 291 288 287 286 285 286 285 284 284 283 283 281 280 277 277 279 279 278 278 279 280 281 281 281 281
299 297 296 296 295 294 294 293 293 293 293 293 293 294 293 292 292 291 289 287 286 285 285 285 285 284 283 282 281 281 277 276 277 278 278 279 279 280 281 282 282 282 282
296 295 294 294 293 294 293 292 293 292 292 292 293 292 292 291 291 291 289 287 286 285 284 284 284 283 282 282 281 279 276 277 278 278 278 278 278 280 280 280 281 281 281
293 293 293 294 294 292 292 293 292 292 292 292 292 292 291 291 290 290 289 287 286 285 284 284 283 282 282 281 280 278 278 278 278 278 278 277 278 278 279 279 280 281 281
295 294 294 293 292 292 292 293 293 292 291 291 291 291 291 291 290 289 288 287 286 285 284 282 281 282 282 281 280 279 279 279 278 279 278 278 278 278 278 279 279 279 281
293 293 292 292 292 292 292 292 291 291 291 291 290 289 290 290 290 289 288 287 286 285 284 282 281 281 281 280 280 280 280 279 279 279 279 277 277 278 278 278 278 280 280
292 292 292 292 292 292 291 291 291 291 291 290 290 289 290 290 290 289 289 288 287 285 284 282 282 282 281 281 282 281 281 280 280 279 278 278 278 278 277 277 278 279 280
292 292 291 291 291 291 290 291 290 290 290 289 289 289 289 289 289 289 288 287 286 285 284 282 282 282 281 281 282 281 281 280 280 279 278 278 278 278 277 277 278 278 279
291 291 290 290 290 290 290 290 291 290 289 289 289 289 289 289 288 288 288 287 286 285 283 282 282 281 281 281 282 282 281 281 280 279 278 278 277 277 277 277 277 277 278
291 290 289 289 290 290 290 290 290 289 288 287 287 288 288 289 289 287 287 286 284 283 282 282 281 281 280 280 282 282 281 281 279 279 278 278 277 277 277 277 277 276 276
291 291 290 291 291 291 290 291 290 289 288 287 288 287 288 288 288 288 287 285 284 283 282 282 281 281 280 280 282 282 281 280 280 279 278 277 277 277 276 276 277 277 276
291 291 291 291 291 291 291 291 290 289 288 288 288 288 288 288 288 288 287 285 284 282 282 282 281 281 281 281 281 282 282 281 281 279 278 278 277 277 277 276 277 277 276
291 291 291 291 291 291 291 290 289 289 288 287 287 288 288 288 287 286 286 285 284 284 283 283 282 282 282 282 283 283 282 281 281 279 279 278 277 277 276 275 277 277 277
287 287 287 288 289 289 289 289 289 288 289 288 288 288 288 287 287 287 286 286 285 284 284 283 283 282 283 283 283 282 282 282 281 280 279 278 277 277 276 276 276 277 276
282 282 283 283 284 285 286 288 289 288 289 288 287 287 287 287 287 287 286 285 286 285 285 285 284 284 284 284 283 282 283 282 281 280 279 279 278 277 276 275 276 276 276
280 281 281 282 283 284 284 284 286 287 287 287 287 287 287 287 287 286 286 286 286 286 285 285 285 285 285 284 284 284 283 282 282 281 280 279 278 277 275 275 275 276 276
280 279 279 279 281 283 284 285 286 287 286 286 286 286 285 285 285 284 284 285 285 286 285 285 285 285 285 285 284 284 284 283 282 281 280 279 278 277 275 275 275 275 275
275 275 276 276 277 277 278 282 285 286 285 284 283 282 281 280 279 279 279 279 279 280 281 282 284 284 284 284 284 284 284 284 283 282 280 279 278 277 275 275 275 274 274
272 272 271 271 272 274 274 276 276 277 278 278 277 276 276 276 276 276 276 275 275 276 277 278 279 280 282 284 284 284 283 283 283 282 281 279 278 276 274 274 274 274 274

GFSGL_925_thetae_036.txt.gz
Theta_e
313 310 308 306 304 302 301 301 300 299 299 300 299 298 297 296 295 295 295 294 294 293 292 293 292 291 291 291 289 287 286 285 283 283 283 282 281 280 280 281 281 282 283
313 309 307 305 305 301 301 300 300 301 301 299 298 297 297 296 295 295 295 294 293 293 292 292 291 290 290 288 287 286 285 283 282 282 282 281 280 280 281 281 282 282 282
310 307 306 305 302 301 301 301 301 301 300 298 297 297 296 296 295 295 294 293 293 292 292 291 289 289 289 287 286 284 283 283 282 282 281 281 280 280 280 281 281 281 281
309 307 306 304 301 301 301 301 301 298 298 297 297 297 296 295 295 295 294 293 292 291 290 289 288 287 286 285 285 283 283 282 282 281 280 280 280 280 280 281 281 280 280
306 304 303 302 301 302 302 298 298 297 296 296 296 296 296 295 294 294 294 293 292 290 289 288 286 286 285 285 284 283 283 282 281 280 279 280 280 280 280 280 280 279 279
303 303 303 302 302 300 298 299 296 296 295 295 295 294 294 295 294 294 294 293 291 290 288 286 286 286 285 285 284 283 282 280 279 279 279 279 279 279 278 278 279 279 280
303 303 302 302 300 300 298 296 295 294 294 293 293 293 293 294 294 294 293 292 290 289 287 286 286 285 285 284 283 282 281 281 278 277 278 279 278 278 279 279 279 280 280
303 302 302 300 297 296 295 294 294 293 294 293 293 293 293 293 293 293 293 291 290 288 286 286 285 285 285 284 283 282 281 281 277 277 278 278 278 279 280 280 281 281 281
296 295 295 295 294 295 295 294 294 293 293 292 292 292 293 293 293 292 291 290 289 288 287 286 285 284 284 283 282 281 281 279 277 278 278 278 278 279 279 280 280 280 280
294 294 294 295 296 297 295 294 292 293 292 292 292 292 292 292 292 291 291 289 288 287 286 285 284 284 283 282 281 281 280 278 278 278 278 278 278 278 278 278 279 279 280
296 297 298 298 297 294 293 292 292 292 292 292 292 291 291 291 291 291 290 290 288 287 286 285 284 283 282 282 282 281 279 279 279 279 278 279 278 277 277 278 278 278 279
298 298 296 293 293 292 292 292 292 292 291 291 291 291 290 290 290 290 290 289 288 286 286 286 284 282 282 282 281 280 280 279 279 279 278 279 278 277 277 277 277 278 279
293 293 293 292 291 291 292 292 291 291 291 291 290 290 290 290 289 290 290 289 288 287 287 286 284 282 281 281 281 280 281 280 280 280 279 279 278 277 277 277 277 278 279
293 292 291 291 291 291 291 291 290 290 291 290 289 289 289 289 289 289 289 289 289 287 287 285 284 282 282 282 281 281 281 281 281 280 279 279 278 277 277 276 277 277 278
291 291 291 291 290 290 290 290 290 290 290 290 289 289 289 289 289 289 288 289 289 288 287 286 284 282 281 282 282 281 282 281 281 280 279 278 278 277 277 276 277 276 276
291 291 290 290 289 289 289 290 290 290 290 290 289 288 287 287 287 288 288 289 288 288 286 284 283 282 281 282 281 280 281 282 281 280 279 278 278 277 277 276 276 277 276
291 291 290 290 290 290 290 290 289 291 290 290 290 289 288 288 287 288 288 288 288 287 284 283 283 283 282 282 281 280 281 282 281 280 279 278 277 276 277 276 276 277 276
291 291 290 290 289 289 288 288 288 288 288 289 290 290 289 288 288 287 288 288 287 286 284 283 283 283 282 281 281 280 280 282 281 280 279 278 277 277 277 276 276 276 276
287 287 287 287 287 287 288 288 289 289 288 288 288 288 289 288 288 288 287 287 286 284 284 282 282 282 282 282 281 281 281 281 282 280 280 279 278 277 277 276 275 276 276
283 282 281 281 282 282 283 284 285 287 287 288 287 287 289 288 287 286 286 285 286 285 283 283 283 283 283 282 282 282 282 282 282 281 280 279 278 278 277 276 275 276 276
278 279 280 280 281 281 281 282 283 284 285 286 288 287 288 288 286 286 287 286 286 285 284 283 284 283 283 283 283 282 282 282 282 282 281 280 279 278 277 276 275 276 276
278 278 278 279 278 279 279 280 281 282 283 284 285 286 287 287 286 286 286 286 286 286 285 284 285 284 284 284 283 283 283 283 282 282 282 280 279 278 277 276 275 275 276
275 275 275 275 275 275 276 277 276 278 282 284 286 286 286 286 285 285 285 284 284 284 285 284 284 285 285 285 284 284 284 284 283 282 282 281 279 279 277 276 275 275 275
272 272 271 271 271 272 272 273 274 274 274 276 279 280 280 280 279 279 279 279 280 281 281 281 282 284 285 285 285 285 284 284 284 283 283 282 280 279 278 276 275 275 275
270 269 268 268 268 269 269 270 270 270 271 271 272 273 273 273 274 274 274 275 276 276 277 278 278 279 281 281 283 284 284 283 283 283 283 282 281 279 278 277 275 275 274
268 267 267 267 266 266 267 268 267 268 268 269 269 269 269 270 270 270 270 271 272 273 275 276 277 278 279 280 280 281 283 283 283 283 283 282 281 279 278 276 275 274 274

GFSGL_925_thetae_039.txt.gz
Theta_e
326 324 320 316 313 310 307 305 302 302 303 300 299 300 299 298 296 295 295 295 294 294 293 293 292 292 291 290 290 289 287 286 284 284 283 282 282 281 280 280 280 281 281
317 314 312 309 308 308 306 304 303 301 299 299 301 299 298 296 296 295 295 294 294 294 293 292 292 291 290 290 288 287 286 284 283 282 282 282 281 280 280 280 280 281 281
312 309 308 308 307 304 301 301 300 299 301 300 300 298 297 297 295 295 294 294 294 293 293 292 291 290 289 289 287 286 284 283 282 281 281 281 280 279 279 280 280 280 280
309 307 306 303 301 301 301 300 300 301 300 298 298 297 297 296 295 295 294 294 294 293 292 291 290 289 288 287 285 285 283 283 282 281 281 280 279 279 279 280 279 279 279
308 305 304 302 301 301 301 301 299 298 297 296 296 296 296 295 294 294 294 294 293 292 291 290 289 287 286 285 285 284 283 283 282 280 279 278 278 278 279 278 278 278 279
307 304 302 301 301 301 299 297 297 295 295 296 297 296 295 294 293 294 294 294 293 292 291 289 287 286 286 285 285 284 283 282 281 279 278 278 277 278 278 278 278 278 279
304 303 303 301 300 298 297 296 296 297 298 297 295 293 293 292 293 293 293 293 292 291 290 289 287 286 285 285 284 283 282 281 280 279 276 277 278 278 278 278 279 279 280
303 303 301 299 297 296 295 297 297 297 296 293 293 292 292 292 292 293 293 292 291 290 289 288 286 286 285 284 283 282 282 281 281 278 277 278 278 278 279 279 279 279 279
297 296 295 295 295 296 297 298 297 295 293 292 292 291 292 292 291 292 292 292 291 290 288 288 286 286 285 284 283 282 281 281 280 278 278 278 278 278 278 278 278 279 278
294 295 296 296 296 297 297 294 294 292 293 292 292 292 292 291 291 291 291 291 289 289 289 288 286 285 284 284 283 282 281 281 279 278 279 278 279 278 278 277 277 277 278
296 297 298 298 299 297 294 292 292 292 292 292 292 291 291 291 290 290 290 290 290 289 289 288 287 286 284 283 282 281 281 280 279 279 279 279 279 279 278 277 277 277 277
298 298 298 297 294 292 292 291 291 291 291 291 290 290 290 290 290 289 289 289 289 288 288 288 287 286 284 283 282 282 281 280 280 280 280 279 279 279 278 277 277 277 277
294 293 292 292 291 291 291 291 291 291 290 290 290 290 290 290 289 289 289 289 289 288 288 288 287 286 284 283 282 282 281 281 280 280 280 280 279 278 277 277 276 277 276
292 291 291 291 290 290 290 290 290 290 289 289 290 290 290 290 289 288 288 288 288 289 288 288 287 285 284 283 282 281 281 281 281 281 281 280 279 278 277 277 276 277 276
291 291 290 290 290 290 289 289 289 289 289 289 289 290 290 289 289 288 287 287 288 288 288 287 285 284 283 282 282 281 282 281 281 281 281 280 279 278 277 276 276 276 276
290 290 290 290 290 290 289 289 290 290 290 290 290 290 290 290 289 288 287 287 287 288 287 285 283 283 283 283 282 282 282 281 280 281 281 280 279 278 277 276 276 276 276
289 288 287 287 287 287 287 287 286 287 287 288 288 289 289 289 290 289 288 287 287 287 286 285 283 283 283 283 282 282 282 281 280 281 282 280 279 278 276 276 276 275 276
284 283 283 282 283 283 282 283 284 285 285 286 287 287 287 287 288 288 289 287 287 286 286 285 283 283 283 283 282 282 282 281 280 281 281 280 279 278 276 277 276 275 276
280 279 279 279 280 280 280 280 280 281 281 282 283 284 284 286 287 287 287 287 286 286 286 285 284 283 282 283 283 282 282 281 280 280 281 280 279 278 277 277 276 275 276
277 278 278 278 279 278 278 278 278 279 280 281 281 282 283 284 285 285 287 287 286 285 285 284 284 284 282 282 283 282 282 281 281 280 280 280 280 278 278 277 276 275 275
276 276 275 276 276 275 276 276 276 276 275 276 278 281 282 282 284 285 284 285 286 285 285 285 285 284 283 282 283 283 282 282 281 281 281 281 280 279 278 277 276 275 275
273 273 272 272 272 272 271 273 273 273 273 273 273 273 275 281 284 284 284 285 284 284 283 284 284 284 283 282 283 283 283 283 282 282 282 282 281 280 279 277 276 275 275
271 271 270 270 269 269 269 269 270 269 270 271 271 272 272 273 273 273 274 276 277 280 280 280 281 282 282 283 284 283 283 283 284 283 283 282 281 280 279 277 276 275 275
270 268 268 268 267 267 267 267 267 267 267 268 269 269 269 270 270 270 270 271 272 274 275 276 277 278 280 280 281 282 283 284 283 283 283 282 282 281 279 277 277 275 275
268 267 266 266 265 265 265 265 265 265 265 265 266 267 267 268 268 268 268 268 270 271 273 274 275 275 277 279 279 281 281 282 283 283 283 282 281 281 280 278 277 275 275
266 265 265 265 264 264 264 263 263 263 263 263 264 264 265 266 266 266 266 266 267 269 270 272 273 274 275 277 278 279 280 280 281 283 283 283 281 280 280 278 277 275 275

GFSGL_925_thetae_045.txt.gz
Theta_e
325 324 323 322 322 321 321 319 317 312 307 305 300 299 301 301 298 297 297 297 296 296 295 295 295 294 294 293 293 292 292 291 291 290 288 286 285 284 284 283 281 281 281
324 324 324 323 322 321 318 316 314 309 306 304 300 299 302 299 296 297 298 297 296 295 295 295 294 294 293 293 293 292 291 290 289 289 287 285 284 284 283 282 280 280 281
323 323 320 319 317 315 312 311 312 309 305 301 299 300 298 297 298 298 297 297 295 294 294 294 294 294 293 293 292 291 290 288 287 286 286 285 284 283 282 281 280 281 280
321 316 313 311 310 309 309 308 307 303 302 299 300 299 298 299 299 297 295 294 294 294 294 293 293 293 293 293 292 290 289 287 286 285 285 285 284 283 281 280 281 281 280
319 314 311 310 306 304 302 300 299 299 298 298 298 298 299 300 297 296 295 295 296 295 294 293 293 293 293 292 290 289 288 287 286 286 285 285 284 283 281 280 280 280 280
310 308 306 303 301 301 300 299 298 298 296 296 298 300 299 297 296 296 295 295 293 292 293 293 293 293 292 291 290 288 286 286 286 285 285 284 283 283 280 280 280 280 281
305 303 301 300 299 298 297 297 297 297 299 299 299 297 297 295 294 293 292 291 292 292 292 292 292 292 291 289 287 286 286 285 285 285 284 284 283 281 280 280 280 280 280
302 301 299 298 296 296 297 298 298 298 298 297 296 295 295 293 292 291 291 291 291 290 291 291 291 290 290 289 287 287 286 286 284 283 283 282 282 279 279 280 280 280 280
298 297 297 297 297 297 297 298 298 298 297 296 295 294 292 292 291 291 291 291 290 290 291 291 290 289 289 289 287 287 285 285 283 283 282 281 280 279 279 280 280 280 280
297 297 297 297 297 298 298 298 297 294 293 292 292 291 292 291 291 291 291 290 290 290 290 290 290 289 288 287 288 286 285 285 284 282 281 281 279 280 279 279 280 280 280
298 298 298 298 298 298 295 293 292 292 291 291 291 290 290 290 290 289 289 289 289 290 290 289 289 289 289 288 286 286 285 285 283 282 282 281 280 280 280 280 280 279 279
297 296 294 293 292 291 291 290 290 290 290 289 289 289 289 289 290 290 289 289 289 289 289 289 288 288 288 288 288 287 286 285 283 282 282 281 281 281 281 280 280 279 279
291 290 290 290 289 289 289 289 289 289 289 289 289 289 289 289 288 288 289 289 289 288 288 288 288 288 288 288 288 287 286 283 283 283 283 282 281 281 281 280 279 279 278
290 289 289 289 289 288 288 288 287 287 287 287 287 286 286 286 286 286 287 287 287 287 287 288 287 286 287 286 286 285 285 284 283 283 283 282 282 281 280 280 280 280 279
288 287 286 285 284 284 283 283 282 283 282 283 282 282 282 282 282 281 282 283 284 286 286 286 286 286 285 285 284 284 285 284 283 283 283 282 281 281 281 280 280 279 278
285 283 281 281 281 281 281 280 280 279 279 279 279 279 279 279 278 278 278 280 281 283 284 286 286 287 286 286 285 285 284 283 283 282 282 282 282 281 281 281 279 279 279
280 280 280 279 279 279 279 279 279 279 278 277 276 276 276 276 276 277 277 279 281 282 283 284 286 287 286 285 284 283 284 284 283 282 282 282 282 281 281 281 280 279 279
279 277 278 278 278 277 277 277 277 277 277 276 276 275 274 274 274 275 276 276 279 282 283 285 286 287 286 285 284 284 283 283 282 281 282 282 281 281 281 281 280 280 279
277 276 276 276 276 275 275 275 275 274 274 274 274 274 272 271 273 273 274 274 275 275 275 281 285 286 286 285 285 284 283 283 282 281 281 281 280 280 281 281 280 278 278
276 274 273 274 274 273 273 273 273 273 272 272 272 271 270 270 271 272 272 272 272 272 273 274 275 283 285 285 284 284 283 282 282 281 281 280 280 280 281 280 280 280 278
274 273 272 272 272 271 271 271 270 270 270 270 269 269 267 268 270 270 270 270 270 270 270 271 272 273 276 283 283 283 283 282 281 280 280 280 279 279 280 281 280 279 279
271 270 270 270 270 269 268 268 268 268 267 267 267 267 266 268 268 268 269 268 268 268 268 268 269 270 272 272 276 281 282 281 281 280 280 280 279 279 279 279 279 279 278
269 268 268 268 267 266 266 266 266 266 265 265 265 265 265 266 266 266 267 266 266 267 266 266 267 268 269 272 271 274 277 280 281 281 280 280 279 279 279 279 279 278 278
267 267 267 266 265 265 264 264 264 264 263 263 264 264 264 264 264 264 265 264 264 264 265 265 266 266 268 269 271 270 273 274 277 279 280 280 280 279 279 279 279 278 278
267 266 265 265 264 263 263 263 262 262 262 262 262 262 262 262 263 263 263 263 262 262 263 264 265 265 267 268 270 271 272 275 276 278 279 280 280 280 279 279 279 278 277
266 265 265 264 263 262 262 261 261 261 260 260 261 261 261 261 261 261 261 261 261 261 262 263 264 265 267 268 270 271 273 275 276 277 278 279 280 279 278 278 278 278 276

GFSGL_925_thetae_048.txt.gz
Theta_e
330 329 329 327 326 325 324 320 319 318 314 311 309 306 303 300 301 301 297 297 297 297 298 298 298 297 296 296 296 296 295 294 294 293 292 291 291 289 288 287 286 285 284
330 329 329 328 325 324 322 320 319 315 311 308 305 302 302 300 302 298 297 298 298 297 298 298 298 297 296 296 296 295 294 294 293 293 292 291 290 289 288 286 286 284 283
329 327 326 322 319 317 315 314 314 312 310 304 302 302 299 300 299 299 296 297 298 299 298 297 297 297 296 296 296 295 295 294 293 292 291 290 289 289 287 286 285 284 284
323 322 319 317 314 313 312 311 309 306 304 302 300 299 299 300 298 297 298 298 298 297 296 296 296 297 296 296 296 295 294 293 292 291 290 290 289 288 287 286 285 284 284
320 316 313 311 310 309 309 308 305 302 300 299 298 299 299 298 298 299 298 297 297 297 297 297 296 296 295 295 295 295 294 293 292 291 290 289 289 288 287 286 284 284 284
316 313 309 308 307 305 302 301 300 299 298 299 298 298 299 300 300 298 297 296 296 297 295 295 295 294 294 293 293 293 293 293 292 291 290 289 289 288 286 286 284 284 285
311 308 305 303 301 300 300 300 299 299 299 299 299 300 299 298 297 296 295 294 294 294 294 294 294 293 293 293 293 292 290 289 288 289 289 289 288 287 286 285 283 284 284
307 305 302 302 301 300 300 300 299 299 299 299 299 298 297 297 296 294 292 292 293 293 293 293 293 292 293 293 292 292 291 290 289 288 287 287 286 286 285 283 283 283 283
304 303 302 301 301 301 300 299 299 299 299 298 298 297 296 296 294 292 291 292 293 293 293 292 292 292 292 292 291 291 290 290 290 288 287 286 285 284 283 282 282 283 284
302 302 301 301 301 300 299 298 297 296 296 295 294 294 294 293 293 292 290 291 291 292 292 292 292 291 290 290 289 289 290 290 289 288 285 284 283 283 282 281 282 282 283
301 301 300 299 297 296 295 295 295 294 294 294 293 292 292 292 291 290 289 289 290 291 291 291 291 291 290 290 289 288 289 289 289 288 288 286 285 284 283 282 282 282 283
298 296 294 294 294 294 293 293 292 292 292 292 292 292 292 292 291 289 288 287 287 288 289 290 291 291 290 289 289 288 288 287 287 287 286 286 286 284 284 283 283 283 282
295 294 293 292 292 292 292 292 292 292 291 291 290 289 288 287 286 285 285 284 283 283 285 287 287 287 287 288 288 287 287 287 287 286 286 286 286 285 284 284 283 283 282
293 292 292 291 291 290 290 288 287 287 286 285 285 285 284 284 283 282 280 280 280 281 283 284 284 285 286 286 288 288 287 287 287 287 286 286 286 285 284 283 283 283 282
291 290 289 287 286 285 284 283 283 283 281 282 282 281 281 281 280 278 278 279 279 279 279 281 283 284 286 286 287 287 287 287 286 286 286 286 286 285 284 283 283 283 282
287 285 284 284 284 284 283 283 281 279 278 278 277 277 278 278 277 276 277 277 278 278 282 283 284 284 285 285 287 288 287 286 287 286 286 286 286 285 284 283 283 282 282
284 283 283 283 283 282 282 282 282 281 279 278 277 276 276 274 274 275 276 276 278 278 280 281 282 284 286 286 287 287 287 286 285 285 285 286 285 285 284 284 283 282 282
280 279 282 281 281 280 280 280 280 279 279 279 277 275 274 273 273 274 275 276 277 277 278 278 279 280 281 281 286 288 287 286 284 284 285 285 284 284 284 283 283 283 282
280 279 280 279 278 277 278 278 278 278 278 277 276 276 275 272 273 274 274 275 275 275 275 275 276 276 278 278 282 287 286 285 285 284 284 284 284 284 284 283 283 283 282
278 275 276 277 277 277 276 276 276 276 276 275 275 274 273 271 274 274 274 274 273 273 273 273 273 274 275 276 276 281 286 285 285 284 284 283 284 284 284 283 283 283 281
277 276 274 276 276 275 274 275 274 274 274 273 273 272 268 269 272 272 272 272 272 271 271 271 272 272 273 273 273 275 278 285 285 284 284 284 283 283 283 283 283 282 282
274 274 274 274 274 273 272 272 272 272 272 272 272 271 269 270 271 270 270 270 270 269 269 270 270 271 271 271 270 272 274 278 283 283 283 283 283 283 282 283 283 282 281
272 273 272 272 271 270 271 271 271 270 270 270 270 269 269 269 269 269 269 268 269 268 268 268 268 269 269 269 268 269 271 274 274 276 280 282 283 282 282 282 282 282 282
271 271 271 270 270 269 270 269 269 268 268 268 268 268 268 268 268 267 267 267 267 267 266 266 266 267 268 268 267 267 269 271 270 272 276 279 282 282 282 282 282 282 282
270 270 270 270 269 269 268 268 268 267 267 267 267 267 267 266 266 266 266 266 265 265 265 264 265 266 266 266 266 267 268 269 271 272 273 277 281 282 282 282 282 282 282
269 269 269 268 268 268 267 267 266 266 266 265 265 265 265 265 265 265 265 264 264 263 263 265 265 265 264 265 267 267 267 270 271 272 275 276 278 282 282 282 282 282 281

GFSGL_925_thetae_051.txt.gz
Theta_e
333 333 332 330 329 328 327 327 325 321 319 316 315 312 310 308 305 302 301 299 297 299 298 299 299 300 300 299 298 298 298 297 297 296 295 295 294 293 293 292 290 290 288
333 333 332 329 328 326 326 325 323 321 319 317 314 310 308 305 302 301 299 297 298 298 298 298 299 300 300 299 298 298 298 297 296 296 295 294 293 292 292 291 290 289 288
332 332 330 327 325 323 323 322 320 319 317 313 309 307 304 302 301 300 298 298 299 298 298 298 300 299 299 299 298 298 298 297 296 296 296 294 293 292 291 291 290 289 288
331 330 324 321 318 316 315 314 312 311 309 306 303 302 302 301 299 298 299 300 298 298 298 299 298 298 298 298 298 298 297 297 296 295 295 294 293 292 291 291 290 289 288
322 319 316 316 314 312 311 309 307 304 303 302 301 301 299 299 300 300 299 298 298 297 298 297 298 298 298 297 297 297 297 296 296 295 294 294 293 292 291 290 290 288 288
321 318 315 314 314 311 309 307 306 304 303 301 300 300 300 299 298 299 299 298 297 296 297 298 298 296 296 295 295 295 294 295 296 295 294 294 293 291 291 290 289 288 288
315 313 311 309 307 305 305 304 304 303 303 301 300 300 301 300 299 298 297 296 297 297 296 296 296 295 294 294 294 294 294 294 293 292 292 293 292 291 290 289 288 287 287
311 309 307 306 305 305 305 303 303 302 302 302 300 300 299 298 297 296 294 293 294 294 294 295 295 295 294 294 293 294 294 294 293 292 290 290 290 290 290 288 287 286 285
308 307 306 305 305 304 303 302 302 301 300 300 300 299 298 298 295 294 293 293 293 293 293 294 294 293 293 293 293 293 293 293 292 291 291 290 290 289 287 286 286 285 286
307 306 305 305 304 302 301 299 299 299 299 298 297 296 295 294 294 292 291 291 291 292 292 292 292 292 292 292 292 292 292 291 291 290 291 290 289 288 287 285 285 285 284
305 304 303 302 301 299 298 298 298 297 296 296 294 294 294 294 293 291 289 289 288 287 288 289 289 290 290 290 291 290 291 291 290 290 290 290 289 287 286 285 284 283 284
302 301 299 298 297 298 297 295 294 294 294 294 294 293 293 292 290 287 285 284 283 283 284 284 285 285 284 285 285 287 287 289 288 289 289 289 289 289 287 286 285 284 284
300 299 297 295 294 294 294 294 294 293 293 291 290 289 289 288 287 285 283 281 281 281 281 281 281 281 283 285 286 287 287 287 288 288 288 289 288 288 288 286 285 285 285
297 296 295 294 293 292 292 289 289 288 288 287 287 286 286 285 284 282 280 280 280 280 280 280 280 282 283 284 285 286 286 287 287 288 288 289 288 288 287 286 286 285 284
294 293 292 290 290 288 287 286 285 283 281 283 283 283 282 282 281 277 277 278 278 278 278 280 283 285 285 286 286 286 286 287 287 288 288 288 288 288 287 286 285 285 284
291 290 289 288 287 287 286 285 282 282 280 278 278 277 278 278 276 275 276 277 276 278 279 281 281 281 282 282 284 284 284 287 287 288 288 287 288 287 287 286 285 285 284
288 286 285 286 286 285 284 284 285 281 281 280 278 277 276 275 275 275 276 276 277 278 279 279 279 279 279 279 280 281 281 281 288 288 287 287 287 287 287 286 285 285 284
284 284 285 285 284 284 283 283 283 282 282 282 279 278 276 275 274 274 275 276 278 277 278 277 277 277 277 277 277 278 279 278 287 287 286 286 286 287 287 286 286 285 284
283 283 283 283 281 280 280 281 280 280 280 280 279 279 278 275 274 276 276 277 276 276 276 275 275 275 275 275 275 276 275 277 285 286 286 285 285 286 286 286 286 285 285
278 278 280 280 280 279 279 279 279 279 279 278 278 278 276 273 274 276 276 275 275 275 274 273 273 273 273 274 274 274 274 274 277 286 285 285 285 285 285 286 285 285 284
280 278 277 278 278 278 277 278 277 277 277 277 276 276 272 271 273 274 274 274 273 273 272 272 272 272 272 272 273 272 273 272 275 277 282 286 285 285 285 285 284 284 284
277 277 277 277 276 276 275 275 276 276 275 275 275 274 272 272 273 273 272 272 272 271 271 271 270 270 270 270 271 271 271 271 272 274 274 277 283 285 285 284 284 284 283
276 276 275 275 275 273 274 274 274 274 274 273 273 273 273 272 272 271 271 271 270 270 269 269 269 269 268 268 269 269 270 270 270 271 271 273 277 283 284 284 284 284 283
274 274 274 274 274 272 274 273 273 272 272 272 272 272 271 271 271 270 270 270 269 268 268 267 267 267 267 268 268 268 268 269 269 269 269 271 274 278 283 283 283 284 283
273 273 273 273 273 273 272 272 272 272 271 271 271 270 270 270 269 269 269 268 267 267 267 266 265 266 267 267 266 266 268 268 268 267 268 270 272 276 280 283 283 283 283
272 272 272 272 272 272 271 271 271 270 270 269 269 268 268 268 267 267 267 266 266 265 264 265 265 265 265 265 266 267 267 266 266 267 268 269 272 276 280 283 283 283 283

GFSGL_925_thetae_054.txt.gz
Theta_e
331 329 329 325 324 325 330 330 329 328 325 323 320 317 314 313 311 309 307 304 303 301 300 300 301 301 300 300 301 300 299 299 298 298 297 296 295 295 294 293 293 292 291
333 331 331 331 331 330 329 328 327 326 323 320 317 315 313 310 307 307 304 302 301 298 299 300 300 299 299 300 300 300 299 298 298 297 297 296 295 295 294 293 292 292 291
334 331 331 331 329 328 327 325 324 323 321 319 316 314 311 308 306 304 303 301 299 299 301 300 299 299 299 300 299 299 299 298 298 298 297 296 296 295 294 293 292 291 291
332 329 328 326 325 322 320 319 318 316 315 313 310 309 307 304 303 302 301 300 299 300 300 299 298 299 299 299 298 298 298 298 298 298 297 296 296 295 294 293 292 291 290
324 321 319 319 318 316 314 312 311 309 307 306 305 303 303 303 302 301 299 299 299 299 298 298 298 298 298 298 298 298 297 297 296 296 296 296 295 294 293 293 291 291 290
320 318 316 315 313 311 308 306 304 303 303 302 301 301 299 299 299 299 299 299 298 298 297 297 297 298 298 298 298 297 296 295 295 295 294 294 295 294 294 292 291 290 288
318 317 316 312 310 308 308 305 304 303 303 302 301 300 300 300 299 299 298 297 297 297 297 297 296 296 295 295 295 295 295 294 294 294 293 293 293 293 293 292 291 290 289
314 312 310 308 307 306 306 304 303 302 301 301 301 300 300 299 298 296 295 293 293 294 294 294 294 294 294 294 293 293 293 293 293 294 294 293 293 292 291 290 290 290 288
310 309 308 307 306 305 304 303 302 301 301 300 300 299 299 298 296 294 293 293 292 292 292 292 292 292 291 291 290 290 291 291 292 292 292 292 292 291 290 290 288 287 286
309 308 307 306 305 303 302 301 301 300 300 300 298 296 295 294 292 292 291 291 290 289 288 287 286 287 287 287 286 285 286 288 290 291 291 291 291 290 290 289 289 286 286
307 306 305 303 302 301 300 299 300 298 297 296 295 295 294 293 290 289 288 286 284 283 283 283 283 282 282 280 280 281 282 283 285 286 287 288 290 290 290 288 288 287 285
305 303 302 301 300 299 299 297 295 295 295 295 294 293 292 289 287 286 285 284 283 281 281 281 281 280 280 282 283 283 283 284 285 285 286 287 288 289 290 288 287 286 285
302 300 300 298 298 297 296 295 295 294 292 290 289 289 288 287 286 285 284 281 279 280 280 280 279 280 282 283 284 285 285 284 284 284 285 285 286 288 289 288 287 287 285
300 298 296 295 294 294 292 291 290 289 288 287 287 287 286 285 284 283 279 277 277 278 278 277 279 281 282 281 282 282 283 284 284 286 286 287 287 287 289 288 288 287 285
297 296 294 293 291 289 287 287 287 283 284 285 284 283 282 282 280 278 277 277 277 277 277 278 280 281 280 279 279 279 279 280 281 281 281 287 287 288 288 288 287 286 285
294 292 290 289 288 288 286 283 283 282 281 280 279 278 278 278 277 276 276 276 277 277 278 279 279 279 278 278 277 277 277 278 278 279 279 282 287 288 288 287 287 286 285
288 288 288 287 286 286 285 286 282 281 280 281 280 279 278 277 276 276 276 276 277 278 278 278 278 277 277 276 276 276 276 276 276 276 277 281 287 287 287 287 286 286 285
286 286 286 285 285 284 284 283 283 283 283 282 280 279 278 276 276 275 276 277 277 277 277 276 276 275 275 275 274 274 274 275 274 274 276 283 287 287 287 287 286 285 285
284 284 284 283 282 281 281 281 281 281 281 281 280 280 277 276 276 275 277 276 276 275 275 275 274 273 273 273 272 273 273 273 273 273 276 279 287 286 286 286 286 286 285
281 281 281 281 280 280 280 280 280 280 279 279 279 278 277 276 273 274 275 275 275 274 273 273 273 272 272 271 271 271 271 271 272 272 273 274 275 285 285 286 286 286 285
279 278 278 279 279 278 278 278 278 278 278 278 277 276 275 273 272 274 274 273 273 272 271 272 271 270 270 270 270 269 270 270 270 271 271 271 272 275 283 285 285 285 284
278 278 278 278 277 277 276 276 276 276 276 276 276 275 274 273 274 273 272 272 271 271 271 270 269 269 269 269 268 268 269 268 269 269 270 270 270 272 276 280 285 285 284
276 276 276 276 276 275 275 276 275 275 275 274 273 273 273 273 272 272 271 271 270 270 269 268 268 268 267 266 266 268 268 268 267 268 269 268 269 270 273 276 283 284 284
275 275 275 275 275 273 274 274 273 274 273 273 273 272 272 271 271 270 270 269 269 268 267 267 267 266 265 266 266 266 266 266 267 268 268 267 267 270 271 273 277 284 284
274 274 274 274 274 274 273 273 273 272 272 271 271 271 270 269 269 269 268 268 267 266 266 265 265 265 265 265 265 266 266 266 266 266 266 266 267 268 271 273 277 283 284
274 273 273 273 273 273 272 272 271 271 270 270 269 268 268 268 267 267 266 266 266 265 264 264 263 264 264 265 265 266 266 267 267 267 267 267 267 268 270 273 276 281 283

GFSGL_925_thetae_057.txt.gz
Theta_e
327 327 327 328 329 329 329 329 327 326 328 324 324 324 321 319 317 315 313 310 308 307 304 303 303 302 302 301 300 301 301 300 298 298 298 298 298 296 296 294 294 294 293
328 328 328 327 328 327 324 327 324 329 327 325 321 320 319 317 315 313 310 307 306 305 303 301 301 301 301 300 299 300 301 300 299 297 298 298 297 297 297 296 294 294 293
330 329 328 328 325 326 327 328 327 325 323 321 320 318 316 314 311 309 307 305 304 303 302 300 301 300 299 299 299 299 300 299 299 298 297 297 297 297 297 296 295 294 293
330 330 329 328 327 326 324 325 324 322 321 319 317 314 312 309 307 306 304 303 302 300 299 300 300 299 299 299 299 299 298 298 298 298 297 297 296 296 296 296 295 294 294
329 328 323 321 322 321 321 319 316 315 313 311 310 308 306 305 303 303 302 300 298 299 300 299 299 299 298 298 298 297 298 298 298 297 295 294 293 294 295 295 294 293 292
321 320 320 318 316 314 313 311 310 308 306 305 304 303 302 302 301 300 299 299 299 299 299 298 297 297 297 296 296 296 297 297 296 294 293 293 293 293 294 294 293 291 289
318 317 315 313 311 310 307 305 304 303 302 301 301 300 300 300 300 299 299 299 298 297 296 295 295 294 293 292 292 292 292 292 292 292 291 292 292 292 293 292 292 291 290
315 312 311 310 308 307 305 304 302 302 301 300 300 300 300 300 299 297 296 294 293 293 292 292 292 291 290 289 288 288 287 287 287 288 290 291 291 291 292 291 291 291 291
310 309 308 307 305 304 303 303 302 301 301 301 300 299 299 298 297 295 293 292 292 291 291 290 288 285 284 283 281 280 280 280 281 281 283 284 283 286 289 290 289 289 287
309 307 306 305 304 303 303 302 302 301 301 299 299 298 297 297 294 291 291 291 290 288 285 283 281 280 280 279 281 282 282 283 284 284 283 283 284 285 285 286 289 288 287
308 306 306 305 304 303 302 302 300 300 298 295 294 294 293 292 289 289 287 286 284 282 280 280 280 279 278 280 282 283 283 283 284 284 284 284 284 284 285 286 287 288 288
306 305 304 303 302 302 300 299 299 297 296 294 293 290 289 287 286 286 285 284 281 279 279 279 278 278 280 282 281 281 281 280 282 283 283 283 283 284 285 285 287 288 288
303 302 302 302 301 299 298 296 295 295 294 293 290 287 285 284 284 284 284 281 278 278 277 277 278 280 281 280 279 279 278 278 279 280 281 281 281 282 285 286 286 287 288
302 301 300 299 298 295 294 293 291 290 289 288 287 286 284 283 283 282 280 277 277 277 277 278 279 280 279 278 277 277 277 276 277 277 277 277 278 278 283 286 286 287 286
299 297 295 293 290 289 289 289 288 286 287 286 285 285 284 282 280 278 277 277 277 277 278 278 278 278 277 276 276 276 275 275 275 275 275 275 277 277 278 285 287 287 286
293 292 291 288 287 287 286 283 282 282 281 281 280 279 279 278 277 277 276 277 277 278 278 278 277 276 275 275 275 274 273 274 273 274 274 274 275 276 277 286 287 287 286
289 288 287 287 286 284 283 282 281 281 281 281 281 280 279 278 277 277 276 277 277 277 276 276 275 274 274 274 273 273 272 272 272 272 272 273 274 274 279 286 286 286 285
287 286 285 284 284 284 283 284 283 282 281 281 280 279 278 276 276 276 277 277 276 275 275 275 274 273 273 272 272 271 271 271 271 270 271 271 273 273 275 286 286 286 285
284 284 283 283 283 283 282 282 281 281 281 280 280 279 277 276 276 276 276 275 275 274 274 273 272 272 271 270 270 270 269 269 269 269 270 270 271 271 273 280 286 286 285
283 282 282 280 280 280 280 280 280 279 279 279 278 278 277 276 275 274 274 274 273 273 272 271 271 270 269 269 269 268 268 267 268 268 269 269 270 270 271 273 278 286 285
280 280 279 279 279 279 278 278 278 278 277 277 276 276 275 274 273 273 273 272 272 271 270 270 269 269 268 268 268 267 266 267 267 267 267 267 268 269 269 270 274 278 285
278 278 278 278 278 277 277 276 276 276 276 276 275 274 274 273 273 273 272 271 271 270 270 269 268 267 267 267 266 266 266 267 266 266 266 266 268 268 268 269 271 274 282
277 276 276 276 276 275 275 275 275 275 275 274 273 273 273 272 272 271 270 270 269 269 268 267 267 266 266 265 265 265 265 265 265 266 266 266 266 266 267 268 270 272 276
275 275 275 275 275 274 274 274 273 273 273 273 272 271 271 270 270 269 269 268 267 267 266 266 266 265 264 264 264 264 265 265 266 266 266 266 266 266 266 267 269 271 275
274 274 273 273 273 273 273 273 272 272 271 271 270 270 269 268 268 267 267 266 266 265 265 265 264 263 263 263 264 265 265 265 266 266 266 267 267 267 267 268 269 271 274
273 273 272 272 272 272 271 271 271 270 270 269 269 268 267 267 266 266 265 265 264 264 264 263 263 263 263 263 264 264 264 265 265 266 266 267 267 267 267 268 269 270 273

GFSGL_925_thetae_060.txt.gz
Theta_e
325 325 324 325 325 326 326 327 326 324 324 324 325 325 325 324 322 321 319 317 315 313 308 308 307 305 303 303 302 301 300 300 300 300 299 299 298 298 298 297 295 295 294
325 326 326 326 326 327 327 327 325 324 325 325 325 325 324 323 321 318 316 314 311 308 307 305 304 302 302 301 301 300 300 300 299 298 298 298 298 298 298 298 297 297 297
326 326 327 326 326 327 327 327 326 322 323 325 324 323 321 319 318 315 314 312 309 307 306 304 302 301 301 300 300 299 299 299 299 298 298 298 298 298 297 297 297 296 296
327 327 327 327 327 327 326 327 326 324 325 321 321 320 318 316 314 312 309 307 305 304 302 301 300 300 300 299 299 298 297 297 297 297 296 296 296 296 296 295 295 294 294
328 327 327 327 326 325 324 324 325 323 321 321 317 314 312 310 309 307 306 305 302 301 299 300 300 299 298 297 297 297 297 296 296 295 294 294 293 293 292 293 293 293 293
328 326 325 322 321 321 321 321 318 316 314 314 311 309 307 306 305 304 303 302 299 299 299 299 297 296 296 295 294 292 291 290 290 291 291 291 291 291 291 291 291 290 289
322 317 316 317 315 314 315 313 312 310 309 308 305 305 304 303 302 301 299 299 299 299 297 296 294 292 292 291 291 290 289 286 282 282 286 287 288 288 289 289 290 289 290
316 315 313 313 311 309 308 307 305 306 305 303 302 301 300 299 299 299 299 298 297 294 293 292 291 289 288 286 285 282 281 281 282 283 283 283 283 283 283 284 285 286 288
314 313 312 311 307 305 303 304 303 302 300 300 300 300 299 299 298 297 295 293 292 291 290 288 287 284 282 280 280 281 282 282 283 283 283 284 284 284 284 284 284 285 286
311 309 308 306 304 303 303 302 301 301 301 300 300 299 299 297 296 294 293 292 291 288 286 283 281 280 279 279 282 281 281 282 281 281 281 282 282 282 283 283 284 284 285
308 307 306 305 305 304 303 302 301 301 300 299 298 297 296 295 291 291 290 289 287 284 281 279 279 278 279 281 281 280 280 279 278 278 279 280 281 281 281 282 283 285 285
305 305 304 304 303 303 302 301 301 299 297 294 292 289 288 287 287 286 286 285 282 279 278 278 278 279 281 281 280 279 278 276 276 276 277 277 278 277 278 278 279 282 284
304 303 302 303 302 302 301 299 296 294 292 289 288 285 283 283 283 283 283 281 278 278 277 277 278 279 280 278 277 277 276 275 275 275 276 276 275 275 276 277 278 281 284
302 301 301 301 299 298 298 297 294 292 290 288 286 284 283 282 281 281 279 277 277 277 277 278 278 278 277 276 276 275 275 274 274 274 274 273 274 274 274 276 276 277 284
300 299 297 295 294 291 291 291 290 289 290 288 286 285 283 281 280 278 277 277 278 278 278 278 277 276 275 275 275 274 273 272 273 272 272 272 272 273 273 275 275 277 281
294 291 291 290 287 285 284 282 282 284 285 285 284 284 281 280 277 277 277 277 278 278 277 276 275 274 274 273 273 272 272 271 271 271 271 270 271 271 273 273 274 278 286
288 286 285 285 284 283 282 282 281 281 282 281 281 280 279 278 278 277 277 277 277 276 275 275 274 273 272 272 272 271 270 270 269 269 269 269 269 270 271 271 273 274 285
286 285 285 284 283 283 283 283 283 282 282 281 281 279 278 278 277 276 277 277 276 275 274 274 272 272 271 271 270 269 269 268 267 268 268 268 268 268 270 270 271 272 283
284 283 284 284 284 284 283 282 282 282 281 281 280 279 277 277 276 275 275 275 274 274 273 272 271 271 270 269 268 268 268 267 266 267 267 267 267 267 269 270 270 271 275
284 284 284 283 281 281 281 280 280 280 279 279 279 278 277 276 275 274 274 273 273 272 271 271 270 269 269 268 267 267 266 266 266 266 266 266 266 266 268 269 269 270 273
281 281 281 280 279 279 278 278 278 278 277 277 276 276 275 274 273 273 273 272 272 271 270 270 269 268 267 267 266 266 265 265 265 265 265 265 265 265 267 267 268 269 271
279 279 278 278 277 277 276 276 276 276 276 275 274 274 273 273 273 272 271 271 270 270 269 268 267 267 266 265 265 265 264 264 265 265 265 265 265 265 265 266 267 268 269
277 277 276 276 275 275 275 275 274 274 274 273 273 272 272 271 271 270 269 269 268 267 267 266 266 265 265 264 264 264 263 264 264 265 265 265 265 265 265 265 266 268 269
275 275 275 274 274 274 274 273 273 273 272 272 271 271 270 269 268 268 267 267 266 266 265 265 265 264 264 263 263 264 264 264 264 264 265 265 265 265 265 265 266 267 268
273 273 272 272 272 272 272 271 271 270 270 270 269 269 268 267 267 266 265 265 265 264 264 264 263 263 263 263 263 263 263 263 263 264 265 265 265 265 266 266 267 267 269
271 271 271 271 270 270 269 269 269 268 268 268 267 267 267 266 265 265 264 264 263 263 262 262 262 262 262 262 263 262 262 264 265 266 266 265 266 266 266 267 267 268 268

GFSGL_925_thetae_063.txt.gz
Theta_e
316 316 314 314 315 316 319 320 322 324 325 323 323 324 324 324 324 323 322 322 320 318 315 314 312 309 308 306 304 303 302 301 300 300 300 300 300 300 299 299 298 297 296
319 319 318 316 317 319 320 322 323 323 325 325 323 324 324 324 322 322 321 319 318 314 313 310 308 307 305 303 302 301 300 300 299 299 299 299 299 299 299 299 298 298 297
322 322 322 322 323 323 324 324 325 325 325 324 320 321 322 322 321 320 319 317 315 313 311 308 306 304 302 301 301 300 299 299 299 298 297 297 297 297 296 296 296 296 295
323 324 324 324 324 324 324 325 325 324 326 325 321 320 323 321 318 319 316 313 311 308 307 305 304 302 301 300 300 299 298 297 296 295 294 293 293 293 293 293 293 293 293
324 324 325 325 325 325 325 325 325 325 325 323 321 322 319 317 316 315 313 310 308 305 304 302 300 300 299 298 298 296 296 295 294 293 292 292 292 291 291 290 290 290 290
325 325 325 325 325 325 324 322 323 322 321 321 320 319 314 312 313 312 309 306 304 302 300 299 299 298 297 296 295 294 291 290 288 286 286 285 285 286 287 286 286 286 287
324 325 325 324 322 321 321 321 320 317 315 313 312 311 310 310 308 306 305 303 301 299 299 297 296 293 292 292 291 290 288 285 282 282 282 282 283 283 283 283 283 284 284
325 324 322 320 316 316 316 314 310 310 310 310 308 308 307 304 303 302 300 299 298 298 296 293 292 290 289 289 287 284 282 281 282 282 282 283 283 283 283 283 283 283 283
319 318 317 316 314 312 309 308 307 307 306 305 304 303 303 300 299 298 298 298 295 292 291 290 289 287 284 281 280 281 281 281 281 280 279 279 279 281 281 282 282 283 283
315 315 314 312 310 307 307 305 305 305 303 301 300 299 299 297 298 298 297 294 291 289 287 285 282 281 279 279 281 281 280 280 278 278 277 277 278 278 279 279 280 281 282
313 312 310 308 307 307 305 303 301 299 299 298 297 296 296 295 294 292 292 291 290 287 284 281 280 279 279 281 281 280 279 278 276 276 276 276 276 276 276 276 277 278 278
310 308 307 306 305 303 301 299 299 299 297 294 293 291 291 291 291 289 288 288 285 283 280 279 278 279 280 281 279 278 277 276 275 274 274 275 275 274 274 275 275 276 276
305 303 303 302 301 301 301 299 297 297 293 289 288 285 284 285 285 285 285 283 281 279 278 278 278 279 279 278 277 276 275 274 273 273 273 273 273 273 273 274 274 275 275
302 300 299 300 299 298 297 298 296 292 289 287 285 283 282 282 282 281 280 279 278 278 278 278 278 278 277 276 275 275 274 273 272 272 272 272 271 271 272 272 273 273 274
298 296 295 296 296 293 291 290 291 290 291 289 286 285 283 280 280 279 278 278 278 278 278 278 277 276 275 274 274 273 272 272 271 271 270 270 270 270 270 271 272 272 273
293 292 291 290 288 287 286 284 287 288 289 289 287 286 283 281 278 278 277 278 278 278 278 276 275 274 273 274 273 272 271 271 270 269 269 269 268 268 269 269 271 271 273
292 289 287 285 284 283 283 282 281 281 281 281 281 281 280 278 278 278 277 278 278 276 276 274 273 273 272 272 271 271 270 269 268 267 267 267 267 267 267 268 269 270 271
287 285 284 284 283 283 283 283 283 282 281 280 281 280 279 279 278 277 277 277 276 275 275 274 272 272 271 270 270 269 268 268 267 266 266 266 266 266 265 266 268 269 270
284 284 284 284 284 284 284 284 283 282 282 281 279 279 278 277 277 276 275 275 275 274 273 272 271 271 270 269 268 267 267 266 266 266 266 266 265 265 264 265 266 268 269
284 284 284 283 283 282 282 281 281 280 280 280 279 278 277 276 275 274 274 273 273 272 271 271 270 269 268 268 267 266 266 265 265 265 265 265 265 265 264 264 266 266 268
281 281 281 280 279 279 279 278 278 278 277 277 277 276 275 274 274 273 273 272 272 271 270 269 269 268 267 266 266 265 265 265 265 264 264 265 265 264 264 264 265 265 267
279 278 278 277 277 276 276 276 276 276 275 275 274 274 273 273 273 272 271 270 270 269 268 268 267 266 266 265 265 264 263 264 264 264 264 264 264 264 264 264 264 265 266
276 276 275 275 275 275 274 274 274 274 273 273 272 272 271 270 270 269 269 268 267 267 266 266 265 265 264 264 264 263 263 263 263 263 263 263 263 264 264 264 264 264 266
274 274 273 273 273 273 272 272 272 271 271 271 270 269 269 268 268 267 267 266 265 265 264 264 263 263 263 263 262 263 263 263 263 263 263 263 263 264 264 264 265 265 265
272 272 271 271 271 270 270 269 269 269 269 268 268 267 267 267 266 266 265 264 264 263 263 262 262 262 261 261 262 262 262 262 262 263 263 264 264 264 265 265 265 266 266
270 270 269 269 268 268 268 267 267 267 266 266 266 266 265 265 264 264 263 263 262 262 261 260 260 260 260 261 261 262 262 262 263 264 264 264 265 265 265 266 266 266 267

GFSGL_925_thetae_066.txt.gz
Theta_e
315 315 315 315 314 314 315 316 316 316 316 317 317 318 319 322 323 321 322 322 322 321 321 320 317 316 313 311 308 306 305 303 301 301 301 300 300 300 300 300 299 298 298
315 315 315 315 315 315 315 315 315 316 316 317 316 317 321 324 323 323 323 321 321 320 320 316 314 312 309 307 306 304 303 301 300 299 299 299 298 298 297 296 296 296 295
315 315 316 314 314 314 314 315 314 316 316 318 320 321 323 324 322 322 323 322 322 319 317 314 312 310 307 304 303 302 301 299 299 298 297 296 294 294 293 293 293 293 292
317 317 317 316 315 315 315 316 318 320 321 322 322 323 322 321 320 320 321 319 319 316 313 311 309 306 305 303 301 300 299 298 296 295 294 294 293 293 292 291 289 288 287
318 319 318 318 318 318 318 319 320 320 322 323 322 322 322 319 319 320 319 316 313 309 308 306 305 303 301 300 300 298 297 296 295 294 291 290 289 287 285 286 284 283 283
320 320 321 321 321 321 321 322 322 322 322 322 322 322 322 317 316 319 316 311 308 306 302 301 300 300 299 299 298 296 294 292 291 288 286 283 282 283 283 283 283 283 283
321 321 322 322 322 322 323 323 323 321 321 321 320 317 317 317 315 311 310 307 305 302 300 299 298 296 296 294 293 291 289 287 284 283 282 282 282 282 282 282 282 281 282
322 322 323 323 323 322 322 322 319 318 317 313 312 311 311 309 306 305 305 304 301 299 298 297 296 292 291 290 288 286 283 282 281 281 281 281 281 280 282 282 282 281 281
321 322 323 322 321 319 316 315 314 311 309 308 307 306 307 302 302 303 302 300 298 295 294 292 291 288 287 286 283 281 281 281 280 279 278 278 278 278 279 280 280 280 280
322 320 319 320 318 316 313 309 308 307 304 303 302 302 302 299 299 299 299 297 294 290 287 286 284 284 281 280 281 281 280 280 279 278 278 277 277 277 277 277 277 278 278
318 317 316 314 313 310 308 306 303 301 299 298 297 296 297 297 297 297 297 295 292 287 284 281 280 279 279 281 281 280 279 278 277 276 276 276 276 275 275 275 275 275 276
314 313 311 310 307 305 304 300 299 297 293 292 292 290 291 291 292 291 290 290 288 286 281 279 278 279 281 280 280 278 278 276 275 274 274 274 274 274 273 273 273 274 274
309 305 303 303 301 300 299 296 294 293 291 289 287 285 284 285 286 287 286 284 282 281 279 278 279 280 279 279 277 277 276 274 273 273 273 273 272 272 272 272 272 273 273
302 300 300 298 297 296 296 296 294 292 290 288 286 284 283 283 283 283 282 280 279 278 278 278 279 278 278 277 276 275 274 273 272 272 272 271 271 271 270 271 271 271 272
298 296 295 295 294 293 293 293 294 294 296 293 289 287 284 281 280 281 281 279 278 278 278 278 277 276 276 275 274 274 273 272 271 271 270 270 270 269 269 269 269 270 271
294 293 293 293 292 291 290 287 288 289 289 288 286 285 282 281 280 279 278 278 278 278 278 277 275 275 274 274 273 273 272 271 270 269 269 268 269 268 268 268 268 268 270
291 289 288 287 286 285 284 283 282 281 283 284 284 284 283 280 279 278 278 278 277 277 276 276 275 274 273 273 272 271 270 270 269 268 267 267 267 267 266 267 267 267 268
286 285 285 284 283 283 282 282 282 282 281 280 280 280 279 278 278 278 278 278 277 276 275 274 273 272 272 271 270 269 269 268 267 267 266 266 266 265 265 265 265 265 266
284 284 284 284 284 284 284 283 282 282 280 280 279 279 278 278 277 277 277 276 276 275 274 273 272 272 271 270 269 268 267 267 266 266 265 265 265 265 264 264 264 264 265
282 283 283 282 282 282 282 281 281 281 280 279 278 277 276 276 275 275 274 274 274 273 272 272 271 270 269 268 267 267 266 265 265 265 264 264 264 264 264 264 264 264 265
280 280 280 279 279 279 278 278 278 278 277 276 275 275 275 274 273 273 273 272 271 271 270 269 269 268 267 266 266 265 264 264 264 264 263 263 264 264 264 263 263 264 264
278 277 277 276 276 276 276 276 276 275 275 274 273 273 273 272 272 271 270 270 269 268 268 267 266 266 265 264 264 263 263 263 263 263 263 263 263 263 263 263 263 263 264
276 275 275 274 274 274 273 273 273 273 272 272 271 271 270 270 269 269 268 267 267 266 265 265 264 264 263 263 263 262 262 262 262 262 262 262 262 262 262 263 263 264 264
273 273 273 272 272 271 271 271 270 270 270 269 269 268 268 267 267 266 266 265 265 264 263 263 262 262 262 262 261 261 261 261 261 261 261 261 261 262 263 263 263 264 264
271 271 271 270 270 269 269 268 268 268 267 267 267 267 266 266 265 264 264 263 263 262 262 261 261 260 260 260 260 260 261 261 261 261 262 262 262 263 263 263 264 264 265
269 268 268 268 267 267 266 266 265 265 265 264 265 265 264 264 263 263 262 262 261 261 260 260 259 259 259 259 260 260 261 261 261 262 262 262 263 263 264 264 264 264 265

GFSGL_925_thetae_069.txt.gz
Theta_e
316 316 315 315 314 314 314 314 315 315 315 316 316 316 316 316 316 316 317 320 321 321 320 320 319 319 319 317 313 312 310 308 307 303 303 302 302 301 299 299 298 298 298
316 316 315 315 315 314 314 314 315 315 316 316 315 315 316 317 317 316 319 322 321 320 320 320 319 317 314 312 311 309 306 305 303 302 301 301 299 298 298 297 296 295 295
317 317 316 315 315 315 315 315 316 316 317 317 317 316 317 317 317 316 321 321 322 321 320 320 317 314 310 309 308 306 304 303 301 300 298 298 297 295 295 295 294 293 292
317 317 317 316 315 316 316 316 316 316 316 317 317 316 318 319 318 319 319 321 321 319 317 316 314 312 310 309 306 304 302 300 299 297 296 295 295 295 293 292 291 289 287
317 317 317 317 316 316 316 315 315 315 316 317 317 319 320 321 321 321 321 320 318 315 312 312 309 309 309 307 305 301 300 298 296 295 295 293 293 292 290 288 286 286 286
318 318 318 317 317 316 316 316 316 316 318 320 321 321 321 321 321 321 320 318 315 310 308 307 305 304 303 302 301 300 299 297 295 294 293 291 289 286 285 285 285 285 286
319 319 319 318 318 318 317 317 317 318 319 321 321 321 321 321 320 319 316 316 311 307 306 303 300 300 300 299 298 296 293 292 290 288 288 286 285 284 284 284 284 284 284
321 320 320 320 320 320 320 320 320 321 321 320 321 321 319 318 316 311 311 308 305 303 302 301 299 296 295 295 292 289 287 285 284 283 283 283 283 283 283 283 283 283 282
322 321 321 321 322 322 322 321 321 320 320 318 316 314 312 310 306 305 306 303 300 297 296 296 295 292 290 290 288 285 284 283 281 280 279 278 278 278 279 281 281 281 281
322 322 322 322 322 320 319 318 317 316 313 310 307 306 305 303 300 302 303 299 295 291 290 289 289 289 289 285 284 284 283 282 280 279 278 278 278 278 277 278 278 279 279
319 319 319 319 318 317 316 314 311 307 304 301 300 297 298 298 297 300 300 297 292 288 286 284 283 282 281 280 281 282 282 279 278 277 277 277 277 277 276 276 276 276 277
317 316 315 315 314 311 310 305 303 301 296 293 292 292 292 293 295 296 296 296 292 289 283 282 281 281 281 280 280 279 278 277 276 276 277 277 276 275 275 274 274 274 275
311 309 308 307 305 304 302 297 294 293 291 288 287 285 284 286 287 290 290 288 287 284 281 280 281 281 280 279 278 277 276 276 276 276 276 275 274 274 274 273 273 274 274
302 300 300 299 298 297 296 295 293 292 290 288 287 284 283 283 283 282 282 281 280 280 279 281 280 279 279 278 277 276 275 275 274 274 274 273 273 273 273 272 272 273 273
298 296 295 294 294 292 292 292 292 292 294 291 288 286 283 281 280 280 280 279 279 279 279 279 278 278 277 277 276 275 274 274 274 273 273 272 272 272 272 271 271 271 272
294 292 292 291 290 288 287 286 288 290 291 290 289 289 282 281 280 282 283 281 280 278 279 278 277 277 277 276 276 275 274 273 272 271 271 271 271 271 271 270 270 271 271
290 288 288 287 286 285 285 284 283 283 283 284 284 283 282 280 280 280 279 279 278 277 278 277 276 276 275 275 274 273 273 271 270 270 270 270 269 269 269 269 270 270 270
285 285 285 284 284 283 283 282 282 282 281 281 280 280 280 279 279 279 279 278 277 277 277 276 275 275 274 273 273 272 271 270 270 269 269 268 268 268 268 269 269 269 269
285 284 284 284 284 283 283 282 282 281 281 280 279 279 278 278 278 278 277 277 277 276 276 275 274 274 272 271 271 270 269 269 268 267 267 267 267 267 267 267 268 267 267
281 281 282 282 282 282 282 282 282 281 280 279 278 277 276 277 276 275 275 275 275 274 273 273 272 271 270 269 269 268 268 268 267 267 266 266 266 266 266 266 267 267 268
279 279 279 279 279 279 279 279 279 279 278 277 276 275 275 275 275 274 273 272 271 271 270 270 269 268 268 267 267 267 266 265 265 265 264 265 265 265 265 266 267 267 267
277 277 277 276 276 276 276 276 276 276 276 275 273 272 272 272 271 270 269 268 268 267 267 266 266 265 265 264 264 264 263 263 263 263 263 263 263 265 265 265 266 266 267
275 275 274 274 274 273 273 273 273 272 272 272 271 271 270 270 269 268 266 266 265 265 264 264 263 263 262 262 261 261 261 262 262 262 262 262 263 264 264 265 266 266 267
273 273 272 271 271 271 271 271 270 269 269 269 269 268 267 266 265 265 265 264 263 263 263 262 262 261 261 260 260 260 260 260 260 260 261 262 262 263 264 264 265 265 266
270 270 269 269 269 268 268 268 267 267 266 266 266 265 265 264 263 263 263 262 262 262 261 261 260 260 259 260 260 260 259 260 259 259 259 260 261 262 262 263 264 265 266
268 267 267 267 266 266 265 265 264 264 264 263 263 262 262 262 262 261 261 260 260 260 260 259 259 259 260 259 259 259 260 260 261 260 260 260 261 262 263 264 264 265 266

GFSGL_925_thetae_072.txt.gz
Theta_e
321 322 321 321 320 320 321 321 321 321 320 319 319 319 319 318 319 319 319 320 320 321 321 322 322 323 319 318 317 316 313 313 313 307 307 305 303 303 302 303 302 301 302
321 322 321 321 320 320 320 321 321 321 321 320 320 319 318 318 319 319 320 320 320 321 322 322 321 321 319 318 317 315 311 311 310 307 304 303 303 303 303 301 300 300 299
322 322 322 321 321 320 320 320 320 321 321 321 320 320 319 319 319 319 320 321 321 321 321 320 320 319 317 317 313 310 308 308 307 306 304 303 304 299 298 298 298 298 296
323 322 322 321 321 321 320 319 319 319 319 319 319 319 319 319 319 319 320 320 318 315 316 319 320 319 318 313 311 307 306 305 304 304 305 299 298 297 297 297 296 295 293
324 323 323 322 321 321 320 320 319 319 319 319 319 320 320 320 319 318 318 318 317 318 318 318 320 318 315 314 309 306 305 304 301 302 298 297 297 296 295 295 292 291 290
324 324 323 323 323 322 320 320 320 320 320 320 320 320 320 319 319 319 320 319 320 320 317 316 314 311 310 307 306 306 303 300 298 297 296 296 296 295 292 291 289 289 290
324 324 323 323 323 322 322 321 320 320 320 320 319 319 320 321 321 320 321 320 319 318 314 312 308 305 304 302 301 301 300 299 298 296 295 293 292 290 289 288 288 288 288
324 324 323 323 323 322 322 321 321 321 320 320 321 321 322 322 320 320 321 317 314 310 307 305 304 299 299 300 298 296 294 292 291 290 288 288 287 287 286 286 287 286 286
325 324 324 324 323 323 323 323 322 321 321 321 321 321 320 320 319 317 314 310 306 301 299 298 299 298 296 297 296 290 286 286 285 285 284 284 282 281 281 283 284 285 285
325 325 324 324 324 324 324 324 321 321 320 320 317 315 314 312 310 309 308 304 297 293 293 292 294 294 292 291 290 288 285 283 282 281 281 280 279 281 278 279 281 282 283
324 325 325 325 325 324 320 320 318 316 313 307 305 302 302 301 299 300 301 296 291 287 287 287 287 289 285 284 285 285 285 283 281 282 281 281 281 281 280 280 280 280 281
320 319 318 317 319 319 318 311 308 308 304 297 294 291 291 292 293 293 294 293 289 289 285 284 283 282 281 282 282 282 281 280 281 280 280 280 280 280 279 279 278 277 278
312 310 311 310 308 306 306 301 300 297 293 290 289 287 286 287 287 288 290 290 290 287 284 283 281 281 280 280 279 279 279 279 280 280 280 280 279 278 277 277 277 276 277
303 302 300 300 299 299 298 298 295 293 290 289 287 285 284 284 283 286 286 286 285 283 282 281 281 281 281 279 278 278 279 278 278 279 278 277 276 276 276 276 276 276 276
297 296 294 293 291 290 290 291 291 292 292 289 286 285 283 282 282 283 283 282 282 282 282 281 280 280 281 280 279 278 278 277 277 277 276 276 276 276 276 276 275 275 275
293 292 291 290 288 287 286 285 289 290 289 288 286 287 284 282 281 281 281 281 280 280 282 282 282 281 281 280 279 278 277 275 275 275 275 275 275 274 275 275 274 274 275
289 289 288 288 287 286 285 284 283 283 283 284 284 283 282 282 282 281 280 280 280 281 282 281 281 280 279 278 278 277 276 275 273 274 274 274 273 273 273 273 273 274 274
287 285 285 285 284 284 283 283 283 282 282 281 281 281 281 281 281 280 279 279 279 279 279 279 278 277 277 276 275 275 274 274 273 273 272 272 271 271 272 272 273 273 273
284 284 284 283 283 283 283 282 282 282 282 281 280 280 279 279 279 278 279 280 280 279 278 277 277 276 275 274 274 273 272 272 271 270 271 271 271 270 270 271 271 271 271
281 282 282 283 283 283 283 283 283 282 281 280 280 279 279 279 279 278 278 278 277 276 276 275 274 273 273 272 272 271 271 271 270 270 270 269 269 269 269 270 270 270 270
281 280 280 280 280 281 281 281 281 280 279 278 277 276 277 278 277 276 275 274 274 273 272 272 271 271 270 270 269 269 269 269 268 268 268 268 268 268 268 268 269 269 269
280 279 279 279 279 279 278 278 278 277 277 276 274 274 274 274 273 273 272 271 270 270 269 269 269 268 268 267 267 267 266 266 266 266 266 266 266 267 267 267 268 268 269
277 277 277 276 276 276 276 275 275 275 275 274 274 273 273 272 271 270 269 269 268 267 266 266 266 265 265 265 264 265 265 265 265 264 264 264 265 266 266 267 267 267 268
276 275 274 274 274 274 274 273 272 272 272 272 271 271 270 269 269 267 267 266 266 266 265 264 264 263 262 262 263 263 263 263 263 262 263 264 264 265 265 266 266 267 267
273 272 272 272 272 272 271 270 270 270 269 270 269 269 268 268 267 266 265 265 263 264 263 262 262 262 261 260 260 260 260 259 259 260 261 262 263 264 265 265 266 266 267
269 269 269 269 269 269 269 268 268 267 267 267 267 266 266 266 265 265 264 263 262 262 262 262 261 261 260 260 261 260 259 260 259 259 259 261 263 264 265 266 266 266 267

GFSGL_925_thetae_075.txt.gz
Theta_e
325 325 325 325 324 325 325 325 324 323 323 323 322 321 320 319 320 320 320 320 320 321 321 322 322 322 323 323 323 322 321 319 317 316 315 314 310 307 305 305 305 305 304
325 325 325 325 324 324 325 326 325 324 324 323 323 322 322 321 321 321 321 321 321 321 322 322 322 322 322 322 322 321 318 317 316 315 310 309 307 305 303 304 305 305 304
325 325 326 326 325 324 325 325 325 326 324 323 323 323 322 322 322 322 322 322 322 321 322 322 322 322 323 322 321 318 317 316 315 313 307 306 304 304 305 304 303 301 301
326 325 325 326 326 325 324 324 324 324 325 324 324 323 322 322 322 322 322 321 322 321 322 322 322 323 321 319 318 318 317 312 310 309 306 304 304 303 301 300 300 298 298
328 327 326 326 326 325 325 324 324 324 324 324 324 324 324 323 322 322 322 321 321 321 321 322 322 321 318 316 316 316 313 310 307 306 305 303 302 300 300 299 297 297 296
329 329 327 327 326 326 325 325 324 324 323 323 323 323 324 323 323 322 322 320 320 320 320 319 318 316 316 319 317 318 315 309 306 305 302 301 300 299 297 296 294 293 293
329 329 328 328 327 327 326 325 324 324 323 323 323 322 322 323 322 321 321 319 318 319 319 318 317 317 317 315 310 309 306 305 304 301 299 298 297 296 294 292 291 290 291
329 328 328 328 328 327 327 326 325 324 324 324 324 324 323 323 323 322 321 319 318 320 319 318 316 312 308 307 304 302 299 298 296 295 296 294 292 291 290 289 289 290 290
329 328 327 327 327 327 327 327 326 325 325 324 324 323 323 322 322 322 321 320 318 314 311 308 306 303 299 299 300 296 293 292 293 292 290 288 287 287 287 287 287 287 288
327 328 327 327 327 326 326 327 326 325 325 324 321 321 322 322 321 321 320 316 306 300 297 295 294 295 292 294 295 292 288 285 285 284 284 283 281 281 280 281 284 285 285
322 325 327 326 327 326 326 326 326 321 319 317 315 311 312 311 311 308 307 305 298 291 288 287 287 288 288 288 288 288 287 284 283 283 283 283 283 283 283 282 282 282 283
323 324 326 326 325 326 325 319 313 314 308 299 296 293 293 293 295 297 299 301 294 291 286 285 284 286 286 286 286 284 283 282 282 283 282 283 283 282 282 282 281 280 280
317 312 309 311 310 311 309 309 305 301 297 292 291 289 288 289 288 291 292 291 290 286 285 284 283 284 283 282 282 281 281 282 282 283 282 282 282 281 279 279 279 279 279
299 298 298 298 298 299 298 297 297 295 293 290 288 286 285 284 284 285 285 286 285 283 282 281 281 282 280 279 279 280 280 280 280 281 281 281 280 279 279 279 279 279 278
293 292 291 290 290 290 290 291 292 292 291 289 287 286 284 284 283 284 285 284 283 282 281 281 281 281 282 282 280 280 279 279 279 279 279 279 278 278 278 278 277 277 277
290 289 289 288 287 286 285 284 285 287 287 287 286 284 283 283 283 283 284 283 282 282 282 283 284 284 283 282 282 280 279 278 278 277 277 277 277 276 276 276 276 276 277
288 287 286 286 286 285 285 284 284 283 283 283 283 283 282 282 282 282 281 282 283 284 284 284 283 283 281 281 280 278 278 276 275 276 276 275 275 275 274 275 275 275 276
285 285 284 284 283 283 283 283 282 282 282 282 282 282 281 281 281 281 281 281 281 281 281 281 280 279 279 278 277 277 276 276 275 274 274 274 273 273 273 273 274 274 274
284 284 284 284 283 283 283 282 282 282 281 281 280 280 280 280 280 281 281 281 281 280 279 279 278 278 277 276 275 275 274 274 273 273 273 273 272 272 272 272 272 272 272
283 283 284 284 284 284 283 282 282 282 281 281 280 280 280 279 279 278 278 278 277 277 277 276 275 274 274 274 273 273 273 272 272 271 271 270 270 270 270 270 270 271 271
282 282 282 281 281 281 281 280 279 279 278 277 277 277 277 277 276 275 274 274 274 274 273 273 273 272 272 271 271 271 270 270 270 269 269 269 269 269 269 269 269 270 270
279 279 279 279 279 280 280 279 278 277 277 276 275 275 274 274 274 273 272 271 271 271 271 270 271 270 269 269 268 268 268 268 268 268 268 267 267 268 268 268 269 269 269
279 278 278 277 277 276 276 276 276 276 275 275 274 274 273 272 272 271 271 270 270 269 268 268 268 267 267 266 266 266 267 267 266 266 266 266 266 267 267 267 268 268 268
277 277 276 275 275 275 275 275 274 274 274 273 273 272 271 271 270 269 268 268 267 267 267 266 266 265 264 264 264 264 265 264 263 263 264 264 265 266 266 266 267 267 267
274 274 274 274 274 273 273 272 272 272 272 272 271 270 270 270 269 268 267 267 265 265 265 265 265 264 264 262 262 262 262 261 260 260 260 262 264 265 265 266 267 267 268
271 271 271 271 271 271 271 271 270 270 270 269 269 269 268 268 267 267 266 265 264 263 264 264 264 263 262 263 263 261 261 260 259 259 259 261 263 265 266 266 266 266 267

GFSGL_925_thetae_078.txt.gz
Theta_e
327 326 325 325 325 324 324 325 323 324 322 321 320 319 319 318 318 316 317 318 319 319 319 319 319 319 320 321 321 320 321 321 321 319 319 317 316 315 314 314 311 310 309
327 327 327 327 326 325 326 325 325 324 323 322 322 321 320 319 318 318 318 318 319 320 320 319 320 320 321 322 322 322 321 322 321 319 318 317 316 315 314 311 308 306 306
326 327 327 327 327 327 326 327 325 325 324 324 323 323 322 320 320 319 318 318 319 320 320 320 321 321 321 322 322 322 322 321 320 319 317 315 314 313 311 308 306 305 306
328 327 327 327 327 327 326 326 327 326 326 325 324 324 323 323 322 321 320 320 320 320 321 321 321 321 322 322 322 322 321 319 318 317 316 311 309 306 306 304 303 304 304
329 328 327 327 327 327 326 326 326 327 327 326 325 324 324 323 323 322 322 321 321 321 321 321 322 321 321 320 321 320 320 317 316 314 312 306 305 304 303 303 302 301 301
330 330 328 327 326 327 327 326 326 326 326 326 326 325 324 323 323 323 322 322 322 322 322 322 322 321 321 321 321 321 320 316 314 313 311 307 305 304 302 301 299 297 294
331 330 330 329 327 327 327 327 326 326 325 325 325 325 325 324 324 323 322 322 322 322 321 320 320 320 320 320 319 319 314 313 311 311 308 303 300 299 299 296 293 292 291
330 330 330 330 329 328 328 327 327 326 325 325 325 325 325 325 325 325 324 323 322 322 320 320 319 318 318 317 314 306 300 298 301 303 302 298 296 296 297 294 292 291 290
320 329 330 330 329 329 329 328 327 327 326 325 325 324 324 323 323 323 323 322 321 320 319 319 319 317 313 309 302 297 293 291 292 294 294 293 294 293 292 290 288 287 288
316 323 326 329 329 329 328 328 328 327 326 326 325 325 324 324 324 324 323 321 318 313 307 304 301 302 299 297 298 293 289 287 289 289 288 286 285 286 287 285 285 285 285
310 318 317 323 328 328 328 328 328 328 327 325 320 315 316 318 318 320 321 318 311 299 294 291 290 291 291 292 292 290 286 284 284 285 284 284 283 283 283 282 282 282 283
303 305 305 307 312 323 327 326 325 322 313 307 304 303 303 303 303 306 309 311 301 297 288 287 287 289 290 289 288 285 284 284 283 283 283 283 283 282 282 282 281 281 281
297 295 294 298 298 302 308 311 310 311 306 298 296 293 290 292 292 293 296 296 294 289 286 284 283 283 283 283 283 283 283 283 283 283 282 282 281 281 280 280 280 279 279
293 292 291 289 289 291 293 296 298 297 294 292 290 287 286 286 286 286 286 286 286 283 282 282 282 282 281 281 281 281 281 281 282 281 281 280 280 279 279 279 278 278 278
290 290 289 287 287 286 285 287 289 291 293 289 287 286 285 284 285 284 283 282 282 282 281 281 281 282 281 280 280 280 280 280 279 279 279 278 278 278 277 277 277 277 277
289 287 287 286 286 285 285 284 284 285 286 286 285 286 285 284 284 283 282 282 283 283 283 283 283 282 282 281 280 279 278 277 277 277 277 277 276 276 275 275 275 276 276
286 285 285 284 284 284 284 284 284 283 283 283 283 283 283 283 283 283 284 284 285 284 283 283 282 281 280 279 278 278 276 276 276 275 275 275 274 274 274 274 274 274 274
284 284 284 283 283 282 282 282 282 282 281 281 281 282 282 282 282 282 282 282 281 281 280 280 279 278 278 277 277 276 275 275 274 273 273 273 273 273 272 272 272 272 272
284 284 284 283 283 283 282 282 281 281 280 280 280 280 280 280 280 280 280 279 279 278 277 277 276 276 276 275 274 274 274 273 273 273 272 271 271 271 271 271 270 270 271
282 282 282 282 281 280 280 279 279 278 278 279 280 279 277 277 276 275 275 275 275 275 275 274 274 273 273 273 273 272 272 271 271 270 270 270 270 269 269 269 269 270 270
280 280 281 281 280 279 278 278 277 277 276 276 276 275 275 274 273 273 272 272 272 272 272 273 272 271 271 270 270 270 269 269 269 269 269 268 268 268 268 268 269 269 269
278 278 278 278 278 278 278 277 277 277 276 275 274 273 273 273 272 272 271 270 270 270 270 270 269 269 268 268 268 268 268 268 268 267 267 266 266 267 267 267 267 268 268
277 277 277 277 276 276 276 275 275 275 274 273 273 272 271 271 271 270 269 269 268 268 267 267 267 267 266 266 266 266 266 266 265 265 265 265 265 266 266 266 267 267 267
275 276 275 275 274 274 274 274 274 274 273 273 272 271 270 270 269 268 267 267 267 266 266 266 265 265 264 264 264 264 264 264 264 263 263 263 264 264 265 265 266 266 267
273 273 273 273 273 273 272 272 272 271 271 271 270 270 270 269 268 267 266 265 265 265 265 265 264 264 263 263 263 262 263 262 262 262 261 261 262 263 264 265 266 266 266
271 271 271 271 271 271 270 270 270 269 269 269 269 268 268 267 267 266 265 264 263 264 264 264 263 263 262 263 263 262 262 261 261 260 260 261 262 263 264 264 264 265 266

GFSGL_925_thetae_081.txt.gz
Theta_e
325 324 324 325 325 325 324 323 323 322 321 319 319 319 318 318 319 318 317 316 317 317 318 318 318 317 318 318 318 319 320 320 320 319 319 319 319 319 318 318 317 316 316
325 324 324 323 324 324 324 323 323 323 322 322 320 318 317 318 318 317 317 317 316 317 318 319 319 319 319 319 319 319 319 319 320 319 319 319 319 319 318 317 316 315 313
325 325 324 323 323 323 324 324 324 323 323 322 321 320 317 317 317 317 317 316 317 317 317 318 318 318 318 318 318 319 320 320 320 320 319 319 319 318 316 315 314 312 311
325 326 325 324 324 324 324 323 323 323 323 323 322 321 321 319 318 317 317 317 317 317 317 317 318 318 318 318 319 319 320 320 320 319 319 318 317 315 314 311 308 309 307
326 326 326 326 326 326 325 324 324 325 324 324 323 322 322 321 320 319 319 318 317 317 317 317 318 319 319 319 319 320 320 320 320 319 317 317 311 308 309 310 307 306 303
328 327 326 326 326 326 326 325 325 325 325 325 324 323 323 322 322 321 320 319 318 318 317 317 318 319 319 320 320 320 320 320 319 318 318 316 312 309 309 306 304 299 297
324 328 328 327 326 326 326 326 325 325 325 326 325 325 324 323 323 323 322 320 320 319 319 319 319 319 320 320 320 321 320 320 319 318 316 316 312 311 306 302 299 297 293
314 316 320 327 327 326 325 326 326 326 325 324 325 325 325 324 323 323 323 323 321 321 320 320 320 320 321 320 320 317 313 310 309 308 308 308 305 302 302 300 296 294 292
308 310 315 313 316 324 326 325 326 326 325 324 324 324 324 324 324 324 323 323 320 320 320 320 320 320 320 319 318 311 300 297 296 299 299 297 296 296 296 294 291 290 288
305 306 307 305 306 310 318 327 326 326 325 325 324 324 324 324 323 324 324 323 319 318 317 316 318 319 317 316 315 303 291 289 290 290 290 289 289 288 288 289 289 288 287
299 300 300 300 299 301 307 316 326 326 326 325 324 322 321 322 323 323 323 322 320 315 309 304 304 302 299 297 299 295 293 288 287 287 285 284 282 281 281 282 282 283 284
295 294 294 295 298 295 297 303 307 319 325 318 312 306 305 307 309 312 318 317 313 304 292 290 289 290 290 290 289 286 285 285 284 283 283 283 282 281 281 281 282 281 281
292 291 290 289 291 295 291 291 295 298 300 297 296 292 289 290 291 293 295 295 292 290 287 285 284 284 284 284 284 284 284 283 283 283 281 281 281 281 281 280 280 279 279
290 289 287 286 286 286 288 287 287 289 292 291 290 288 286 285 285 285 284 284 283 282 282 282 282 282 283 282 283 283 283 282 282 281 280 280 279 279 278 278 278 278 278
287 287 286 285 285 285 284 285 285 285 287 288 287 287 286 284 283 283 283 281 282 281 282 282 281 281 280 280 280 280 279 279 279 279 278 278 277 277 276 276 276 276 276
285 285 284 284 284 284 284 283 284 284 284 285 284 284 284 284 283 283 283 283 283 283 282 282 281 281 280 279 278 277 277 277 277 277 276 276 275 275 274 274 274 274 274
284 283 283 283 283 283 282 282 282 282 283 283 283 284 284 284 284 284 283 283 283 282 280 280 279 279 278 278 277 276 276 275 275 274 274 273 273 273 273 273 272 272 272
283 283 283 282 282 281 281 281 281 281 280 280 280 281 282 282 282 282 282 281 279 279 278 278 277 277 276 276 275 275 274 273 273 273 273 272 271 271 271 271 270 270 270
282 281 281 280 280 280 280 280 280 280 279 279 278 278 277 277 277 277 277 277 276 276 275 275 275 274 274 274 273 273 272 272 271 271 270 270 270 270 269 269 269 269 269
280 280 280 279 278 278 277 277 277 276 276 275 275 274 275 276 274 273 273 273 274 273 273 273 272 272 272 271 271 271 270 270 270 269 269 269 268 268 268 268 268 268 268
278 278 278 278 278 277 277 276 275 275 274 274 273 273 273 272 271 271 270 270 270 270 270 270 270 270 269 269 269 269 268 268 268 268 268 267 267 267 267 267 267 267 267
277 276 276 276 276 275 275 274 274 273 273 273 272 272 271 271 270 269 269 268 269 269 269 269 268 268 267 267 267 267 267 267 266 266 266 266 266 266 266 266 266 266 266
275 275 274 274 274 274 274 273 273 272 272 271 271 270 269 269 268 268 267 267 267 266 267 266 266 266 266 266 266 266 266 265 265 265 265 265 265 265 265 265 265 266 266
273 273 273 272 272 272 271 271 271 271 270 270 269 269 268 267 267 266 266 266 265 265 265 265 264 264 264 264 264 264 264 263 263 263 263 263 263 264 264 264 265 265 265
271 271 271 271 270 270 270 270 269 269 269 268 268 267 267 266 266 265 265 265 265 264 264 264 263 263 263 263 263 263 262 262 262 262 262 262 262 263 263 263 264 264 265
269 269 269 269 269 268 268 268 268 267 267 267 266 266 266 265 264 264 264 264 263 263 263 263 262 262 262 262 262 262 261 261 261 261 262 262 262 262 262 263 264 264 265

GFSGL_925_thetae_084.txt.gz
Theta_e
323 323 323 323 323 323 322 322 322 322 321 319 318 318 318 319 320 320 320 321 321 320 320 320 320 320 319 317 318 318 318 318 318 318 318 318 318 318 318 318 319 319 319
323 322 322 322 322 323 323 322 322 322 322 321 319 318 318 318 318 320 320 319 319 319 319 320 320 319 318 318 317 317 318 318 318 318 318 318 319 319 319 318 318 319 318
324 323 323 323 324 323 324 323 323 323 322 321 320 319 319 318 317 318 318 318 318 317 317 318 318 318 318 318 318 317 317 318 318 318 318 318 318 318 318 318 318 318 318
323 323 323 323 323 323 324 324 323 323 322 322 322 320 318 318 318 318 317 316 316 316 316 316 316 316 317 317 317 318 318 318 318 318 318 318 318 318 318 316 314 316 315
323 324 323 323 323 322 322 322 323 323 323 323 322 322 321 319 318 317 317 317 316 316 316 315 316 316 317 317 316 316 316 316 317 318 318 319 317 314 315 315 313 313 311
322 325 324 324 323 323 323 322 322 322 322 322 322 322 322 321 320 319 317 317 316 316 315 315 315 315 316 316 317 317 316 316 317 317 318 318 318 314 314 314 311 306 300
311 313 318 317 322 324 324 323 323 323 322 323 322 322 322 321 321 321 320 318 318 317 317 316 316 316 316 316 317 317 318 318 318 318 318 318 318 317 313 310 309 308 302
305 308 309 309 310 313 316 324 324 324 323 323 323 323 323 323 322 322 321 321 319 319 318 318 317 317 316 316 316 316 317 317 317 317 317 316 315 313 313 308 303 297 293
299 300 301 302 304 306 306 310 316 324 324 323 324 324 324 324 324 323 323 321 319 320 319 319 318 317 317 318 317 316 312 307 306 305 305 303 303 303 303 302 294 293 289
296 296 295 296 296 299 299 304 306 311 322 324 324 323 323 324 324 324 324 320 318 318 320 319 319 319 318 318 318 310 301 294 292 290 290 291 291 292 293 295 292 289 287
293 292 291 290 291 292 293 295 300 304 310 321 323 321 320 320 320 322 323 323 319 317 315 314 314 311 313 312 309 300 293 289 286 285 284 283 283 283 284 285 286 287 285
291 289 288 287 287 288 289 290 293 297 299 299 299 294 292 294 297 306 314 318 315 313 300 295 292 293 293 293 293 290 288 287 284 283 282 281 281 281 282 282 282 282 282
289 287 286 286 285 286 286 287 288 291 292 291 291 289 288 287 286 287 291 294 293 293 287 286 285 284 284 284 284 284 284 283 283 282 281 280 280 280 281 280 280 279 279
287 286 285 285 284 285 285 286 285 286 288 289 289 287 285 285 284 283 283 283 283 283 282 282 283 283 283 283 283 283 282 282 281 280 279 279 279 278 278 278 277 277 277
286 285 285 284 284 283 284 284 285 285 285 285 285 285 284 284 283 282 282 282 282 282 283 282 281 281 280 280 280 280 280 280 279 278 278 277 276 276 275 275 275 275 276
284 283 283 283 283 282 283 283 282 282 284 284 284 284 284 284 283 284 283 283 282 282 281 281 280 279 278 278 278 277 277 277 277 277 276 275 275 275 274 273 273 273 273
283 282 282 281 281 281 281 280 280 280 279 279 281 282 282 282 282 281 281 280 280 280 279 279 278 278 277 277 276 275 275 275 275 274 274 274 273 272 272 271 271 271 271
280 280 280 280 280 279 279 280 279 278 278 277 276 277 278 278 278 278 279 281 277 277 276 276 276 275 275 275 274 273 273 273 273 272 271 271 271 270 270 270 269 269 270
279 279 279 278 278 278 277 277 276 276 275 275 276 276 276 276 276 276 276 275 274 274 274 273 273 273 273 273 273 272 272 271 271 270 269 269 269 269 269 268 268 268 268
278 278 278 277 277 276 276 275 275 274 274 273 272 272 274 275 272 272 272 272 272 271 271 271 271 271 271 271 271 270 270 269 269 268 268 268 268 268 268 268 267 267 267
277 276 276 276 275 275 274 273 273 273 272 271 271 271 271 270 269 269 269 270 270 270 269 269 269 269 269 269 269 268 268 267 267 267 267 266 267 267 267 266 266 266 266
275 275 275 274 274 273 273 272 272 271 271 270 269 269 270 269 268 267 267 268 268 268 268 268 267 267 267 267 267 267 267 266 266 266 266 265 266 266 266 266 266 266 266
274 273 273 272 272 272 271 271 270 270 269 269 268 268 267 267 267 266 266 266 266 266 266 265 265 265 265 265 265 265 265 264 264 264 264 264 264 265 265 265 265 265 265
272 271 271 271 271 270 270 270 269 269 268 268 267 267 266 265 265 265 265 265 265 264 264 264 263 263 263 263 263 263 263 263 263 263 263 263 263 263 264 264 264 264 264
271 270 270 269 269 269 268 268 268 268 267 267 267 266 266 265 265 264 264 264 264 264 263 263 263 263 263 263 262 262 262 262 262 262 262 262 262 263 263 263 263 264 264
268 268 268 268 268 268 267 267 266 266 266 266 265 265 265 264 264 263 263 263 263 262 262 262 262 262 262 261 261 261 261 261 261 261 262 262 262 262 263 263 263 264 264

GFSGL_925_thetae_087.txt.gz
Theta_e
323 323 323 323 323 322 322 322 322 322 321 319 318 319 318 320 320 320 320 320 320 319 319 319 319 318 319 319 319 318 319 318 318 318 318 318 318 317 317 318 318 317 317
322 322 322 323 322 322 322 322 322 322 321 321 320 319 319 319 319 319 320 320 320 320 320 320 319 319 319 319 318 318 318 317 317 317 318 317 317 317 317 318 318 318 318
322 322 322 322 323 322 322 322 322 322 322 321 321 319 318 318 318 319 319 319 320 320 320 320 320 319 319 318 318 318 317 317 317 317 317 317 317 317 318 318 318 318 318
323 322 322 322 322 322 321 321 322 322 322 322 321 321 320 319 318 317 317 318 318 318 318 318 318 318 318 318 317 317 317 316 317 317 317 317 317 317 317 316 316 317 316
322 323 323 322 322 322 322 322 322 322 322 322 322 321 320 320 319 319 317 316 316 317 317 317 317 317 317 317 317 316 316 316 316 317 316 317 317 316 315 316 314 315 316
312 315 320 322 322 322 322 322 323 323 323 322 322 322 321 320 319 320 320 318 317 317 316 316 315 315 315 315 315 315 315 315 315 316 316 316 316 316 316 315 316 314 310
303 304 305 307 310 312 316 321 322 322 321 322 322 322 321 321 321 320 319 318 317 317 317 317 316 315 315 314 315 315 315 316 316 315 315 315 315 316 316 315 315 315 313
298 297 299 300 302 304 306 307 310 314 320 322 322 321 321 322 321 321 321 320 317 317 317 316 316 316 315 315 314 313 314 315 315 315 313 314 315 315 316 317 315 311 300
295 294 294 294 296 298 298 298 301 303 307 313 320 322 322 322 322 322 321 319 317 317 318 318 317 317 317 316 315 313 313 311 312 310 309 306 307 309 310 310 306 298 291
292 291 290 290 291 292 292 294 296 298 300 303 307 314 315 311 310 316 318 319 317 317 318 318 319 318 318 317 316 313 311 304 302 294 293 291 291 294 295 298 299 297 288
289 288 288 288 288 288 289 291 292 294 296 296 297 296 295 293 296 300 306 313 316 318 317 316 312 315 318 317 315 314 311 295 288 287 286 285 285 286 287 288 288 289 284
288 286 286 285 286 286 286 287 289 291 291 291 290 289 289 289 287 289 296 301 305 302 293 292 291 294 293 294 296 299 294 287 285 283 282 281 281 281 281 282 283 282 281
287 285 285 284 285 285 285 285 286 287 288 288 287 286 285 285 285 284 284 288 290 287 285 284 283 283 284 285 284 283 283 282 282 281 280 279 279 279 280 279 279 279 279
286 285 284 284 283 283 284 285 285 285 285 285 285 284 284 283 283 283 283 283 284 284 283 282 282 282 282 283 284 284 283 283 281 279 278 278 278 278 278 278 278 277 277
284 284 284 283 283 282 281 281 282 283 284 284 284 284 284 284 284 283 283 282 282 281 281 281 280 279 279 278 278 278 278 278 278 277 277 276 275 275 275 275 275 275 275
283 282 281 281 281 281 281 280 279 279 280 281 282 282 282 282 282 281 281 280 280 280 279 278 278 277 277 276 276 276 276 276 275 275 275 274 274 273 273 273 273 273 272
281 281 280 279 279 279 279 278 277 277 277 278 279 280 280 280 280 279 280 280 278 278 276 276 276 275 275 275 274 274 274 274 274 274 273 273 272 272 271 270 270 271 271
278 278 278 278 277 277 276 276 275 274 275 274 274 275 277 277 277 277 278 281 276 275 274 274 274 273 273 273 273 273 273 272 271 271 271 270 270 270 269 269 269 269 270
278 277 277 277 276 276 276 275 274 273 272 272 274 275 274 274 275 274 275 273 272 272 272 272 272 272 272 272 272 271 270 270 270 269 269 269 269 269 268 268 268 268 268
277 277 276 276 275 275 274 273 272 271 271 270 270 270 273 276 273 272 272 271 271 270 270 270 270 271 270 270 270 270 269 268 268 268 268 268 268 268 267 267 267 267 266
276 275 275 275 274 273 273 272 271 271 269 268 268 269 270 270 268 268 269 269 269 269 269 269 269 269 269 269 269 268 267 267 267 266 266 266 267 266 266 266 266 266 266
275 274 274 273 273 272 271 271 270 269 269 268 268 268 268 267 267 267 266 266 266 267 267 267 267 267 267 267 267 266 266 265 265 265 265 265 265 265 265 265 265 265 265
273 273 272 272 271 271 270 270 269 268 267 267 267 266 266 266 265 265 265 265 265 264 264 264 265 265 265 265 265 264 264 264 263 263 263 264 264 264 264 265 265 265 265
272 271 271 270 270 269 269 268 268 268 267 267 266 265 265 265 265 265 264 264 264 264 263 263 263 263 263 263 263 263 263 262 262 263 263 263 263 263 264 264 264 264 264
270 270 269 269 269 268 268 267 267 267 266 266 266 265 264 264 264 263 263 263 263 263 263 262 262 262 262 262 262 262 261 261 261 262 262 262 263 263 263 263 263 264 264
268 268 268 268 267 267 267 266 266 266 265 265 264 264 264 263 263 263 262 262 262 262 262 261 261 261 261 261 261 261 260 260 261 261 262 262 262 262 262 263 263 263 264

GFSGL_925_thetae_090.txt.gz
Theta_e
320 320 320 321 322 323 322 322 322 321 321 321 321 321 319 319 320 321 321 321 320 320 319 319 319 317 316 316 316 316 317 317 317 317 317 318 318 317 317 317 317 317 317
321 320 320 320 321 322 322 322 322 322 321 320 320 320 320 320 318 319 320 319 319 320 320 320 319 318 317 317 317 317 317 317 317 317 317 317 317 316 316 316 317 317 317
321 320 320 321 322 322 321 320 321 321 321 321 321 319 319 318 319 318 319 319 320 319 319 319 319 319 318 318 318 318 318 318 317 317 317 317 317 316 317 317 317 316 317
322 322 321 322 322 322 322 320 320 320 321 321 321 321 320 319 319 318 318 318 319 319 319 319 319 319 319 318 318 318 318 317 317 317 316 316 316 316 316 316 316 316 316
322 322 321 322 322 322 322 322 321 320 320 321 321 321 321 320 320 319 318 318 318 318 318 318 318 318 319 318 318 318 317 316 316 316 316 316 316 316 315 316 314 315 315
309 309 311 314 320 320 322 321 321 321 321 321 321 321 321 321 320 320 319 318 317 317 316 316 316 317 317 317 317 317 317 316 315 316 315 315 316 316 316 315 315 315 314
300 300 302 304 305 307 310 315 315 316 321 322 322 321 321 321 321 320 320 319 318 317 317 317 316 316 316 316 316 316 316 316 316 316 315 315 315 315 315 315 315 315 315
294 294 294 297 298 300 302 302 304 307 310 311 314 318 320 321 320 321 321 320 318 318 318 317 317 317 317 316 315 314 314 315 316 315 313 313 314 315 314 314 314 314 312
291 290 290 291 292 294 295 296 298 300 302 303 303 305 307 309 304 307 314 316 317 317 318 318 317 317 317 317 316 314 313 313 312 313 309 308 307 309 312 310 307 306 295
289 288 288 289 289 289 289 291 293 295 296 296 295 294 294 294 294 299 303 307 311 315 316 316 316 313 314 315 315 314 313 312 308 299 295 290 291 292 294 294 297 303 297
287 287 287 287 287 287 287 287 289 291 291 291 289 289 289 288 288 291 296 301 304 302 297 293 292 293 300 305 307 306 305 301 291 289 284 282 283 284 285 286 290 291 286
286 285 285 285 286 286 286 286 287 288 288 287 286 285 285 285 284 285 288 290 293 291 286 285 285 285 289 293 292 290 292 290 286 283 282 281 280 280 280 281 281 281 280
285 284 283 282 283 284 284 285 285 285 285 285 284 283 283 283 284 284 283 283 283 283 282 281 281 281 281 281 281 283 283 282 281 279 278 278 277 278 278 278 277 278 277
284 283 283 282 281 281 282 282 283 284 284 284 283 283 283 283 282 283 283 282 282 282 281 280 280 280 279 279 279 278 278 278 277 277 276 276 278 278 277 278 277 276 275
283 283 282 281 281 280 280 280 281 281 282 282 282 282 282 282 282 281 281 281 281 280 281 280 278 277 277 276 276 276 277 277 276 276 275 275 274 274 274 275 275 274 273
282 280 280 280 279 279 279 278 278 279 280 280 281 280 280 280 280 280 280 279 279 279 278 276 275 275 275 275 274 274 275 275 274 274 274 273 273 272 272 272 272 272 272
279 279 279 279 278 277 277 276 275 275 276 277 278 278 279 279 279 278 277 278 278 278 274 274 273 273 273 273 272 272 272 272 273 272 272 272 271 271 271 271 271 271 271
278 278 277 277 276 276 275 274 274 273 272 272 273 274 275 276 275 275 275 279 275 273 272 272 271 271 271 271 271 271 271 271 270 270 270 270 269 269 269 269 269 269 270
277 276 276 276 275 275 274 274 273 272 271 270 272 273 272 272 272 273 274 272 270 270 270 270 271 271 270 270 270 270 269 269 269 269 268 268 268 268 268 268 267 267 268
275 275 275 275 274 274 273 272 271 270 270 269 269 269 271 273 271 270 270 270 270 269 269 269 269 269 269 269 269 268 268 268 267 267 267 267 267 267 267 267 266 266 266
275 275 274 274 273 272 271 270 269 268 267 267 267 268 269 269 267 267 267 267 267 267 268 268 268 268 268 267 267 267 267 266 266 266 266 266 266 266 266 266 266 266 265
274 274 273 272 271 271 270 269 269 268 267 266 266 266 267 267 266 265 265 265 265 265 266 266 266 266 266 266 265 266 265 265 265 265 265 265 265 265 265 265 265 265 265
272 272 271 271 270 270 269 268 267 267 266 266 266 265 265 265 265 264 264 264 264 264 264 264 264 264 264 264 264 263 264 263 263 263 263 264 264 264 264 265 264 264 264
271 271 270 269 269 268 268 267 267 266 266 265 265 265 264 264 264 264 263 263 263 263 263 263 263 263 263 262 263 262 262 262 262 262 262 263 263 263 264 264 264 264 264
269 269 269 268 268 267 267 266 266 266 266 265 265 264 264 263 263 263 263 262 262 262 262 262 262 262 261 261 261 261 261 260 261 261 262 262 262 262 263 263 263 264 264
268 267 267 267 266 266 266 265 265 265 264 264 264 263 263 263 262 262 261 261 261 261 261 261 261 261 261 260 260 260 260 260 260 260 261 261 261 262 262 262 263 263 263

GFSGL_925_thetae_093.txt.gz
Theta_e
322 321 323 321 320 321 321 321 321 320 320 321 321 322 321 319 318 316 317 315 315 314 317 317 317 317 317 316 317 317 316 317 317 317 317 317 316 317 317 318 317 317 317
322 321 321 321 320 321 322 320 320 321 320 321 321 321 321 321 321 321 320 319 319 317 317 319 319 318 318 318 318 317 317 317 316 316 317 317 318 317 317 317 317 317 317
321 320 320 320 320 321 323 321 321 321 321 320 320 320 320 320 320 319 320 320 320 320 320 320 320 321 320 320 319 318 318 317 317 317 318 318 318 318 318 317 317 316 317
321 321 320 320 320 322 323 321 320 320 320 321 321 320 320 319 319 319 319 319 319 319 319 320 320 320 320 321 320 320 320 320 319 318 318 318 319 319 319 318 318 318 317
320 320 321 321 321 322 322 322 321 320 321 321 321 320 320 320 319 319 319 319 319 319 319 318 319 319 319 319 320 320 320 320 319 319 319 319 319 319 319 318 318 317 317
303 305 308 314 316 316 318 321 321 321 321 320 320 321 322 321 320 320 319 319 319 319 319 319 319 318 318 318 318 319 319 320 319 319 318 317 317 317 317 317 317 317 317
294 296 299 301 303 304 307 310 312 314 316 317 318 320 320 318 317 319 319 320 318 318 318 318 318 318 318 317 317 317 318 318 318 318 317 316 316 316 316 316 316 316 316
292 292 293 294 296 297 298 299 301 303 305 305 306 307 304 302 302 308 315 318 317 317 318 318 317 317 317 316 316 316 315 316 316 316 314 314 315 314 315 315 315 315 315
290 290 291 291 292 293 294 294 295 298 298 295 295 296 294 294 297 301 305 311 312 313 315 315 312 313 313 316 315 315 314 314 312 312 306 302 299 299 302 307 304 305 309
288 289 289 289 289 290 290 291 293 294 293 290 288 288 288 288 290 295 299 301 302 302 302 297 294 296 298 303 307 307 308 308 305 298 295 291 292 292 293 294 293 296 296
287 287 287 288 288 288 288 288 290 290 290 288 286 285 285 285 285 286 293 294 291 290 287 285 285 286 291 296 299 300 298 293 290 290 287 285 284 283 282 284 285 287 285
286 284 284 285 285 286 286 287 287 287 287 286 286 286 284 284 283 284 285 286 287 284 282 282 282 281 281 283 284 285 286 286 283 281 279 279 279 278 279 280 280 280 279
285 283 283 283 283 284 284 285 285 285 285 285 285 284 284 283 283 283 281 281 282 281 281 280 280 280 281 281 282 283 283 281 279 278 278 278 278 278 279 278 278 278 279
284 284 283 282 282 282 282 282 283 283 283 284 284 284 283 283 283 282 282 282 281 281 280 280 279 279 278 279 279 279 279 279 279 279 279 278 278 277 278 278 278 277 276
283 282 282 281 281 280 280 280 281 281 281 282 282 282 282 282 281 281 281 281 280 279 280 280 280 280 279 279 278 277 278 278 278 278 278 278 277 277 276 276 276 276 275
282 281 280 280 280 280 279 278 278 278 279 279 279 280 280 279 279 279 278 278 279 278 279 279 278 278 277 277 277 277 276 276 276 276 276 276 275 275 275 274 274 274 274
279 279 279 279 278 278 277 278 277 275 274 275 276 277 277 278 277 277 276 277 278 277 277 276 276 276 275 275 275 274 274 273 273 273 274 274 273 273 274 273 273 273 272
277 277 276 276 276 275 275 275 275 275 275 273 272 273 274 274 274 277 277 278 275 274 274 274 274 274 274 273 272 272 272 272 271 271 271 271 272 272 272 272 272 272 272
277 276 276 275 275 274 274 273 273 273 273 272 273 272 272 271 273 275 275 273 273 272 272 272 272 272 271 271 270 270 270 269 269 270 270 270 270 270 270 270 269 269 270
275 275 275 274 274 274 273 273 272 272 271 270 270 269 270 272 270 269 268 269 269 269 269 269 269 269 269 269 268 269 268 268 268 268 268 268 268 268 268 268 269 269 269
274 273 274 273 273 272 272 271 271 270 269 268 267 266 268 268 267 267 267 266 266 267 267 267 266 266 267 266 266 266 266 266 266 266 267 267 267 267 267 267 268 268 268
273 273 272 272 271 271 270 270 269 268 268 267 267 266 266 266 266 265 265 264 264 264 264 265 264 264 264 264 264 264 264 264 264 264 265 265 266 266 266 266 266 267 267
272 271 271 270 269 269 269 268 267 267 266 266 266 265 265 264 264 264 263 263 263 263 263 263 263 263 263 263 263 263 262 262 262 263 263 264 265 265 266 266 266 266 266
270 270 269 268 268 267 267 267 266 266 265 265 264 264 263 263 263 262 263 263 263 263 263 263 262 262 262 262 261 261 261 262 262 263 263 263 264 264 264 265 265 264 265
268 268 267 267 267 266 266 266 265 265 264 264 263 263 262 262 262 262 262 262 262 262 262 262 261 261 261 261 261 261 261 260 261 262 262 262 263 263 263 263 263 264 264
267 267 266 266 266 265 265 264 264 264 263 263 263 262 262 262 261 261 261 261 261 261 261 261 261 261 261 260 260 260 260 260 260 261 262 261 261 261 262 262 262 263 264

GFSGL_925_thetae_096.txt.gz
Theta_e
325 324 323 323 323 324 325 324 323 322 322 322 321 320 319 318 318 316 314 314 315 315 315 317 318 318 318 319 320 319 318 318 318 318 318 318 318 319 319 318 317 316 316
323 323 323 322 322 323 324 324 323 321 321 321 321 321 320 319 318 315 313 314 315 316 317 316 315 317 318 316 316 317 317 317 317 318 317 318 319 319 318 318 318 319 319
324 324 323 322 322 323 322 325 324 324 324 323 324 322 321 320 319 317 317 317 318 318 318 315 315 317 318 318 317 317 317 317 318 320 321 320 320 319 319 320 320 320 320
322 323 322 321 321 322 324 324 323 323 324 324 324 324 324 323 323 323 323 323 322 320 318 316 317 318 318 320 320 321 322 322 322 322 321 321 321 321 321 321 322 321 321
317 317 320 321 322 322 324 324 322 320 321 322 322 322 322 323 322 322 322 321 320 320 320 320 320 321 321 322 322 322 322 323 323 323 322 322 322 322 322 322 322 322 322
301 300 302 306 315 316 320 322 323 322 322 322 322 322 322 319 320 320 321 321 321 321 321 321 321 320 320 320 320 319 320 321 322 322 322 321 321 321 321 322 321 320 319
296 296 297 298 299 302 305 309 310 310 313 315 315 316 313 306 308 316 319 319 320 321 321 321 321 321 321 321 320 319 319 319 319 319 320 321 320 320 319 319 319 319 319
293 293 294 295 295 297 297 299 301 302 301 300 299 298 298 297 301 305 311 315 315 315 314 314 315 315 315 316 317 317 317 318 317 315 314 312 312 312 312 312 310 308 310
291 291 293 292 293 294 295 296 297 296 293 291 291 291 291 291 295 301 305 307 305 303 300 299 301 301 301 305 308 309 312 312 306 308 305 298 295 296 298 301 302 301 304
289 290 291 290 292 292 293 295 294 292 291 289 288 287 288 287 290 295 297 297 295 292 290 290 291 292 296 299 301 302 302 297 296 293 292 291 290 289 291 292 291 291 296
287 288 288 288 289 290 290 291 292 292 291 290 289 288 287 286 285 288 290 291 288 286 285 284 283 285 288 291 292 291 288 287 286 286 284 283 283 283 283 284 284 285 284
286 286 286 286 287 288 288 289 290 290 290 289 289 288 286 286 283 283 283 285 286 285 284 283 282 282 282 283 284 284 286 285 284 282 281 280 280 280 280 280 280 279 279
286 286 286 285 285 286 286 287 287 287 287 287 287 287 286 285 285 283 282 281 282 282 282 281 281 282 283 282 282 283 283 283 283 282 282 281 281 281 282 282 281 280 279
285 285 284 283 284 284 284 284 285 286 286 286 286 286 285 284 284 284 284 284 283 283 283 282 282 282 281 281 282 281 281 281 282 282 282 282 281 281 281 281 281 282 281
285 284 284 283 282 281 280 281 281 280 282 284 283 283 283 282 281 280 282 282 282 282 283 283 283 282 282 282 281 280 280 281 281 281 281 281 281 281 280 280 280 279 279
285 284 284 284 283 282 281 279 277 278 279 279 280 281 280 279 279 279 279 279 281 282 282 282 281 281 281 280 280 280 279 278 279 279 279 279 278 278 278 278 278 278 278
283 283 283 283 283 282 282 283 280 277 275 275 277 277 277 277 277 278 278 278 280 281 281 280 280 279 279 279 278 278 277 276 276 276 277 277 277 277 277 277 277 277 276
280 280 281 281 281 281 280 280 280 281 279 277 273 274 274 275 275 276 278 280 279 278 278 278 278 277 277 276 276 275 275 275 275 275 275 275 275 276 275 275 275 275 275
280 280 280 279 278 279 279 279 279 279 278 278 278 276 274 274 274 274 275 277 277 276 275 275 275 275 274 274 274 273 273 272 273 273 273 273 273 274 273 274 273 272 273
278 277 279 279 279 279 279 278 278 277 277 276 274 273 275 275 274 273 273 273 273 273 273 273 272 272 272 272 272 272 272 272 272 272 272 272 272 272 272 272 272 273 272
278 277 277 278 278 277 277 277 276 275 275 273 270 268 269 272 272 271 271 270 271 271 271 271 271 270 270 270 270 270 270 270 270 270 270 271 270 271 271 271 271 271 271
277 277 277 276 276 275 275 274 274 273 273 272 271 269 269 271 270 270 269 269 268 268 269 269 268 267 267 267 268 268 268 268 268 268 269 269 270 270 270 270 270 271 271
275 275 275 274 273 273 273 273 272 272 271 271 270 270 269 269 269 268 268 267 267 266 266 267 266 266 266 265 265 266 266 266 265 264 266 268 269 269 270 270 270 270 269
274 274 273 272 272 272 272 271 270 269 270 270 269 269 268 268 267 266 266 265 266 265 265 264 264 263 263 264 264 264 263 262 263 264 263 265 267 268 268 268 269 268 268
272 272 272 271 271 271 271 270 270 269 269 269 268 268 267 267 266 266 265 264 263 264 263 263 262 263 262 261 261 261 261 261 261 262 263 264 265 264 266 267 266 268 267
270 270 270 270 270 269 269 269 268 268 268 267 267 266 266 266 265 265 264 263 263 263 262 263 262 261 261 263 261 260 260 260 260 260 261 263 264 265 266 266 266 266 268

GFSGL_925_thetae_099.txt.gz
Theta_e
328 327 328 329 327 326 327 327 326 326 324 323 322 321 320 320 320 320 319 318 318 319 317 319 319 319 321 321 321 320 320 320 321 320 319 320 319 320 319 320 319 319 320
326 326 325 326 326 326 326 326 325 326 325 324 321 321 320 319 319 318 318 315 315 315 316 316 315 316 318 320 321 321 321 321 320 321 319 317 317 315 316 317 317 319 320
326 325 324 324 324 325 326 326 325 324 324 325 324 321 319 319 318 317 318 318 317 316 316 317 318 318 317 318 318 318 319 319 319 318 318 317 318 319 321 321 322 321 321
324 325 325 324 324 323 324 326 325 324 325 324 325 324 322 321 319 317 317 317 318 319 319 320 320 319 317 317 316 317 319 319 318 318 319 321 321 322 323 323 323 323 323
309 313 319 323 323 323 323 326 325 325 325 325 325 325 325 325 319 320 320 320 322 321 321 321 320 319 317 316 317 317 318 320 322 321 322 323 324 324 324 323 323 323 323
299 300 303 310 313 315 318 321 322 322 323 322 323 322 321 315 317 321 322 323 323 322 322 322 321 320 320 319 320 320 320 322 322 322 322 323 323 323 323 324 323 323 322
296 296 297 299 301 303 306 310 310 312 313 311 311 311 308 306 310 318 321 321 321 321 318 320 319 318 320 319 320 320 320 320 320 318 317 318 318 316 315 315 318 318 318
292 293 294 295 296 298 299 299 299 299 299 298 297 296 296 297 302 308 312 313 311 310 309 309 310 311 312 314 316 316 313 313 313 311 307 303 302 303 303 304 303 303 305
291 290 291 292 293 295 295 294 293 293 291 291 291 291 291 292 296 301 303 304 300 296 295 295 296 297 298 301 305 306 303 298 294 296 293 291 292 294 297 299 297 295 299
289 289 290 291 292 292 292 292 291 292 290 290 289 289 288 288 291 295 297 295 291 289 288 288 287 288 291 296 298 298 294 288 290 290 289 289 289 289 289 289 288 289 290
288 288 289 289 290 291 291 292 292 292 291 290 289 288 286 286 285 287 290 290 288 286 285 284 284 284 286 288 290 289 286 286 285 285 284 284 283 283 283 283 283 283 285
288 287 288 288 289 290 290 289 291 291 290 290 289 288 287 285 283 283 285 286 286 286 285 284 283 283 283 284 284 284 285 284 284 283 283 283 283 283 282 282 282 281 281
287 285 285 287 285 286 287 288 288 289 289 288 288 287 286 286 285 284 283 283 283 283 283 283 283 283 283 283 284 284 285 285 285 285 284 283 283 282 282 283 283 283 282
286 286 284 283 283 283 283 282 283 286 286 286 286 285 284 283 283 285 284 284 284 284 283 283 283 283 282 282 282 282 282 283 283 283 283 283 283 282 282 282 283 283 283
287 286 285 284 282 280 279 281 281 280 282 283 282 282 282 281 281 281 283 283 283 284 284 284 284 284 283 283 282 281 281 282 282 282 282 282 282 282 281 281 281 282 281
286 286 285 286 285 284 281 278 278 279 279 279 280 280 279 280 280 281 281 282 283 283 283 283 282 282 282 282 281 281 280 280 280 281 281 280 280 280 280 280 280 280 279
284 285 284 284 284 284 284 284 281 277 276 277 277 277 278 278 279 280 280 281 282 282 282 281 281 281 281 280 280 279 279 278 278 278 279 279 279 279 279 279 279 279 278
282 282 283 283 283 282 282 282 282 282 281 279 276 276 276 277 277 279 281 281 281 280 280 279 279 279 278 278 277 277 276 277 277 277 277 277 277 277 277 277 275 276 277
281 282 282 281 281 281 282 281 281 281 280 280 279 278 277 276 276 277 278 279 278 278 277 277 277 277 276 276 276 276 275 275 275 275 275 275 275 276 275 275 276 275 275
280 279 281 281 281 281 281 281 280 280 279 277 275 275 277 278 277 276 276 276 276 276 275 275 275 274 274 274 274 274 275 274 274 274 274 274 274 274 275 274 274 274 274
280 280 280 280 280 280 280 279 279 278 278 275 272 271 273 275 275 274 273 273 273 273 273 273 272 272 272 272 273 272 272 272 271 272 272 272 273 273 273 273 274 274 273
279 279 279 278 278 277 278 277 277 276 276 275 274 272 273 274 273 272 272 271 271 271 271 271 271 270 269 270 270 270 270 269 269 269 270 271 272 273 272 273 272 273 273
278 278 277 277 276 276 276 276 276 275 275 274 273 273 272 272 271 271 270 270 269 269 268 268 268 268 267 268 268 268 267 267 267 267 266 269 270 270 271 272 272 271 271
276 276 275 275 274 275 275 275 273 272 273 273 273 272 271 271 270 270 269 268 268 268 267 267 266 265 264 265 265 265 263 262 263 264 264 267 268 269 269 270 270 271 270
275 275 274 274 274 274 274 273 273 272 272 272 272 271 271 270 269 269 268 267 266 267 266 266 265 264 264 264 263 262 262 262 261 262 262 265 267 266 268 268 269 268 270
273 273 273 273 273 272 272 272 272 271 271 270 270 270 269 269 268 268 267 266 265 265 265 265 265 263 263 265 263 262 262 261 262 262 262 263 266 266 267 267 268 268 268

GFSGL_925_thetae_102.txt.gz
Theta_e
329 329 330 333 331 329 328 328 327 326 324 323 323 322 322 323 323 323 323 323 323 323 322 323 320 321 318 319 320 321 321 321 320 320 320 320 320 321 321 321 321 321 321
329 329 329 330 328 328 328 328 327 327 324 323 322 322 321 321 322 321 321 321 322 321 321 321 321 321 321 321 321 320 319 321 321 320 320 321 320 319 318 317 316 317 319
327 327 328 326 327 327 327 327 326 326 324 323 323 321 320 319 320 320 320 320 321 320 320 318 318 319 318 318 319 320 321 321 321 321 319 319 319 319 318 317 318 318 318
325 326 325 325 325 325 326 326 326 326 326 325 323 322 321 320 319 319 319 319 318 317 317 317 317 316 317 316 317 317 319 319 320 320 319 319 318 318 318 319 320 320 321
301 307 310 321 324 325 325 326 325 324 323 323 324 322 321 320 318 318 318 318 318 318 318 318 318 318 320 319 318 319 317 316 316 318 318 318 319 320 320 322 323 323 323
296 297 299 304 309 316 321 323 324 323 323 322 319 319 314 312 315 319 319 318 318 319 321 321 321 320 320 319 318 317 316 317 317 317 319 321 321 322 319 319 319 319 318
293 294 295 297 298 300 303 305 311 314 314 310 305 307 304 303 308 314 318 318 319 319 319 320 319 317 319 319 319 317 317 315 317 316 314 315 310 311 310 311 309 310 310
292 292 293 293 295 294 295 294 294 297 298 297 296 296 298 298 303 309 312 314 313 309 307 307 307 306 308 311 311 307 306 304 304 304 302 297 296 299 300 301 300 300 300
290 290 291 292 292 292 292 292 291 291 291 291 291 291 293 295 299 300 304 301 297 294 294 295 296 297 297 302 302 300 293 291 291 292 292 292 293 294 297 298 296 295 297
289 289 290 291 291 292 292 291 292 291 290 288 288 289 289 290 294 294 296 294 290 289 289 288 289 291 294 297 298 296 290 287 289 288 287 287 288 288 289 290 289 289 289
287 288 288 289 290 291 291 291 291 290 290 288 287 285 286 286 288 290 292 292 289 287 285 285 285 285 288 290 291 289 286 285 285 285 284 284 284 284 284 284 285 286 285
286 287 286 286 286 287 289 289 289 289 288 288 287 287 285 284 284 285 286 286 286 285 284 284 284 284 284 285 285 285 285 285 285 284 284 283 283 283 283 283 283 282 282
285 283 282 283 283 284 284 285 287 287 287 287 286 285 284 285 285 284 284 284 284 283 283 283 283 283 283 284 284 284 284 284 284 284 283 283 282 282 283 283 283 284 281
286 284 282 281 280 281 281 281 282 284 283 284 284 282 282 283 284 284 285 285 284 284 284 284 283 283 282 282 282 282 282 283 283 283 283 283 282 282 281 282 282 283 282
286 286 284 283 280 279 279 279 280 280 282 281 280 281 281 282 282 283 284 284 284 284 283 283 283 283 282 282 281 280 280 281 281 281 281 281 280 281 280 280 280 280 279
286 285 285 286 284 280 279 278 279 279 279 279 280 280 280 281 282 282 283 283 283 282 282 282 282 281 281 281 280 279 278 279 279 279 279 279 279 279 279 279 280 279 279
283 284 284 284 284 284 284 280 278 278 278 278 278 279 279 280 281 281 281 281 281 281 281 280 280 279 278 278 278 277 277 277 277 277 277 277 278 278 277 276 276 277 278
282 282 282 282 282 282 282 282 282 281 279 278 278 277 278 278 279 280 281 279 279 278 278 278 278 278 277 277 276 276 275 276 276 276 276 276 276 276 276 276 275 275 276
281 282 282 281 281 282 281 281 281 280 279 277 277 278 278 278 277 277 277 277 277 277 276 276 275 276 275 275 275 275 275 275 275 274 274 274 275 275 275 275 274 275 275
280 280 281 281 281 281 281 281 280 279 276 274 273 274 276 276 275 275 275 275 275 275 274 274 273 273 273 274 273 273 273 273 273 273 273 273 273 274 274 274 274 274 273
280 280 280 280 280 280 279 279 279 278 275 273 272 274 275 275 274 273 273 272 273 273 272 272 271 271 271 271 271 271 271 270 270 270 271 272 272 273 273 273 273 273 273
279 279 279 278 277 277 278 278 277 277 276 275 274 273 274 273 273 272 271 271 270 270 270 270 270 269 269 269 269 269 269 268 268 267 269 270 271 271 272 272 272 271 271
278 278 278 277 277 277 276 275 275 276 275 274 274 273 272 271 271 270 270 270 269 268 268 267 267 267 268 267 267 267 266 265 265 265 266 267 268 269 269 270 271 271 270
276 276 276 275 275 275 276 275 273 273 274 273 273 272 271 271 270 269 268 268 268 267 267 266 266 265 265 265 265 264 263 263 263 264 265 266 267 267 267 268 269 269 269
275 275 275 275 274 275 275 274 273 273 273 272 272 271 271 270 270 269 268 267 266 266 266 266 265 264 264 264 263 263 263 262 263 263 264 265 266 267 267 268 268 268 268
273 273 273 273 273 273 273 273 272 272 271 271 271 270 270 269 268 268 267 266 265 266 266 265 265 264 263 264 263 263 262 262 262 263 263 264 264 265 265 265 265 266 267

GFSGL_925_thetae_105.txt.gz
Theta_e
333 334 333 334 334 332 329 329 329 327 324 323 323 322 322 323 323 323 323 323 323 323 323 323 324 323 323 321 321 318 316 319 320 321 320 321 321 321 321 321 321 321 321
322 329 329 331 332 330 329 329 328 326 324 322 323 323 322 323 323 323 324 324 324 324 324 324 323 323 322 322 320 318 318 320 320 319 320 320 320 320 320 321 321 321 320
308 327 328 330 328 328 328 328 327 326 324 323 323 322 322 322 323 323 323 323 322 323 323 323 323 323 321 320 320 319 319 320 320 320 319 320 320 320 319 319 319 317 316
299 305 314 325 327 328 328 327 328 327 325 323 322 321 320 321 322 322 321 322 322 322 322 322 322 322 321 320 321 320 319 320 320 320 320 319 318 318 318 318 317 318 318
296 297 300 307 320 325 326 326 326 326 325 323 322 320 320 319 319 319 320 319 320 320 320 320 320 320 320 319 319 319 317 317 317 318 318 318 319 318 317 318 319 320 322
294 295 296 298 304 308 313 320 319 322 323 323 319 317 318 316 317 318 318 318 319 318 318 318 318 317 317 317 317 317 317 317 317 315 315 315 316 318 319 318 316 316 315
292 292 294 295 295 296 298 303 300 300 303 305 304 304 303 307 313 317 318 317 317 317 316 316 316 316 316 315 316 317 316 316 315 315 315 316 309 308 307 310 309 309 308
292 291 290 293 293 293 293 292 294 292 292 292 294 295 298 299 306 310 313 312 309 305 304 304 305 305 307 307 310 308 305 304 305 306 306 301 299 300 301 300 300 300 298
288 289 290 290 291 292 291 291 290 291 289 288 289 291 291 292 298 302 306 301 296 293 293 295 297 298 301 301 304 300 295 291 292 294 293 293 292 295 298 298 296 295 293
287 287 288 289 289 290 290 289 289 289 288 288 287 288 289 290 291 292 295 293 290 288 288 290 293 295 297 298 296 294 289 288 289 290 290 289 288 287 291 291 291 291 290
285 285 286 287 288 288 289 289 289 288 288 287 286 286 286 287 289 291 290 289 288 287 286 286 287 289 293 293 293 291 288 287 286 285 285 284 284 284 284 284 286 287 285
283 283 284 284 285 286 287 287 287 287 286 285 285 285 284 284 285 286 288 286 285 285 284 284 285 285 286 286 286 285 285 285 284 283 283 283 283 283 283 283 281 280 282
283 282 281 282 282 283 284 284 284 284 284 283 283 283 284 285 284 284 284 285 284 284 283 284 284 284 284 284 284 284 284 283 283 283 283 282 282 283 283 283 283 280 279
284 282 281 280 280 280 281 281 282 282 282 282 282 282 283 284 284 285 285 284 284 284 283 282 282 282 282 282 282 282 283 283 283 282 282 282 281 281 281 281 281 280 279
285 285 282 280 279 279 279 280 280 280 280 281 281 282 282 283 284 284 284 284 284 283 283 282 281 281 280 279 279 280 280 280 280 280 280 280 280 280 280 279 279 278 277
284 284 284 283 281 279 279 279 279 280 280 280 281 281 282 282 283 283 283 282 282 282 281 280 279 279 278 278 278 278 278 278 278 279 279 278 278 278 278 278 278 277 277
282 282 282 283 283 283 280 278 278 278 279 279 280 280 281 282 282 281 281 280 280 280 278 278 277 277 277 276 276 276 276 276 276 276 277 277 277 276 275 275 276 276 276
282 281 282 282 282 282 282 281 279 278 278 278 278 279 279 279 279 279 278 279 278 277 277 276 276 276 276 275 275 275 275 275 275 275 275 275 275 275 275 275 274 275 275
281 282 281 281 281 281 281 280 278 277 276 276 277 277 277 276 276 277 276 276 275 275 274 274 274 274 274 274 274 274 274 273 273 273 273 274 274 274 274 274 274 274 273
280 280 280 280 280 280 280 279 277 275 273 274 275 275 274 275 274 274 274 274 273 273 273 272 272 272 272 272 272 272 272 272 272 272 272 273 273 273 273 273 273 273 272
280 279 279 279 279 279 278 278 276 275 273 274 274 274 274 273 272 272 272 271 271 271 270 270 270 270 270 270 270 270 270 269 269 270 270 271 271 271 272 272 272 272 271
278 278 278 277 277 277 277 276 276 275 274 273 273 273 272 272 271 270 270 269 269 269 269 269 269 268 268 268 268 268 268 267 267 267 268 269 269 269 271 270 271 270 270
277 276 276 276 277 276 275 275 275 274 274 273 272 272 271 270 270 269 269 268 268 267 267 267 267 267 267 266 266 266 266 265 266 266 267 267 267 267 268 269 269 269 269
275 275 275 275 274 274 275 274 273 273 273 272 272 271 270 270 269 268 268 267 267 266 266 266 266 265 264 265 264 264 264 264 264 265 266 266 266 267 267 268 268 268 268
273 274 274 274 274 274 273 273 273 272 272 271 271 270 270 269 268 268 267 266 266 266 265 265 265 264 264 264 264 264 264 263 264 264 264 265 265 265 266 266 266 267 267
272 272 272 272 272 272 271 271 271 271 270 270 270 269 269 268 267 267 266 266 265 265 265 264 264 264 263 263 263 263 262 263 263 264 264 264 264 264 264 264 265 265 265

GFSGL_925_thetae_108.txt.gz
Theta_e
304 320 331 333 332 333 332 331 330 329 329 327 325 323 322 322 321 322 323 324 324 324 324 323 323 322 321 322 321 318 320 321 320 320 320 321 321 321 321 321 321 321 320
301 311 327 329 331 330 330 329 328 328 327 326 324 323 322 320 321 322 322 324 324 324 324 323 323 322 321 321 320 319 319 318 317 319 320 320 320 320 320 320 320 320 320
299 302 310 318 327 329 328 327 327 327 326 324 323 322 322 321 322 321 322 323 323 323 323 323 323 323 322 322 321 322 321 319 319 319 319 319 319 319 318 319 319 320 320
296 297 298 302 310 323 327 327 327 326 325 323 323 322 322 321 322 322 322 323 323 323 323 323 322 323 322 322 322 321 320 319 319 320 319 319 319 319 319 319 318 318 318
294 294 295 297 301 308 318 326 325 324 324 323 323 322 321 321 321 321 321 322 321 322 322 323 323 323 323 323 322 321 320 320 319 319 318 318 318 317 317 318 318 318 317
293 293 293 294 295 296 298 303 318 321 321 322 320 318 318 318 319 320 320 320 321 321 320 321 321 322 321 321 320 319 318 318 317 316 316 316 317 317 317 317 317 319 314
289 291 292 292 292 292 293 293 296 301 307 307 307 307 307 308 314 318 318 318 318 317 317 318 317 317 317 317 317 317 315 316 316 316 315 314 313 313 313 312 310 310 309
288 288 289 291 291 291 292 290 291 290 290 294 296 299 300 299 305 308 312 314 311 308 309 309 310 309 308 310 310 309 307 307 310 311 311 311 309 309 308 306 304 302 299
286 287 287 288 290 291 289 289 290 290 289 288 289 291 293 292 296 299 302 302 298 295 297 298 300 301 302 302 304 298 294 292 291 295 295 294 296 299 301 301 299 296 292
284 284 287 287 287 288 288 289 288 287 287 289 286 288 289 290 292 293 293 290 289 288 289 290 294 298 298 298 299 295 288 287 289 289 288 290 290 291 293 294 294 294 290
283 284 285 286 286 287 287 287 287 286 286 286 285 286 286 287 290 293 293 290 287 286 286 286 287 291 292 293 293 292 288 287 287 287 286 286 286 285 286 288 289 291 289
282 282 282 283 284 285 285 285 285 285 284 284 285 285 284 285 286 287 289 289 288 286 284 285 285 286 286 286 286 285 285 286 286 285 284 284 283 281 280 281 281 283 284
282 281 281 281 281 282 282 282 283 283 283 283 284 284 284 284 284 284 285 285 285 284 284 284 285 285 285 285 284 284 285 284 283 282 282 281 283 283 282 280 279 279 279
283 281 281 280 280 280 281 281 281 281 282 282 283 283 284 284 284 284 284 283 283 283 282 282 283 283 283 283 283 283 283 283 282 281 281 280 282 281 281 282 279 278 278
283 283 281 280 279 280 280 280 281 281 281 281 282 283 284 284 284 284 284 283 282 282 281 281 280 280 280 280 280 280 281 280 280 280 280 280 280 279 279 278 278 277 276
282 282 282 281 280 279 279 279 280 280 281 281 282 282 282 283 283 282 282 282 282 282 280 278 278 278 277 277 277 278 278 278 278 278 278 278 278 278 277 277 277 276 275
281 282 282 282 282 279 278 278 278 279 279 278 280 280 282 281 281 280 280 279 279 279 277 276 276 276 276 276 276 276 276 276 277 277 277 276 276 275 276 276 276 275 275
282 281 281 281 281 281 280 279 278 277 277 277 278 278 279 279 278 278 278 279 277 276 276 275 275 275 275 274 275 274 274 274 275 274 274 275 275 274 274 274 274 274 274
280 280 281 281 281 280 279 278 277 276 276 276 276 276 275 275 276 276 277 276 274 274 274 274 274 274 273 273 273 273 273 273 273 273 273 273 273 273 273 273 273 273 273
280 280 279 279 279 279 279 277 275 274 274 275 274 274 274 275 274 273 273 273 272 272 272 272 272 272 272 272 272 272 272 272 271 272 272 272 273 273 272 272 272 272 271
279 278 277 277 278 278 278 276 274 274 274 273 273 272 272 272 271 271 271 271 270 270 270 270 270 270 270 270 270 270 269 269 269 270 270 270 271 271 271 271 270 270 270
277 277 277 276 277 276 276 276 274 273 273 273 272 272 271 271 270 269 269 269 269 269 269 269 269 268 268 268 268 268 268 267 267 268 268 269 269 269 270 270 270 270 269
276 275 275 276 275 274 275 274 274 273 273 272 271 271 270 270 269 269 268 267 267 267 266 267 267 267 266 266 266 265 265 265 265 266 267 267 268 267 268 268 268 268 268
274 275 274 274 274 274 273 273 273 273 272 271 271 270 270 269 268 267 267 267 266 266 266 265 265 265 265 265 264 264 264 264 264 265 266 266 266 266 267 267 267 267 267
272 273 273 273 273 273 273 273 272 272 271 271 270 270 269 268 268 267 266 266 266 265 265 265 264 264 264 264 264 263 263 263 263 264 264 265 265 265 265 265 266 266 266
271 271 271 271 271 271 271 271 271 270 270 270 269 269 268 268 267 266 266 266 265 265 264 264 264 263 263 263 263 262 262 262 262 263 263 264 264 264 264 264 264 264 265

GFSGL_925_thetae_111.txt.gz
Theta_e
300 304 310 322 322 332 331 330 331 330 330 329 329 329 329 327 326 322 321 321 322 323 324 324 324 323 321 320 320 320 319 319 318 318 319 319 319 319 320 320 320 319 319
297 300 303 310 320 330 330 329 330 329 329 328 328 328 328 326 323 321 322 322 323 323 324 324 323 322 321 320 320 321 320 320 320 319 319 319 320 320 321 320 320 320 321
295 297 298 300 307 314 319 328 328 327 327 325 326 326 325 322 322 321 321 322 322 323 324 324 323 322 321 320 320 320 320 319 318 317 317 317 317 318 320 319 320 319 320
294 294 295 296 298 302 307 317 325 326 325 325 325 323 322 322 321 321 320 321 321 323 324 324 323 322 321 320 320 320 320 319 319 318 318 318 318 319 319 319 318 318 317
291 292 293 294 295 298 301 306 313 322 324 324 324 322 321 321 321 322 321 321 322 322 323 323 322 322 322 322 321 320 320 320 319 319 318 318 317 317 318 318 317 318 315
290 290 291 292 292 295 294 296 298 299 307 316 321 320 321 320 320 321 321 321 322 322 322 322 322 322 322 322 322 322 320 319 318 318 318 318 316 318 319 318 318 316 311
287 289 289 290 291 291 293 294 294 293 293 294 297 303 305 308 315 319 319 319 320 320 320 320 320 321 321 321 319 319 319 319 318 318 317 317 317 317 317 316 316 316 314
285 286 287 288 289 289 289 290 292 293 292 291 291 291 294 295 301 309 315 315 313 311 311 312 313 315 315 315 312 310 308 308 310 313 314 313 312 311 311 310 311 310 303
284 284 284 286 287 288 288 288 288 289 290 290 291 290 289 290 293 297 306 304 300 297 297 300 302 302 304 307 306 301 295 292 293 297 299 299 300 303 302 302 302 300 292
282 282 284 284 285 286 287 286 286 286 286 287 288 289 289 289 289 292 294 293 291 290 292 293 295 296 295 296 300 295 290 288 291 291 291 292 293 295 296 296 295 295 290
282 282 283 283 283 284 285 286 286 286 286 285 285 286 286 286 288 288 289 291 288 287 286 287 289 291 291 292 292 291 288 289 289 289 288 288 288 289 289 291 293 293 291
282 281 281 282 282 283 283 284 284 284 285 285 285 284 284 284 285 285 286 286 286 285 285 285 285 288 289 289 287 286 287 287 287 286 284 282 281 281 282 284 285 286 286
282 281 281 281 281 281 282 282 282 283 283 284 284 284 284 284 284 284 284 285 285 283 282 283 285 285 286 285 284 286 287 285 283 283 282 282 279 279 279 280 280 281 282
283 281 280 280 280 280 281 281 282 282 282 282 283 284 284 284 284 283 283 283 283 283 284 283 283 283 283 283 283 283 282 282 281 280 280 280 282 282 279 279 278 278 278
282 282 281 280 279 279 280 280 281 281 282 282 283 283 283 283 283 283 283 282 282 281 282 282 281 280 279 279 280 280 280 280 279 279 280 279 279 279 278 278 277 277 275
281 281 281 280 279 279 279 279 279 279 280 281 282 282 282 282 282 281 281 281 282 282 280 278 277 277 277 277 277 277 278 278 278 279 278 278 277 277 277 276 276 276 275
280 281 281 281 280 279 278 278 278 278 278 277 279 280 280 280 280 279 278 279 279 279 277 276 275 275 275 275 275 275 275 275 276 277 276 276 276 276 276 276 275 275 274
280 280 281 280 280 280 279 278 277 277 277 277 277 277 277 277 277 277 278 279 277 275 275 274 274 274 274 274 274 274 274 275 275 274 274 274 275 274 274 274 274 274 274
280 279 280 280 279 279 278 277 275 275 275 275 275 275 275 274 275 276 276 275 273 273 273 273 273 273 273 273 272 272 272 272 273 273 273 273 273 273 273 273 273 272 272
279 278 277 278 278 278 277 275 274 274 274 273 273 272 273 274 273 272 272 272 272 271 271 271 271 271 271 271 271 271 271 271 271 271 272 272 272 272 272 272 272 271 270
278 278 277 277 277 277 277 275 274 274 273 272 272 271 271 271 270 270 270 270 270 270 270 270 270 270 269 269 269 269 269 269 269 270 270 270 271 271 270 270 270 270 269
276 276 276 276 276 276 276 274 273 273 273 272 271 271 270 270 269 268 268 268 268 268 268 268 268 268 267 267 267 267 267 267 267 268 268 269 269 269 270 270 269 269 269
275 275 275 275 274 274 275 274 273 273 272 271 271 270 269 269 268 268 267 267 266 266 266 266 266 266 266 265 265 265 265 265 265 266 267 267 267 267 268 268 268 268 268
273 273 274 274 274 273 273 273 273 272 272 271 270 270 269 268 268 267 267 266 266 265 265 265 264 264 264 264 264 264 263 264 264 264 265 266 266 266 266 267 267 267 267
271 272 272 272 272 272 272 272 272 271 271 270 270 269 269 268 267 267 266 266 265 265 264 264 264 263 263 263 263 263 262 262 263 264 264 264 265 265 265 265 265 265 266
270 270 270 270 270 270 270 271 271 270 270 270 269 269 268 268 267 266 266 265 265 265 264 264 263 263 263 262 262 262 262 261 262 263 263 263 264 264 264 264 264 264 264

GFSGL_925_thetae_114.txt.gz
Theta_e
297 299 302 305 313 319 319 330 330 330 330 330 330 329 327 329 328 328 327 327 326 324 324 324 323 323 324 322 320 320 320 320 319 318 320 317 319 319 320 321 321 320 320
295 296 298 301 305 311 319 321 330 330 329 329 328 327 326 326 327 327 326 325 323 322 321 322 323 323 322 320 320 320 319 319 318 317 318 318 318 318 319 319 319 319 319
292 294 295 296 298 300 306 313 322 326 328 327 325 326 325 325 325 326 325 323 321 321 321 323 323 323 322 321 320 319 319 318 318 319 319 319 319 319 319 320 320 320 319
291 292 293 293 294 295 299 304 312 319 321 325 325 325 325 324 324 325 324 322 321 321 322 322 323 323 322 321 320 320 319 319 319 319 318 318 318 317 318 318 319 319 318
289 290 291 291 292 293 294 297 302 308 311 315 321 323 324 323 322 322 322 321 320 321 321 321 323 323 323 321 320 320 319 319 319 318 318 318 317 318 318 318 318 317 313
288 288 289 290 290 290 291 292 294 298 301 301 303 308 305 309 313 321 321 321 320 321 321 322 322 323 322 321 320 320 319 319 319 319 319 318 318 318 317 318 317 313 307
286 286 287 288 289 289 289 289 290 291 294 296 296 297 294 294 301 314 314 321 321 320 320 321 321 322 321 321 320 320 320 320 320 319 319 318 318 317 318 317 317 316 314
283 284 284 286 287 287 287 287 288 288 289 290 291 292 296 293 293 299 303 309 314 313 313 315 316 318 318 318 319 315 313 312 313 316 317 317 317 316 317 317 317 313 303
281 282 282 283 284 286 286 286 286 287 287 287 287 288 289 291 293 294 296 294 293 294 298 302 304 306 306 309 310 305 301 299 295 299 303 307 309 310 307 310 308 304 292
280 281 282 282 283 284 285 286 285 286 286 285 286 286 286 286 290 292 293 292 290 289 289 291 293 295 296 298 301 298 292 289 292 292 293 293 297 297 299 301 301 299 291
281 281 282 282 282 283 284 285 285 285 285 285 285 284 284 285 285 287 289 288 287 286 286 286 286 289 291 292 293 292 288 288 288 289 288 289 289 291 293 294 295 297 293
281 281 281 281 282 282 283 283 284 284 284 284 284 284 284 284 283 284 286 286 285 283 283 283 284 284 285 285 287 286 287 287 286 284 283 281 281 283 283 286 289 289 290
281 280 280 280 280 280 281 282 282 282 282 283 283 284 283 283 284 284 284 284 284 282 282 283 285 285 284 284 285 286 286 285 284 281 280 279 279 279 280 281 282 283 283
282 281 280 280 279 280 280 280 281 282 282 282 282 282 283 283 282 283 283 284 284 283 283 283 282 281 282 283 282 282 281 281 280 279 279 279 279 279 279 278 278 279 279
281 281 280 279 279 279 279 279 279 280 281 281 281 281 282 282 281 281 281 281 282 282 282 282 281 280 279 279 279 280 280 280 279 279 279 279 278 277 277 277 277 277 277
280 280 280 280 279 278 278 278 278 278 279 279 280 280 280 280 280 280 279 280 281 281 280 277 276 276 276 276 277 277 278 278 278 278 278 278 278 277 276 276 276 275 275
279 279 280 280 279 278 278 277 277 278 277 276 276 278 278 278 278 278 277 278 278 279 276 275 274 274 274 274 274 275 274 275 276 276 277 276 276 276 276 275 275 275 275
279 279 279 279 279 278 277 275 275 275 275 274 274 275 275 275 275 276 277 278 276 274 273 273 273 273 273 273 273 273 273 274 274 274 274 274 275 274 274 274 274 274 274
278 277 277 278 278 277 276 275 275 274 274 273 273 273 273 274 274 275 275 274 272 272 272 272 272 272 272 272 272 272 273 273 273 273 273 273 273 273 272 272 272 272 272
277 277 276 277 277 277 275 275 274 273 273 272 271 271 272 273 272 271 271 271 271 271 270 270 270 270 270 270 271 271 271 271 271 272 272 272 272 272 272 271 271 270 270
276 276 276 276 276 276 275 274 273 273 272 271 271 270 270 270 269 269 269 269 269 269 269 269 269 269 269 269 269 269 269 269 269 270 270 271 271 271 270 270 270 269 269
274 274 275 275 275 274 274 274 273 273 272 271 270 269 269 269 268 267 267 267 267 267 267 267 267 267 266 266 266 266 267 267 268 268 268 269 269 269 269 269 269 269 269
273 273 273 274 273 273 274 273 273 272 272 271 270 269 269 268 267 267 266 266 265 265 265 265 265 265 264 264 264 264 264 265 265 266 267 267 268 268 268 268 268 268 268
271 271 272 272 272 272 272 272 272 272 271 271 270 269 268 268 267 266 266 265 265 265 264 264 264 264 263 263 263 263 263 264 264 265 266 266 266 266 266 267 267 266 266
270 270 270 270 270 270 271 271 271 271 270 270 270 269 268 267 267 266 266 265 265 264 264 264 263 263 263 262 262 262 262 262 262 263 264 264 265 265 265 265 265 265 265
269 269 269 269 269 269 269 269 269 270 269 269 269 268 268 267 267 266 265 265 264 264 264 263 263 263 262 262 261 261 261 261 261 262 263 263 263 263 263 263 263 264 264

GFSGL_925_thetae_117.txt.gz
Theta_e
295 297 298 300 303 308 312 316 320 329 330 330 330 330 331 329 330 328 328 329 328 327 327 326 326 325 325 324 324 324 323 323 322 321 320 320 320 320 320 319 319 319 320
293 294 295 296 298 300 303 310 317 325 328 330 329 329 328 328 328 328 327 326 327 326 326 325 325 324 323 323 323 322 322 321 321 318 319 319 320 320 319 320 320 320 319
292 292 293 293 294 295 298 301 308 316 323 326 327 327 327 327 326 326 325 326 326 326 325 324 322 322 323 323 322 321 321 320 320 318 318 319 318 317 317 318 319 319 317
291 290 291 291 292 292 294 296 299 303 311 314 320 323 325 325 325 325 325 324 324 325 323 322 322 322 323 322 321 320 320 319 319 319 318 318 318 317 316 318 319 315 314
288 289 289 290 290 291 291 292 293 295 298 302 306 308 310 311 309 315 320 322 322 322 321 321 321 322 322 322 322 320 320 319 318 318 318 318 318 317 318 318 318 316 311
287 287 288 289 289 289 289 289 290 291 292 295 295 297 299 299 301 307 316 319 321 321 321 321 321 321 322 322 322 322 321 319 319 318 318 318 318 318 317 317 317 312 308
285 285 286 287 287 288 288 288 288 288 289 289 290 290 291 293 296 302 310 312 313 317 319 320 320 321 321 322 321 319 320 320 320 319 319 319 318 318 317 318 317 316 315
283 283 283 285 287 287 287 287 287 287 286 286 287 287 287 289 292 296 303 302 301 296 298 306 310 313 315 318 319 316 314 315 316 318 318 319 318 318 318 318 317 316 308
282 281 282 283 284 285 285 286 286 286 286 285 285 285 286 286 290 291 294 298 296 293 292 292 296 300 300 304 307 308 302 299 299 304 308 311 312 314 315 315 314 303 293
281 281 281 282 282 283 283 284 285 286 285 286 285 284 284 285 286 290 291 290 291 290 290 289 287 291 294 297 298 296 292 290 293 293 294 296 298 300 300 303 303 303 293
281 281 281 281 282 282 283 283 284 285 285 285 285 284 284 284 284 285 286 286 285 284 284 284 285 286 287 290 292 292 288 288 287 288 287 287 290 291 292 294 296 298 295
281 281 281 281 281 281 282 283 283 283 284 284 284 284 284 283 283 283 284 284 283 282 282 282 282 284 286 286 285 284 285 287 287 284 282 281 281 283 284 285 287 289 289
282 281 281 281 281 281 281 282 283 283 283 283 283 283 283 283 283 283 281 282 284 282 281 281 284 285 285 284 285 286 285 283 282 281 279 279 279 281 282 283 284 285 286
282 282 281 280 280 280 281 281 281 282 282 282 282 282 282 281 281 281 282 282 282 282 282 282 282 281 281 281 282 281 281 281 280 279 279 279 279 279 280 281 280 280 281
281 281 281 280 280 279 279 279 280 279 280 280 280 280 280 280 280 280 280 280 280 281 281 280 280 280 279 279 279 279 280 280 280 279 279 279 279 279 278 278 279 280 280
280 280 279 280 279 279 278 278 277 277 277 277 278 278 278 278 279 278 278 279 280 280 279 279 279 278 278 277 277 276 278 278 278 278 279 279 279 279 278 278 278 278 279
278 278 278 278 278 277 276 276 276 277 275 275 274 276 276 276 276 277 276 277 278 277 277 277 276 276 276 276 275 275 274 275 277 277 276 277 277 277 278 278 277 277 277
277 277 277 277 276 276 275 274 274 274 274 273 273 273 273 273 274 276 276 276 275 274 274 274 274 274 273 273 273 273 273 273 274 274 274 275 275 276 276 276 276 277 276
276 276 276 276 276 276 275 274 274 273 273 272 272 272 272 272 273 274 274 273 273 273 272 272 272 272 271 271 271 271 271 272 272 272 273 273 274 274 274 274 273 273 274
275 275 275 275 275 275 274 274 274 273 272 272 271 270 270 271 271 270 269 270 270 270 270 270 269 269 269 269 269 270 270 270 271 271 271 272 273 273 273 273 273 273 272
273 274 274 275 275 274 274 274 273 273 272 271 270 269 269 269 269 268 268 267 268 268 268 268 267 267 267 267 267 268 268 268 268 269 270 270 271 272 272 272 272 271 271
272 273 273 273 273 273 273 273 272 272 272 271 270 269 268 268 268 267 266 265 265 265 265 265 265 265 265 265 265 266 266 266 267 267 268 269 270 270 270 270 270 270 271
271 271 272 272 272 272 272 271 272 272 271 270 269 269 268 267 267 266 265 265 264 264 265 264 264 264 264 264 264 264 264 265 266 267 267 267 268 269 269 269 269 269 269
270 270 270 270 270 270 271 271 270 271 270 270 269 268 268 267 266 266 266 265 265 264 264 264 263 263 263 263 263 262 263 263 264 265 266 265 266 267 267 267 267 267 267
269 269 269 269 269 269 269 269 269 269 269 269 269 268 267 267 266 266 265 265 264 264 264 263 263 262 262 262 262 262 261 261 262 264 264 265 265 265 265 265 266 266 266
268 268 268 268 268 268 268 268 268 268 268 268 268 267 267 266 266 266 265 265 264 264 263 263 263 262 262 262 262 261 261 261 261 262 263 263 263 263 264 264 264 265 265

GFSGL_925_thetae_120.txt.gz
Theta_e
296 297 298 300 301 302 304 307 312 318 325 331 332 331 331 331 331 330 330 331 331 330 330 330 330 329 329 328 328 327 326 325 325 324 322 322 322 322 322 322 321 321 321
294 294 294 295 296 297 298 300 304 309 319 326 329 330 330 330 330 329 329 329 330 329 330 329 329 329 328 327 327 326 325 324 324 324 322 321 320 321 321 321 321 321 322
293 293 293 293 293 294 295 296 298 301 307 315 322 324 327 328 328 328 328 328 328 329 329 329 328 327 326 326 325 324 326 325 324 323 320 320 319 320 320 320 320 320 320
293 294 292 292 292 292 292 293 294 295 297 300 304 308 311 314 316 320 322 326 326 327 327 328 327 326 325 325 324 325 325 323 322 321 320 319 319 318 319 319 319 319 318
291 291 292 291 291 291 291 291 291 291 293 293 294 298 300 301 301 307 311 318 322 325 325 325 325 324 324 324 325 324 323 322 321 320 319 319 319 317 318 318 318 315 311
289 289 290 291 290 289 290 290 290 289 290 290 291 291 292 293 295 299 306 308 312 320 322 323 323 322 322 323 322 322 322 321 320 319 319 318 318 318 318 317 317 310 308
287 288 288 289 290 289 289 288 288 288 288 288 288 288 288 289 293 294 295 300 305 304 305 310 314 319 321 321 321 322 322 321 320 320 319 319 319 318 318 318 318 315 315
285 285 286 287 288 288 289 289 288 288 287 286 286 287 287 287 291 293 292 292 294 296 296 297 300 302 305 311 315 312 309 311 314 316 317 318 318 318 318 318 318 315 310
284 284 284 285 286 286 286 287 287 287 287 286 286 285 286 285 286 290 291 289 288 287 289 291 293 296 297 300 302 304 297 296 297 301 304 304 311 314 317 317 317 307 295
283 283 283 283 284 284 285 285 286 286 286 286 286 285 284 284 284 284 286 286 286 285 285 285 287 289 294 297 295 292 291 289 290 292 295 297 298 299 303 304 308 312 296
284 284 283 283 283 284 284 285 285 285 285 285 285 285 284 284 284 283 283 285 285 284 283 283 283 285 286 291 293 291 286 288 287 288 286 287 289 290 291 294 295 299 296
285 284 284 284 284 284 284 285 285 285 285 285 285 285 284 283 283 283 283 282 283 284 284 283 282 283 285 285 285 286 287 287 286 283 282 281 281 281 282 284 286 289 289
285 285 284 284 284 284 284 284 284 285 285 285 284 285 284 283 283 283 283 283 283 283 282 282 282 283 283 283 284 284 284 284 282 281 280 280 280 281 283 283 283 284 286
284 284 284 284 284 283 283 283 282 282 282 282 282 283 283 282 281 281 282 283 283 283 283 283 283 283 282 282 282 282 282 282 282 281 281 281 281 282 282 282 282 282 281
283 282 282 283 282 282 282 280 280 279 278 279 279 280 280 280 279 279 279 280 281 281 283 283 283 283 283 283 282 281 282 282 282 282 282 282 281 281 281 281 282 282 282
281 281 281 282 281 281 281 281 279 277 275 275 276 277 278 277 277 278 277 277 279 281 283 283 282 282 282 282 281 281 281 281 281 281 281 281 280 281 280 280 280 281 282
279 279 280 280 280 280 279 279 279 279 277 275 274 274 275 275 275 276 276 277 277 281 281 281 280 280 280 280 280 280 279 279 279 280 280 280 280 279 280 279 279 279 279
278 279 279 279 279 279 279 278 278 278 278 277 276 274 273 273 274 274 276 279 279 278 278 278 278 278 278 278 278 278 278 278 278 278 279 279 279 279 279 279 279 279 278
277 277 277 278 278 277 278 278 278 277 277 277 276 275 274 273 274 273 274 276 276 276 276 276 276 276 276 276 276 276 276 276 276 277 277 277 278 278 277 276 276 276 278
276 276 276 277 277 277 277 277 277 277 276 276 275 273 272 274 274 273 273 273 273 273 274 274 273 273 273 273 274 274 275 275 276 276 276 276 276 276 276 276 276 276 276
275 275 275 276 276 276 276 276 276 275 275 275 274 271 269 272 272 272 271 271 271 271 271 271 271 270 270 271 271 272 272 273 273 274 275 275 275 276 275 275 275 275 275
274 274 274 275 274 275 274 274 275 275 274 274 273 272 270 272 271 271 270 269 269 269 269 269 269 268 267 267 268 269 269 270 270 271 272 273 274 274 274 274 274 274 274
273 273 273 273 273 273 273 274 273 274 274 273 272 272 271 271 270 270 269 268 268 267 266 267 267 266 266 265 265 265 266 266 266 266 270 271 272 272 273 273 272 273 272
272 272 272 272 272 271 272 272 272 272 272 272 272 272 271 270 270 269 268 267 267 267 266 265 264 263 264 264 264 264 263 262 263 265 265 269 270 270 271 271 271 270 271
272 271 271 271 271 271 271 271 271 271 271 271 271 271 270 270 269 269 268 267 266 266 265 264 264 264 262 262 261 261 262 262 263 264 265 266 267 267 268 269 269 269 269
272 271 271 271 271 271 270 270 270 270 270 270 270 270 270 269 269 268 268 267 266 266 265 265 264 262 262 263 261 262 261 261 261 262 263 266 266 267 267 267 267 269 268

GFSGL_925_thetae_123.txt.gz
Theta_e
296 296 297 299 300 301 303 305 307 311 317 324 330 333 333 333 332 333 333 333 334 334 333 331 332 333 333 332 331 330 330 330 330 328 326 326 325 324 323 323 324 323 323
295 295 296 296 296 296 296 298 300 302 304 310 319 327 328 331 331 330 331 330 331 332 331 325 331 331 331 331 329 329 330 329 329 327 326 324 324 323 323 323 323 323 322
295 295 294 294 293 293 294 294 295 296 298 300 304 306 308 311 318 319 320 327 330 330 331 331 331 331 331 331 329 329 329 328 327 326 325 325 323 323 322 322 322 322 322
293 294 293 292 293 293 292 292 292 293 293 295 295 296 297 298 302 307 312 318 322 324 328 329 330 330 329 329 328 328 328 327 327 327 325 323 321 320 321 321 320 320 319
291 292 293 294 292 292 291 290 290 291 291 291 292 292 292 293 294 297 304 306 308 312 318 325 326 327 328 328 328 327 327 326 326 324 322 321 320 319 319 320 320 317 315
289 290 292 292 292 291 290 290 289 289 289 289 289 289 289 289 292 294 296 298 299 299 301 309 316 318 320 325 325 325 324 324 324 322 322 320 320 320 319 319 319 310 309
287 288 289 290 290 291 291 290 289 288 288 287 287 287 287 286 289 291 292 293 292 292 292 294 298 301 306 312 320 322 322 322 322 321 321 320 320 319 319 318 318 314 315
286 286 287 288 288 289 289 289 289 288 288 287 287 286 286 285 286 288 289 289 289 289 289 288 291 293 297 301 303 306 307 306 306 310 313 315 316 318 319 318 318 315 311
285 285 285 286 287 287 287 287 288 287 287 287 286 286 286 285 285 286 288 287 287 286 286 286 287 288 292 294 298 296 292 291 293 293 293 295 298 307 313 317 317 308 296
286 286 285 285 285 286 286 286 287 287 287 287 286 285 285 284 285 285 285 286 287 287 285 285 284 285 288 291 291 292 292 290 290 292 293 294 296 296 301 302 304 309 299
287 286 286 285 286 285 286 286 286 287 286 286 287 286 285 284 284 284 284 284 285 285 285 284 284 283 284 286 287 286 286 287 289 290 290 289 289 291 290 292 293 296 297
288 287 287 287 286 286 286 285 285 286 286 286 286 286 285 284 283 283 284 283 284 284 284 284 283 283 283 283 284 284 285 285 284 283 283 282 282 284 284 287 287 289 289
286 286 287 285 286 286 285 285 283 283 284 284 284 284 284 283 282 282 282 283 283 284 284 284 284 284 283 284 283 283 284 283 283 283 282 282 282 283 283 284 285 285 287
285 285 285 285 285 285 284 283 282 280 281 281 281 281 281 281 279 280 280 281 282 283 284 284 284 284 284 284 283 283 283 283 283 284 283 283 283 283 283 284 284 283 282
283 284 283 284 284 284 283 282 281 278 277 277 277 279 279 278 277 278 278 279 280 282 284 284 284 284 284 284 283 282 282 283 283 283 283 283 283 283 282 283 283 283 283
282 282 282 283 283 283 282 283 280 279 277 276 275 275 276 276 276 277 278 279 279 282 283 283 282 282 283 283 282 282 281 281 282 283 283 282 282 282 282 281 282 283 283
280 281 281 282 281 281 281 281 281 281 280 278 276 276 275 275 275 275 277 279 280 281 281 281 281 281 281 281 281 281 281 280 281 281 282 282 282 282 282 281 281 281 281
278 280 279 280 280 280 280 280 280 280 280 280 279 276 275 275 275 275 276 279 280 279 279 279 279 279 279 279 279 278 279 279 280 280 280 280 280 281 281 281 281 280 280
278 279 278 279 279 279 279 279 279 279 279 279 279 277 274 274 276 276 275 276 277 277 277 277 276 276 276 277 276 277 278 278 278 279 279 279 279 280 279 279 278 279 280
278 278 277 277 278 279 278 278 278 278 278 278 278 276 273 274 276 275 275 274 274 274 274 274 274 273 274 274 275 275 276 276 277 278 278 278 278 279 278 278 278 279 278
277 277 276 277 277 277 277 277 277 277 277 277 276 274 272 273 274 274 273 272 272 272 272 272 272 272 271 272 272 273 273 274 274 275 275 276 276 277 277 277 277 277 277
276 276 276 276 276 276 275 275 276 276 276 276 276 275 274 274 273 273 272 271 271 270 270 270 270 270 269 269 269 270 271 271 270 271 273 274 275 275 276 276 276 276 276
275 275 275 275 275 274 274 275 274 275 275 274 275 275 274 273 272 272 271 270 270 269 268 268 268 268 267 268 268 267 267 267 268 268 269 273 273 273 274 275 274 275 274
274 274 274 274 274 273 274 273 273 273 273 273 274 274 274 273 272 271 271 270 269 269 268 267 267 265 264 265 265 265 263 262 264 266 267 269 272 272 273 273 272 271 272
274 274 274 273 273 273 273 273 273 273 273 273 273 273 272 272 272 272 271 270 269 268 268 267 266 266 264 263 262 261 262 262 262 264 266 269 268 269 269 271 270 271 270
274 274 274 274 273 273 273 273 272 272 272 272 272 272 271 271 271 270 270 269 269 268 267 267 266 265 264 265 263 262 262 262 262 263 265 268 268 269 269 269 268 270 269

GFSGL_925_thetae_126.txt.gz
Theta_e
294 295 295 296 297 299 302 302 310 312 312 319 318 322 327 330 332 334 335 334 334 335 335 333 331 328 330 323 325 330 332 331 330 329 329 328 327 327 326 325 324 324 324
294 293 294 294 294 294 296 297 297 303 309 306 309 309 310 315 319 323 324 330 333 334 334 334 332 332 324 323 327 331 331 331 330 329 329 329 327 326 325 325 324 323 323
293 293 292 292 292 292 292 293 295 297 297 300 299 298 299 302 306 309 314 316 321 323 328 330 332 330 328 329 331 330 330 329 329 329 328 328 326 325 325 324 323 323 323
292 292 292 291 291 291 291 291 291 292 292 293 294 293 293 295 299 302 303 305 308 311 314 317 320 319 324 330 330 330 330 329 329 328 328 327 326 325 324 323 322 323 322
290 291 291 291 292 291 291 290 289 290 290 289 289 290 289 290 291 295 296 298 300 302 303 306 306 305 308 312 315 323 328 328 328 327 326 325 323 321 321 321 321 321 320
288 289 290 290 290 290 290 290 289 288 288 288 287 287 287 287 289 291 293 292 293 292 293 296 297 301 305 307 309 314 319 319 326 325 324 322 322 321 321 320 320 314 310
287 287 288 288 289 289 289 289 289 288 287 287 287 287 286 286 289 288 289 288 288 287 287 289 290 292 296 300 303 302 305 304 306 312 315 320 320 321 321 319 319 316 317
286 286 287 287 288 288 288 288 288 288 287 286 286 286 285 285 286 288 289 288 287 286 286 285 286 287 290 295 297 297 297 300 298 298 299 298 300 307 311 318 319 318 314
287 286 287 286 287 287 287 288 287 287 287 287 285 285 285 284 285 285 286 287 287 286 285 285 284 285 285 291 292 291 291 290 291 293 294 295 295 296 298 308 310 309 298
288 287 287 287 286 286 286 286 287 287 286 286 286 285 284 283 283 284 285 285 285 285 285 285 284 284 285 285 287 287 286 286 288 289 290 291 292 292 296 296 298 300 300
288 287 286 287 286 286 285 284 284 285 285 285 285 285 283 282 282 283 283 284 284 285 285 284 284 284 284 284 284 284 284 285 286 286 286 286 286 287 288 290 292 294 295
286 287 286 286 286 285 284 282 281 282 283 282 282 282 282 280 280 281 281 282 283 284 285 284 284 284 284 284 284 284 284 284 284 284 283 283 284 284 284 285 286 288 290
285 285 286 285 285 284 284 282 280 279 279 280 280 280 279 278 278 279 280 281 281 283 284 284 284 284 284 283 283 284 284 284 284 284 283 283 283 284 285 284 285 285 286
284 284 284 284 284 284 283 282 280 279 279 278 277 277 278 277 276 277 278 279 280 282 283 283 283 284 283 284 283 282 283 283 283 283 283 283 283 283 284 284 283 283 282
283 282 282 283 283 283 282 281 281 279 278 277 276 276 276 276 276 277 278 280 280 281 282 282 282 283 283 283 283 282 281 281 282 283 283 282 282 282 282 283 283 282 282
281 281 281 282 282 281 281 282 281 280 279 278 277 276 276 276 276 277 277 279 280 281 281 281 281 281 281 281 280 281 281 281 281 281 282 282 282 282 282 282 282 282 282
279 280 280 280 281 281 280 281 281 281 280 280 278 276 276 275 277 277 276 278 280 279 279 279 278 278 278 278 278 278 279 278 280 280 281 281 281 282 282 281 281 281 280
279 279 278 279 280 280 280 280 280 280 280 280 279 277 275 275 277 276 276 275 276 276 276 277 276 276 276 276 276 277 278 278 278 279 279 279 280 280 279 279 279 280 280
278 278 278 278 278 279 279 279 279 279 279 279 278 277 275 274 276 276 275 273 274 274 274 274 274 273 273 274 275 275 276 276 276 278 278 278 279 279 279 279 279 279 279
277 278 277 277 278 278 278 278 277 277 278 278 278 275 274 273 275 274 274 272 272 272 272 272 272 272 271 271 272 273 273 274 274 275 275 276 277 278 278 277 277 278 278
276 277 276 276 277 277 276 275 276 277 276 276 277 276 275 274 274 273 273 271 271 271 270 270 270 270 269 269 269 270 270 271 271 271 272 274 276 276 276 277 277 276 277
275 276 276 276 276 275 275 275 275 275 275 275 275 275 275 274 274 273 272 271 270 270 269 268 268 268 267 268 268 268 267 268 268 268 270 271 273 275 276 275 275 275 275
274 275 275 275 275 275 274 274 274 274 274 274 274 274 274 274 274 273 272 271 270 269 269 268 267 266 266 266 266 265 265 264 265 266 268 269 271 272 273 273 273 273 272
274 275 275 275 275 274 274 274 274 274 273 273 273 273 273 273 273 272 272 271 269 268 268 267 267 266 265 264 264 263 263 262 263 265 267 268 269 270 271 271 272 272 272
274 274 275 275 275 274 274 274 274 273 273 273 272 272 272 272 272 271 271 271 269 268 268 267 267 266 265 264 264 263 263 262 262 264 267 268 268 269 269 270 270 271 270
274 274 274 274 274 274 274 274 274 274 273 273 272 271 271 271 271 271 270 270 269 268 267 267 267 266 265 265 264 264 263 262 262 264 265 266 267 267 268 268 269 270 270